<?xml version="1.0" encoding="UTF-8" standalone="no" ?>
<gpx xmlns="http://www.topografix.com/GPX/1/1" xmlns:xsi="http://www.w3.org/2001/XMLSchema-instance" xsi:schemaLocation="http://www.topografix.com/GPX/1/1 http://www.topografix.com/GPX/1/1/gpx.xsd" version="1.1" creator="VisuGPX - https://www.visugpx.com">
  <metadata>
    <name>Pic de Barbe (..ou presque)</name>
  </metadata>
  <trk>
    <name><![CDATA[SityTrail - Barbe]]></name>
    <trkseg>
      <trkpt lat="42.90634" lon="0.10434">
        <ele>1542</ele>
        <time>2022-01-26T08:33:36.302Z</time>
      </trkpt>
      <trkpt lat="42.90633" lon="0.10436">
        <ele>1542</ele>
        <time>2022-01-26T08:41:13.308Z</time>
      </trkpt>
      <trkpt lat="42.90633" lon="0.10436">
        <ele>1542</ele>
        <time>2022-01-26T08:41:18.313Z</time>
      </trkpt>
      <trkpt lat="42.90634" lon="0.10438">
        <ele>1542</ele>
        <time>2022-01-26T08:41:23.311Z</time>
      </trkpt>
      <trkpt lat="42.90634" lon="0.10445">
        <ele>1542</ele>
        <time>2022-01-26T08:41:28.302Z</time>
      </trkpt>
      <trkpt lat="42.90632" lon="0.10453">
        <ele>1542</ele>
        <time>2022-01-26T08:41:33.332Z</time>
      </trkpt>
      <trkpt lat="42.90631" lon="0.1046">
        <ele>1545</ele>
        <time>2022-01-26T08:41:38.303Z</time>
      </trkpt>
      <trkpt lat="42.90629" lon="0.10467">
        <ele>1545</ele>
        <time>2022-01-26T08:41:43.303Z</time>
      </trkpt>
      <trkpt lat="42.90629" lon="0.10475">
        <ele>1545</ele>
        <time>2022-01-26T08:41:48.303Z</time>
      </trkpt>
      <trkpt lat="42.90629" lon="0.10481">
        <ele>1545</ele>
        <time>2022-01-26T08:41:53.303Z</time>
      </trkpt>
      <trkpt lat="42.90629" lon="0.10488">
        <ele>1545</ele>
        <time>2022-01-26T08:41:58.301Z</time>
      </trkpt>
      <trkpt lat="42.90629" lon="0.10494">
        <ele>1545</ele>
        <time>2022-01-26T08:42:02.303Z</time>
      </trkpt>
      <trkpt lat="42.9063" lon="0.10504">
        <ele>1545</ele>
        <time>2022-01-26T08:42:07.303Z</time>
      </trkpt>
      <trkpt lat="42.9063" lon="0.10511">
        <ele>1545</ele>
        <time>2022-01-26T08:42:12.306Z</time>
      </trkpt>
      <trkpt lat="42.9063" lon="0.10516">
        <ele>1548</ele>
        <time>2022-01-26T08:42:17.305Z</time>
      </trkpt>
      <trkpt lat="42.9063" lon="0.10522">
        <ele>1548</ele>
        <time>2022-01-26T08:42:22.302Z</time>
      </trkpt>
      <trkpt lat="42.90629" lon="0.10526">
        <ele>1548</ele>
        <time>2022-01-26T08:42:26.332Z</time>
      </trkpt>
      <trkpt lat="42.90627" lon="0.10531">
        <ele>1548</ele>
        <time>2022-01-26T08:42:31.304Z</time>
      </trkpt>
      <trkpt lat="42.90626" lon="0.10537">
        <ele>1548</ele>
        <time>2022-01-26T08:42:36.303Z</time>
      </trkpt>
      <trkpt lat="42.90626" lon="0.10548">
        <ele>1550</ele>
        <time>2022-01-26T08:42:41.303Z</time>
      </trkpt>
      <trkpt lat="42.90625" lon="0.10558">
        <ele>1532</ele>
        <time>2022-01-26T08:42:46.309Z</time>
      </trkpt>
      <trkpt lat="42.90624" lon="0.10564">
        <ele>1532</ele>
        <time>2022-01-26T08:42:50.328Z</time>
      </trkpt>
      <trkpt lat="42.90622" lon="0.1057">
        <ele>1534</ele>
        <time>2022-01-26T08:42:55.333Z</time>
      </trkpt>
      <trkpt lat="42.90621" lon="0.10576">
        <ele>1534</ele>
        <time>2022-01-26T08:43:00.305Z</time>
      </trkpt>
      <trkpt lat="42.9062" lon="0.10582">
        <ele>1534</ele>
        <time>2022-01-26T08:43:05.334Z</time>
      </trkpt>
      <trkpt lat="42.90619" lon="0.10583">
        <ele>1534</ele>
        <time>2022-01-26T08:43:10.331Z</time>
      </trkpt>
      <trkpt lat="42.90617" lon="0.10594">
        <ele>1534</ele>
        <time>2022-01-26T08:45:41.334Z</time>
      </trkpt>
      <trkpt lat="42.90619" lon="0.10596">
        <ele>1534</ele>
        <time>2022-01-26T08:45:46.308Z</time>
      </trkpt>
      <trkpt lat="42.9062" lon="0.10603">
        <ele>1536</ele>
        <time>2022-01-26T08:45:51.311Z</time>
      </trkpt>
      <trkpt lat="42.90622" lon="0.10609">
        <ele>1536</ele>
        <time>2022-01-26T08:45:56.312Z</time>
      </trkpt>
      <trkpt lat="42.90623" lon="0.10614">
        <ele>1536</ele>
        <time>2022-01-26T08:46:01.309Z</time>
      </trkpt>
      <trkpt lat="42.90623" lon="0.1062">
        <ele>1536</ele>
        <time>2022-01-26T08:46:06.314Z</time>
      </trkpt>
      <trkpt lat="42.90623" lon="0.10626">
        <ele>1540</ele>
        <time>2022-01-26T08:46:11.312Z</time>
      </trkpt>
      <trkpt lat="42.90624" lon="0.10631">
        <ele>1540</ele>
        <time>2022-01-26T08:46:16.321Z</time>
      </trkpt>
      <trkpt lat="42.90625" lon="0.10636">
        <ele>1540</ele>
        <time>2022-01-26T08:46:21.309Z</time>
      </trkpt>
      <trkpt lat="42.90625" lon="0.1064">
        <ele>1540</ele>
        <time>2022-01-26T08:46:26.307Z</time>
      </trkpt>
      <trkpt lat="42.90625" lon="0.10645">
        <ele>1556</ele>
        <time>2022-01-26T08:46:31.312Z</time>
      </trkpt>
      <trkpt lat="42.90627" lon="0.10648">
        <ele>1556</ele>
        <time>2022-01-26T08:46:36.308Z</time>
      </trkpt>
      <trkpt lat="42.90628" lon="0.10653">
        <ele>1556</ele>
        <time>2022-01-26T08:46:41.311Z</time>
      </trkpt>
      <trkpt lat="42.9063" lon="0.10656">
        <ele>1556</ele>
        <time>2022-01-26T08:46:46.352Z</time>
      </trkpt>
      <trkpt lat="42.90631" lon="0.10661">
        <ele>1556</ele>
        <time>2022-01-26T08:46:51.307Z</time>
      </trkpt>
      <trkpt lat="42.90632" lon="0.10667">
        <ele>1556</ele>
        <time>2022-01-26T08:46:56.313Z</time>
      </trkpt>
      <trkpt lat="42.90632" lon="0.10673">
        <ele>1556</ele>
        <time>2022-01-26T08:47:01.304Z</time>
      </trkpt>
      <trkpt lat="42.90631" lon="0.10677">
        <ele>1556</ele>
        <time>2022-01-26T08:47:06.308Z</time>
      </trkpt>
      <trkpt lat="42.90632" lon="0.1068">
        <ele>1556</ele>
        <time>2022-01-26T08:47:10.307Z</time>
      </trkpt>
      <trkpt lat="42.90633" lon="0.10686">
        <ele>1559</ele>
        <time>2022-01-26T08:47:15.308Z</time>
      </trkpt>
      <trkpt lat="42.90635" lon="0.10688">
        <ele>1559</ele>
        <time>2022-01-26T08:47:19.312Z</time>
      </trkpt>
      <trkpt lat="42.90636" lon="0.10694">
        <ele>1559</ele>
        <time>2022-01-26T08:47:24.313Z</time>
      </trkpt>
      <trkpt lat="42.90637" lon="0.107">
        <ele>1559</ele>
        <time>2022-01-26T08:47:29.308Z</time>
      </trkpt>
      <trkpt lat="42.90639" lon="0.10704">
        <ele>1559</ele>
        <time>2022-01-26T08:47:34.310Z</time>
      </trkpt>
      <trkpt lat="42.9064" lon="0.1071">
        <ele>1559</ele>
        <time>2022-01-26T08:47:39.308Z</time>
      </trkpt>
      <trkpt lat="42.90641" lon="0.10716">
        <ele>1559</ele>
        <time>2022-01-26T08:47:44.302Z</time>
      </trkpt>
      <trkpt lat="42.90639" lon="0.10721">
        <ele>1559</ele>
        <time>2022-01-26T08:47:49.310Z</time>
      </trkpt>
      <trkpt lat="42.90638" lon="0.10725">
        <ele>1559</ele>
        <time>2022-01-26T08:47:53.306Z</time>
      </trkpt>
      <trkpt lat="42.90638" lon="0.10731">
        <ele>1559</ele>
        <time>2022-01-26T08:47:58.305Z</time>
      </trkpt>
      <trkpt lat="42.90638" lon="0.10737">
        <ele>1556</ele>
        <time>2022-01-26T08:48:03.309Z</time>
      </trkpt>
      <trkpt lat="42.90638" lon="0.10743">
        <ele>1556</ele>
        <time>2022-01-26T08:48:08.310Z</time>
      </trkpt>
      <trkpt lat="42.90639" lon="0.10749">
        <ele>1556</ele>
        <time>2022-01-26T08:48:13.311Z</time>
      </trkpt>
      <trkpt lat="42.9064" lon="0.10754">
        <ele>1556</ele>
        <time>2022-01-26T08:48:18.305Z</time>
      </trkpt>
      <trkpt lat="42.9064" lon="0.10758">
        <ele>1556</ele>
        <time>2022-01-26T08:48:23.305Z</time>
      </trkpt>
      <trkpt lat="42.9064" lon="0.10761">
        <ele>1556</ele>
        <time>2022-01-26T08:48:28.312Z</time>
      </trkpt>
      <trkpt lat="42.9064" lon="0.10765">
        <ele>1558</ele>
        <time>2022-01-26T08:48:32.311Z</time>
      </trkpt>
      <trkpt lat="42.9064" lon="0.10769">
        <ele>1558</ele>
        <time>2022-01-26T08:48:37.307Z</time>
      </trkpt>
      <trkpt lat="42.9064" lon="0.10774">
        <ele>1558</ele>
        <time>2022-01-26T08:48:42.308Z</time>
      </trkpt>
      <trkpt lat="42.90641" lon="0.10779">
        <ele>1558</ele>
        <time>2022-01-26T08:48:47.305Z</time>
      </trkpt>
      <trkpt lat="42.90641" lon="0.10783">
        <ele>1558</ele>
        <time>2022-01-26T08:48:52.307Z</time>
      </trkpt>
      <trkpt lat="42.90642" lon="0.10787">
        <ele>1558</ele>
        <time>2022-01-26T08:48:56.325Z</time>
      </trkpt>
      <trkpt lat="42.90642" lon="0.10794">
        <ele>1563</ele>
        <time>2022-01-26T08:49:01.304Z</time>
      </trkpt>
      <trkpt lat="42.90643" lon="0.10799">
        <ele>1563</ele>
        <time>2022-01-26T08:49:05.307Z</time>
      </trkpt>
      <trkpt lat="42.90643" lon="0.10804">
        <ele>1563</ele>
        <time>2022-01-26T08:49:10.303Z</time>
      </trkpt>
      <trkpt lat="42.90643" lon="0.10808">
        <ele>1563</ele>
        <time>2022-01-26T08:49:15.305Z</time>
      </trkpt>
      <trkpt lat="42.90645" lon="0.1081">
        <ele>1563</ele>
        <time>2022-01-26T08:49:20.330Z</time>
      </trkpt>
      <trkpt lat="42.90645" lon="0.10815">
        <ele>1563</ele>
        <time>2022-01-26T08:49:25.306Z</time>
      </trkpt>
      <trkpt lat="42.90644" lon="0.1082">
        <ele>1562</ele>
        <time>2022-01-26T08:49:30.303Z</time>
      </trkpt>
      <trkpt lat="42.90645" lon="0.10825">
        <ele>1562</ele>
        <time>2022-01-26T08:49:35.305Z</time>
      </trkpt>
      <trkpt lat="42.90645" lon="0.1083">
        <ele>1562</ele>
        <time>2022-01-26T08:49:39.304Z</time>
      </trkpt>
      <trkpt lat="42.90646" lon="0.10835">
        <ele>1562</ele>
        <time>2022-01-26T08:49:44.332Z</time>
      </trkpt>
      <trkpt lat="42.90646" lon="0.10839">
        <ele>1562</ele>
        <time>2022-01-26T08:49:49.305Z</time>
      </trkpt>
      <trkpt lat="42.90647" lon="0.10844">
        <ele>1562</ele>
        <time>2022-01-26T08:49:54.306Z</time>
      </trkpt>
      <trkpt lat="42.90648" lon="0.10849">
        <ele>1560</ele>
        <time>2022-01-26T08:49:59.308Z</time>
      </trkpt>
      <trkpt lat="42.90648" lon="0.10856">
        <ele>1560</ele>
        <time>2022-01-26T08:50:04.311Z</time>
      </trkpt>
      <trkpt lat="42.90648" lon="0.10862">
        <ele>1560</ele>
        <time>2022-01-26T08:50:09.311Z</time>
      </trkpt>
      <trkpt lat="42.90648" lon="0.10867">
        <ele>1560</ele>
        <time>2022-01-26T08:50:13.303Z</time>
      </trkpt>
      <trkpt lat="42.90649" lon="0.10873">
        <ele>1560</ele>
        <time>2022-01-26T08:50:18.304Z</time>
      </trkpt>
      <trkpt lat="42.90649" lon="0.1088">
        <ele>1561</ele>
        <time>2022-01-26T08:50:23.304Z</time>
      </trkpt>
      <trkpt lat="42.90649" lon="0.10886">
        <ele>1561</ele>
        <time>2022-01-26T08:50:28.304Z</time>
      </trkpt>
      <trkpt lat="42.9065" lon="0.10891">
        <ele>1561</ele>
        <time>2022-01-26T08:50:33.304Z</time>
      </trkpt>
      <trkpt lat="42.9065" lon="0.10894">
        <ele>1561</ele>
        <time>2022-01-26T08:50:37.315Z</time>
      </trkpt>
      <trkpt lat="42.9065" lon="0.10899">
        <ele>1561</ele>
        <time>2022-01-26T08:50:42.305Z</time>
      </trkpt>
      <trkpt lat="42.90651" lon="0.10905">
        <ele>1562</ele>
        <time>2022-01-26T08:50:47.307Z</time>
      </trkpt>
      <trkpt lat="42.90651" lon="0.10911">
        <ele>1562</ele>
        <time>2022-01-26T08:50:52.305Z</time>
      </trkpt>
      <trkpt lat="42.90652" lon="0.10917">
        <ele>1562</ele>
        <time>2022-01-26T08:50:57.308Z</time>
      </trkpt>
      <trkpt lat="42.90653" lon="0.10922">
        <ele>1562</ele>
        <time>2022-01-26T08:51:02.304Z</time>
      </trkpt>
      <trkpt lat="42.90653" lon="0.10928">
        <ele>1572</ele>
        <time>2022-01-26T08:51:07.305Z</time>
      </trkpt>
      <trkpt lat="42.90654" lon="0.10932">
        <ele>1575</ele>
        <time>2022-01-26T08:51:11.305Z</time>
      </trkpt>
      <trkpt lat="42.90655" lon="0.10936">
        <ele>1575</ele>
        <time>2022-01-26T08:51:16.307Z</time>
      </trkpt>
      <trkpt lat="42.90656" lon="0.1094">
        <ele>1575</ele>
        <time>2022-01-26T08:51:21.303Z</time>
      </trkpt>
      <trkpt lat="42.90657" lon="0.10946">
        <ele>1575</ele>
        <time>2022-01-26T08:51:26.302Z</time>
      </trkpt>
      <trkpt lat="42.90658" lon="0.10951">
        <ele>1575</ele>
        <time>2022-01-26T08:51:31.305Z</time>
      </trkpt>
      <trkpt lat="42.90659" lon="0.10955">
        <ele>1575</ele>
        <time>2022-01-26T08:51:36.307Z</time>
      </trkpt>
      <trkpt lat="42.9066" lon="0.10959">
        <ele>1577</ele>
        <time>2022-01-26T08:51:40.305Z</time>
      </trkpt>
      <trkpt lat="42.90661" lon="0.10965">
        <ele>1577</ele>
        <time>2022-01-26T08:51:45.307Z</time>
      </trkpt>
      <trkpt lat="42.90661" lon="0.1097">
        <ele>1577</ele>
        <time>2022-01-26T08:51:50.304Z</time>
      </trkpt>
      <trkpt lat="42.90662" lon="0.10975">
        <ele>1577</ele>
        <time>2022-01-26T08:51:55.306Z</time>
      </trkpt>
      <trkpt lat="42.90662" lon="0.1098">
        <ele>1577</ele>
        <time>2022-01-26T08:52:00.303Z</time>
      </trkpt>
      <trkpt lat="42.90664" lon="0.10986">
        <ele>1578</ele>
        <time>2022-01-26T08:52:05.309Z</time>
      </trkpt>
      <trkpt lat="42.90666" lon="0.10991">
        <ele>1578</ele>
        <time>2022-01-26T08:52:10.305Z</time>
      </trkpt>
      <trkpt lat="42.90668" lon="0.10997">
        <ele>1578</ele>
        <time>2022-01-26T08:52:15.331Z</time>
      </trkpt>
      <trkpt lat="42.90669" lon="0.11001">
        <ele>1578</ele>
        <time>2022-01-26T08:52:20.306Z</time>
      </trkpt>
      <trkpt lat="42.9067" lon="0.11007">
        <ele>1578</ele>
        <time>2022-01-26T08:52:25.309Z</time>
      </trkpt>
      <trkpt lat="42.90672" lon="0.1101">
        <ele>1578</ele>
        <time>2022-01-26T08:52:30.306Z</time>
      </trkpt>
      <trkpt lat="42.90673" lon="0.11014">
        <ele>1578</ele>
        <time>2022-01-26T08:52:35.306Z</time>
      </trkpt>
      <trkpt lat="42.90674" lon="0.11019">
        <ele>1578</ele>
        <time>2022-01-26T08:52:40.304Z</time>
      </trkpt>
      <trkpt lat="42.90676" lon="0.11023">
        <ele>1578</ele>
        <time>2022-01-26T08:52:44.305Z</time>
      </trkpt>
      <trkpt lat="42.90679" lon="0.11026">
        <ele>1578</ele>
        <time>2022-01-26T08:52:49.306Z</time>
      </trkpt>
      <trkpt lat="42.90682" lon="0.1103">
        <ele>1585</ele>
        <time>2022-01-26T08:52:54.307Z</time>
      </trkpt>
      <trkpt lat="42.90683" lon="0.11034">
        <ele>1585</ele>
        <time>2022-01-26T08:52:59.306Z</time>
      </trkpt>
      <trkpt lat="42.90684" lon="0.11037">
        <ele>1585</ele>
        <time>2022-01-26T08:53:03.306Z</time>
      </trkpt>
      <trkpt lat="42.90685" lon="0.11041">
        <ele>1585</ele>
        <time>2022-01-26T08:53:08.305Z</time>
      </trkpt>
      <trkpt lat="42.90687" lon="0.11046">
        <ele>1587</ele>
        <time>2022-01-26T08:53:13.304Z</time>
      </trkpt>
      <trkpt lat="42.90688" lon="0.11052">
        <ele>1587</ele>
        <time>2022-01-26T08:53:18.308Z</time>
      </trkpt>
      <trkpt lat="42.90689" lon="0.11056">
        <ele>1587</ele>
        <time>2022-01-26T08:53:23.307Z</time>
      </trkpt>
      <trkpt lat="42.9069" lon="0.11062">
        <ele>1587</ele>
        <time>2022-01-26T08:53:28.314Z</time>
      </trkpt>
      <trkpt lat="42.90692" lon="0.11068">
        <ele>1587</ele>
        <time>2022-01-26T08:53:33.304Z</time>
      </trkpt>
      <trkpt lat="42.90693" lon="0.11071">
        <ele>1586</ele>
        <time>2022-01-26T08:53:37.331Z</time>
      </trkpt>
      <trkpt lat="42.90693" lon="0.11075">
        <ele>1586</ele>
        <time>2022-01-26T08:53:42.305Z</time>
      </trkpt>
      <trkpt lat="42.90694" lon="0.11081">
        <ele>1586</ele>
        <time>2022-01-26T08:53:47.305Z</time>
      </trkpt>
      <trkpt lat="42.90696" lon="0.11085">
        <ele>1586</ele>
        <time>2022-01-26T08:53:52.306Z</time>
      </trkpt>
      <trkpt lat="42.90697" lon="0.11089">
        <ele>1586</ele>
        <time>2022-01-26T08:53:57.305Z</time>
      </trkpt>
      <trkpt lat="42.90698" lon="0.11095">
        <ele>1586</ele>
        <time>2022-01-26T08:54:02.305Z</time>
      </trkpt>
      <trkpt lat="42.90699" lon="0.111">
        <ele>1582</ele>
        <time>2022-01-26T08:54:07.306Z</time>
      </trkpt>
      <trkpt lat="42.90701" lon="0.11106">
        <ele>1582</ele>
        <time>2022-01-26T08:54:12.329Z</time>
      </trkpt>
      <trkpt lat="42.90702" lon="0.11111">
        <ele>1582</ele>
        <time>2022-01-26T08:54:17.306Z</time>
      </trkpt>
      <trkpt lat="42.90702" lon="0.11116">
        <ele>1582</ele>
        <time>2022-01-26T08:54:22.303Z</time>
      </trkpt>
      <trkpt lat="42.90704" lon="0.11117">
        <ele>1582</ele>
        <time>2022-01-26T08:54:27.307Z</time>
      </trkpt>
      <trkpt lat="42.90703" lon="0.11122">
        <ele>1582</ele>
        <time>2022-01-26T08:54:31.308Z</time>
      </trkpt>
      <trkpt lat="42.90704" lon="0.11128">
        <ele>1585</ele>
        <time>2022-01-26T08:54:36.306Z</time>
      </trkpt>
      <trkpt lat="42.90705" lon="0.11132">
        <ele>1585</ele>
        <time>2022-01-26T08:54:41.307Z</time>
      </trkpt>
      <trkpt lat="42.90706" lon="0.11138">
        <ele>1585</ele>
        <time>2022-01-26T08:54:46.306Z</time>
      </trkpt>
      <trkpt lat="42.90706" lon="0.11145">
        <ele>1585</ele>
        <time>2022-01-26T08:54:51.308Z</time>
      </trkpt>
      <trkpt lat="42.90708" lon="0.1115">
        <ele>1592</ele>
        <time>2022-01-26T08:54:56.307Z</time>
      </trkpt>
      <trkpt lat="42.9071" lon="0.11155">
        <ele>1591</ele>
        <time>2022-01-26T08:55:01.308Z</time>
      </trkpt>
      <trkpt lat="42.90712" lon="0.11161">
        <ele>1591</ele>
        <time>2022-01-26T08:55:06.303Z</time>
      </trkpt>
      <trkpt lat="42.90713" lon="0.11165">
        <ele>1591</ele>
        <time>2022-01-26T08:55:11.311Z</time>
      </trkpt>
      <trkpt lat="42.90715" lon="0.1117">
        <ele>1591</ele>
        <time>2022-01-26T08:55:16.331Z</time>
      </trkpt>
      <trkpt lat="42.90716" lon="0.11175">
        <ele>1591</ele>
        <time>2022-01-26T08:55:21.307Z</time>
      </trkpt>
      <trkpt lat="42.90717" lon="0.11181">
        <ele>1588</ele>
        <time>2022-01-26T08:55:26.308Z</time>
      </trkpt>
      <trkpt lat="42.90718" lon="0.11186">
        <ele>1588</ele>
        <time>2022-01-26T08:55:31.306Z</time>
      </trkpt>
      <trkpt lat="42.9072" lon="0.11191">
        <ele>1588</ele>
        <time>2022-01-26T08:55:36.302Z</time>
      </trkpt>
      <trkpt lat="42.90721" lon="0.11195">
        <ele>1588</ele>
        <time>2022-01-26T08:55:41.307Z</time>
      </trkpt>
      <trkpt lat="42.90721" lon="0.11198">
        <ele>1588</ele>
        <time>2022-01-26T08:55:45.308Z</time>
      </trkpt>
      <trkpt lat="42.90722" lon="0.11202">
        <ele>1588</ele>
        <time>2022-01-26T08:55:50.305Z</time>
      </trkpt>
      <trkpt lat="42.90723" lon="0.11207">
        <ele>1588</ele>
        <time>2022-01-26T08:55:54.305Z</time>
      </trkpt>
      <trkpt lat="42.90723" lon="0.11214">
        <ele>1585</ele>
        <time>2022-01-26T08:55:59.306Z</time>
      </trkpt>
      <trkpt lat="42.90724" lon="0.11218">
        <ele>1585</ele>
        <time>2022-01-26T08:56:03.312Z</time>
      </trkpt>
      <trkpt lat="42.90725" lon="0.11224">
        <ele>1585</ele>
        <time>2022-01-26T08:56:08.305Z</time>
      </trkpt>
      <trkpt lat="42.90725" lon="0.1123">
        <ele>1585</ele>
        <time>2022-01-26T08:56:13.305Z</time>
      </trkpt>
      <trkpt lat="42.90726" lon="0.11237">
        <ele>1582</ele>
        <time>2022-01-26T08:56:18.306Z</time>
      </trkpt>
      <trkpt lat="42.90727" lon="0.1124">
        <ele>1582</ele>
        <time>2022-01-26T08:56:23.307Z</time>
      </trkpt>
      <trkpt lat="42.90726" lon="0.11244">
        <ele>1582</ele>
        <time>2022-01-26T08:56:27.305Z</time>
      </trkpt>
      <trkpt lat="42.90727" lon="0.11249">
        <ele>1582</ele>
        <time>2022-01-26T08:56:32.306Z</time>
      </trkpt>
      <trkpt lat="42.90728" lon="0.11253">
        <ele>1582</ele>
        <time>2022-01-26T08:56:37.309Z</time>
      </trkpt>
      <trkpt lat="42.90729" lon="0.11258">
        <ele>1582</ele>
        <time>2022-01-26T08:56:42.305Z</time>
      </trkpt>
      <trkpt lat="42.9073" lon="0.11264">
        <ele>1582</ele>
        <time>2022-01-26T08:56:47.308Z</time>
      </trkpt>
      <trkpt lat="42.9073" lon="0.11269">
        <ele>1583</ele>
        <time>2022-01-26T08:56:51.311Z</time>
      </trkpt>
      <trkpt lat="42.90731" lon="0.11274">
        <ele>1583</ele>
        <time>2022-01-26T08:56:56.305Z</time>
      </trkpt>
      <trkpt lat="42.9073" lon="0.11278">
        <ele>1583</ele>
        <time>2022-01-26T08:57:01.304Z</time>
      </trkpt>
      <trkpt lat="42.9073" lon="0.11283">
        <ele>1583</ele>
        <time>2022-01-26T08:57:06.313Z</time>
      </trkpt>
      <trkpt lat="42.90729" lon="0.11289">
        <ele>1583</ele>
        <time>2022-01-26T08:57:11.305Z</time>
      </trkpt>
      <trkpt lat="42.90729" lon="0.11295">
        <ele>1587</ele>
        <time>2022-01-26T08:57:16.308Z</time>
      </trkpt>
      <trkpt lat="42.90728" lon="0.11302">
        <ele>1587</ele>
        <time>2022-01-26T08:57:21.310Z</time>
      </trkpt>
      <trkpt lat="42.90728" lon="0.11307">
        <ele>1587</ele>
        <time>2022-01-26T08:57:26.306Z</time>
      </trkpt>
      <trkpt lat="42.90729" lon="0.11312">
        <ele>1587</ele>
        <time>2022-01-26T08:57:31.307Z</time>
      </trkpt>
      <trkpt lat="42.90729" lon="0.11317">
        <ele>1587</ele>
        <time>2022-01-26T08:57:36.303Z</time>
      </trkpt>
      <trkpt lat="42.90729" lon="0.11322">
        <ele>1597</ele>
        <time>2022-01-26T08:57:41.305Z</time>
      </trkpt>
      <trkpt lat="42.90728" lon="0.11327">
        <ele>1597</ele>
        <time>2022-01-26T08:57:46.303Z</time>
      </trkpt>
      <trkpt lat="42.90729" lon="0.11333">
        <ele>1597</ele>
        <time>2022-01-26T08:57:51.303Z</time>
      </trkpt>
      <trkpt lat="42.90728" lon="0.11339">
        <ele>1597</ele>
        <time>2022-01-26T08:57:56.305Z</time>
      </trkpt>
      <trkpt lat="42.90727" lon="0.11344">
        <ele>1597</ele>
        <time>2022-01-26T08:58:01.309Z</time>
      </trkpt>
      <trkpt lat="42.90729" lon="0.11349">
        <ele>1599</ele>
        <time>2022-01-26T08:58:06.334Z</time>
      </trkpt>
      <trkpt lat="42.90729" lon="0.11354">
        <ele>1599</ele>
        <time>2022-01-26T08:58:11.306Z</time>
      </trkpt>
      <trkpt lat="42.9073" lon="0.11359">
        <ele>1599</ele>
        <time>2022-01-26T08:58:16.305Z</time>
      </trkpt>
      <trkpt lat="42.90731" lon="0.11365">
        <ele>1599</ele>
        <time>2022-01-26T08:58:21.309Z</time>
      </trkpt>
      <trkpt lat="42.90733" lon="0.1137">
        <ele>1599</ele>
        <time>2022-01-26T08:58:26.307Z</time>
      </trkpt>
      <trkpt lat="42.90734" lon="0.11375">
        <ele>1599</ele>
        <time>2022-01-26T08:58:30.305Z</time>
      </trkpt>
      <trkpt lat="42.90735" lon="0.11382">
        <ele>1599</ele>
        <time>2022-01-26T08:58:35.305Z</time>
      </trkpt>
      <trkpt lat="42.90735" lon="0.11388">
        <ele>1599</ele>
        <time>2022-01-26T08:58:40.307Z</time>
      </trkpt>
      <trkpt lat="42.90736" lon="0.11393">
        <ele>1599</ele>
        <time>2022-01-26T08:58:45.308Z</time>
      </trkpt>
      <trkpt lat="42.90737" lon="0.11398">
        <ele>1607</ele>
        <time>2022-01-26T08:58:50.305Z</time>
      </trkpt>
      <trkpt lat="42.90737" lon="0.11402">
        <ele>1607</ele>
        <time>2022-01-26T08:58:54.334Z</time>
      </trkpt>
      <trkpt lat="42.90737" lon="0.11406">
        <ele>1609</ele>
        <time>2022-01-26T08:58:59.309Z</time>
      </trkpt>
      <trkpt lat="42.90737" lon="0.1141">
        <ele>1609</ele>
        <time>2022-01-26T08:59:04.303Z</time>
      </trkpt>
      <trkpt lat="42.90737" lon="0.11416">
        <ele>1609</ele>
        <time>2022-01-26T08:59:09.303Z</time>
      </trkpt>
      <trkpt lat="42.90739" lon="0.11419">
        <ele>1609</ele>
        <time>2022-01-26T08:59:14.307Z</time>
      </trkpt>
      <trkpt lat="42.9074" lon="0.11424">
        <ele>1609</ele>
        <time>2022-01-26T08:59:19.311Z</time>
      </trkpt>
      <trkpt lat="42.9074" lon="0.11428">
        <ele>1609</ele>
        <time>2022-01-26T08:59:24.305Z</time>
      </trkpt>
      <trkpt lat="42.9074" lon="0.11435">
        <ele>1607</ele>
        <time>2022-01-26T08:59:29.308Z</time>
      </trkpt>
      <trkpt lat="42.90739" lon="0.11441">
        <ele>1607</ele>
        <time>2022-01-26T08:59:34.306Z</time>
      </trkpt>
      <trkpt lat="42.9074" lon="0.11448">
        <ele>1607</ele>
        <time>2022-01-26T08:59:39.304Z</time>
      </trkpt>
      <trkpt lat="42.90741" lon="0.11454">
        <ele>1607</ele>
        <time>2022-01-26T08:59:44.305Z</time>
      </trkpt>
      <trkpt lat="42.90742" lon="0.1146">
        <ele>1609</ele>
        <time>2022-01-26T08:59:49.312Z</time>
      </trkpt>
      <trkpt lat="42.90741" lon="0.11465">
        <ele>1609</ele>
        <time>2022-01-26T08:59:54.305Z</time>
      </trkpt>
      <trkpt lat="42.90742" lon="0.1147">
        <ele>1609</ele>
        <time>2022-01-26T08:59:59.308Z</time>
      </trkpt>
      <trkpt lat="42.90743" lon="0.11474">
        <ele>1609</ele>
        <time>2022-01-26T09:00:03.303Z</time>
      </trkpt>
      <trkpt lat="42.90744" lon="0.11478">
        <ele>1609</ele>
        <time>2022-01-26T09:00:08.306Z</time>
      </trkpt>
      <trkpt lat="42.90746" lon="0.11485">
        <ele>1609</ele>
        <time>2022-01-26T09:00:13.304Z</time>
      </trkpt>
      <trkpt lat="42.90746" lon="0.11486">
        <ele>1612</ele>
        <time>2022-01-26T09:00:17.308Z</time>
      </trkpt>
      <trkpt lat="42.90746" lon="0.11495">
        <ele>1612</ele>
        <time>2022-01-26T09:00:22.308Z</time>
      </trkpt>
      <trkpt lat="42.90748" lon="0.11501">
        <ele>1612</ele>
        <time>2022-01-26T09:00:27.306Z</time>
      </trkpt>
      <trkpt lat="42.9075" lon="0.11503">
        <ele>1612</ele>
        <time>2022-01-26T09:00:32.330Z</time>
      </trkpt>
      <trkpt lat="42.9075" lon="0.11506">
        <ele>1612</ele>
        <time>2022-01-26T09:00:37.306Z</time>
      </trkpt>
      <trkpt lat="42.90752" lon="0.1151">
        <ele>1612</ele>
        <time>2022-01-26T09:00:42.306Z</time>
      </trkpt>
      <trkpt lat="42.90753" lon="0.11512">
        <ele>1612</ele>
        <time>2022-01-26T09:00:47.306Z</time>
      </trkpt>
      <trkpt lat="42.90755" lon="0.11514">
        <ele>1612</ele>
        <time>2022-01-26T09:00:52.306Z</time>
      </trkpt>
      <trkpt lat="42.90757" lon="0.11517">
        <ele>1619</ele>
        <time>2022-01-26T09:00:57.305Z</time>
      </trkpt>
      <trkpt lat="42.90759" lon="0.11521">
        <ele>1619</ele>
        <time>2022-01-26T09:01:01.306Z</time>
      </trkpt>
      <trkpt lat="42.90762" lon="0.11525">
        <ele>1619</ele>
        <time>2022-01-26T09:01:06.308Z</time>
      </trkpt>
      <trkpt lat="42.90765" lon="0.11528">
        <ele>1621</ele>
        <time>2022-01-26T09:01:11.304Z</time>
      </trkpt>
      <trkpt lat="42.90767" lon="0.1153">
        <ele>1621</ele>
        <time>2022-01-26T09:01:16.306Z</time>
      </trkpt>
      <trkpt lat="42.9077" lon="0.11533">
        <ele>1621</ele>
        <time>2022-01-26T09:01:21.307Z</time>
      </trkpt>
      <trkpt lat="42.90772" lon="0.11538">
        <ele>1621</ele>
        <time>2022-01-26T09:01:26.306Z</time>
      </trkpt>
      <trkpt lat="42.90775" lon="0.11538">
        <ele>1621</ele>
        <time>2022-01-26T09:01:31.331Z</time>
      </trkpt>
      <trkpt lat="42.90777" lon="0.11539">
        <ele>1621</ele>
        <time>2022-01-26T09:01:36.307Z</time>
      </trkpt>
      <trkpt lat="42.9078" lon="0.11542">
        <ele>1625</ele>
        <time>2022-01-26T09:01:41.307Z</time>
      </trkpt>
      <trkpt lat="42.90788" lon="0.11549">
        <ele>1625</ele>
        <time>2022-01-26T09:02:09.311Z</time>
      </trkpt>
      <trkpt lat="42.90791" lon="0.11549">
        <ele>1625</ele>
        <time>2022-01-26T09:02:14.308Z</time>
      </trkpt>
      <trkpt lat="42.90797" lon="0.1155">
        <ele>1630</ele>
        <time>2022-01-26T09:02:19.307Z</time>
      </trkpt>
      <trkpt lat="42.90801" lon="0.11548">
        <ele>1630</ele>
        <time>2022-01-26T09:02:23.304Z</time>
      </trkpt>
      <trkpt lat="42.90805" lon="0.11549">
        <ele>1630</ele>
        <time>2022-01-26T09:02:28.305Z</time>
      </trkpt>
      <trkpt lat="42.90817" lon="0.11553">
        <ele>1630</ele>
        <time>2022-01-26T09:06:46.305Z</time>
      </trkpt>
      <trkpt lat="42.90817" lon="0.11553">
        <ele>1630</ele>
        <time>2022-01-26T09:06:51.305Z</time>
      </trkpt>
      <trkpt lat="42.90817" lon="0.11553">
        <ele>1630</ele>
        <time>2022-01-26T09:06:55.331Z</time>
      </trkpt>
      <trkpt lat="42.9082" lon="0.11554">
        <ele>1633</ele>
        <time>2022-01-26T09:07:00.306Z</time>
      </trkpt>
      <trkpt lat="42.90823" lon="0.11554">
        <ele>1633</ele>
        <time>2022-01-26T09:07:05.312Z</time>
      </trkpt>
      <trkpt lat="42.90825" lon="0.11556">
        <ele>1633</ele>
        <time>2022-01-26T09:07:10.309Z</time>
      </trkpt>
      <trkpt lat="42.90828" lon="0.11557">
        <ele>1633</ele>
        <time>2022-01-26T09:07:15.306Z</time>
      </trkpt>
      <trkpt lat="42.9083" lon="0.11559">
        <ele>1633</ele>
        <time>2022-01-26T09:07:20.308Z</time>
      </trkpt>
      <trkpt lat="42.90832" lon="0.11562">
        <ele>1633</ele>
        <time>2022-01-26T09:07:25.331Z</time>
      </trkpt>
      <trkpt lat="42.90834" lon="0.11565">
        <ele>1633</ele>
        <time>2022-01-26T09:07:30.305Z</time>
      </trkpt>
      <trkpt lat="42.90836" lon="0.11566">
        <ele>1633</ele>
        <time>2022-01-26T09:07:35.307Z</time>
      </trkpt>
      <trkpt lat="42.90839" lon="0.11569">
        <ele>1633</ele>
        <time>2022-01-26T09:07:40.306Z</time>
      </trkpt>
      <trkpt lat="42.9084" lon="0.11571">
        <ele>1636</ele>
        <time>2022-01-26T09:07:45.305Z</time>
      </trkpt>
      <trkpt lat="42.90843" lon="0.11572">
        <ele>1636</ele>
        <time>2022-01-26T09:07:50.307Z</time>
      </trkpt>
      <trkpt lat="42.90845" lon="0.11574">
        <ele>1636</ele>
        <time>2022-01-26T09:07:55.311Z</time>
      </trkpt>
      <trkpt lat="42.90848" lon="0.11579">
        <ele>1641</ele>
        <time>2022-01-26T09:08:00.333Z</time>
      </trkpt>
      <trkpt lat="42.9085" lon="0.11581">
        <ele>1641</ele>
        <time>2022-01-26T09:08:05.307Z</time>
      </trkpt>
      <trkpt lat="42.90853" lon="0.11581">
        <ele>1641</ele>
        <time>2022-01-26T09:08:10.306Z</time>
      </trkpt>
      <trkpt lat="42.90856" lon="0.11581">
        <ele>1641</ele>
        <time>2022-01-26T09:08:15.307Z</time>
      </trkpt>
      <trkpt lat="42.90858" lon="0.11581">
        <ele>1641</ele>
        <time>2022-01-26T09:08:20.305Z</time>
      </trkpt>
      <trkpt lat="42.90861" lon="0.11586">
        <ele>1641</ele>
        <time>2022-01-26T09:08:29.310Z</time>
      </trkpt>
      <trkpt lat="42.90863" lon="0.11587">
        <ele>1641</ele>
        <time>2022-01-26T09:08:34.304Z</time>
      </trkpt>
      <trkpt lat="42.90864" lon="0.11589">
        <ele>1641</ele>
        <time>2022-01-26T09:08:39.306Z</time>
      </trkpt>
      <trkpt lat="42.90866" lon="0.1159">
        <ele>1641</ele>
        <time>2022-01-26T09:08:44.305Z</time>
      </trkpt>
      <trkpt lat="42.90868" lon="0.1159">
        <ele>1641</ele>
        <time>2022-01-26T09:08:49.308Z</time>
      </trkpt>
      <trkpt lat="42.90873" lon="0.11593">
        <ele>1641</ele>
        <time>2022-01-26T09:08:58.307Z</time>
      </trkpt>
      <trkpt lat="42.90873" lon="0.11595">
        <ele>1641</ele>
        <time>2022-01-26T09:09:03.305Z</time>
      </trkpt>
      <trkpt lat="42.90874" lon="0.11598">
        <ele>1644</ele>
        <time>2022-01-26T09:09:08.310Z</time>
      </trkpt>
      <trkpt lat="42.90875" lon="0.11602">
        <ele>1644</ele>
        <time>2022-01-26T09:09:13.309Z</time>
      </trkpt>
      <trkpt lat="42.90877" lon="0.11602">
        <ele>1655</ele>
        <time>2022-01-26T09:09:17.304Z</time>
      </trkpt>
      <trkpt lat="42.9088" lon="0.11602">
        <ele>1655</ele>
        <time>2022-01-26T09:09:22.307Z</time>
      </trkpt>
      <trkpt lat="42.90883" lon="0.11603">
        <ele>1655</ele>
        <time>2022-01-26T09:09:27.308Z</time>
      </trkpt>
      <trkpt lat="42.90885" lon="0.11604">
        <ele>1655</ele>
        <time>2022-01-26T09:09:32.306Z</time>
      </trkpt>
      <trkpt lat="42.90888" lon="0.11605">
        <ele>1655</ele>
        <time>2022-01-26T09:09:37.312Z</time>
      </trkpt>
      <trkpt lat="42.9089" lon="0.11606">
        <ele>1655</ele>
        <time>2022-01-26T09:09:42.304Z</time>
      </trkpt>
      <trkpt lat="42.90894" lon="0.11611">
        <ele>1655</ele>
        <time>2022-01-26T09:09:52.305Z</time>
      </trkpt>
      <trkpt lat="42.90896" lon="0.11611">
        <ele>1655</ele>
        <time>2022-01-26T09:09:57.306Z</time>
      </trkpt>
      <trkpt lat="42.90898" lon="0.11613">
        <ele>1655</ele>
        <time>2022-01-26T09:10:02.307Z</time>
      </trkpt>
      <trkpt lat="42.90899" lon="0.11613">
        <ele>1655</ele>
        <time>2022-01-26T09:10:07.308Z</time>
      </trkpt>
      <trkpt lat="42.909" lon="0.11615">
        <ele>1655</ele>
        <time>2022-01-26T09:10:12.307Z</time>
      </trkpt>
      <trkpt lat="42.90901" lon="0.11617">
        <ele>1655</ele>
        <time>2022-01-26T09:10:21.328Z</time>
      </trkpt>
      <trkpt lat="42.90904" lon="0.11618">
        <ele>1665</ele>
        <time>2022-01-26T09:10:26.305Z</time>
      </trkpt>
      <trkpt lat="42.90905" lon="0.1162">
        <ele>1665</ele>
        <time>2022-01-26T09:10:31.306Z</time>
      </trkpt>
      <trkpt lat="42.90906" lon="0.11622">
        <ele>1665</ele>
        <time>2022-01-26T09:10:36.307Z</time>
      </trkpt>
      <trkpt lat="42.90907" lon="0.11624">
        <ele>1665</ele>
        <time>2022-01-26T09:10:41.310Z</time>
      </trkpt>
      <trkpt lat="42.90914" lon="0.11631">
        <ele>1669</ele>
        <time>2022-01-26T09:11:01.305Z</time>
      </trkpt>
      <trkpt lat="42.90914" lon="0.11633">
        <ele>1669</ele>
        <time>2022-01-26T09:11:06.305Z</time>
      </trkpt>
      <trkpt lat="42.90915" lon="0.11635">
        <ele>1669</ele>
        <time>2022-01-26T09:11:10.308Z</time>
      </trkpt>
      <trkpt lat="42.90915" lon="0.11639">
        <ele>1669</ele>
        <time>2022-01-26T09:11:15.312Z</time>
      </trkpt>
      <trkpt lat="42.90917" lon="0.11641">
        <ele>1669</ele>
        <time>2022-01-26T09:11:20.305Z</time>
      </trkpt>
      <trkpt lat="42.9092" lon="0.11645">
        <ele>1669</ele>
        <time>2022-01-26T09:11:30.309Z</time>
      </trkpt>
      <trkpt lat="42.90922" lon="0.11646">
        <ele>1669</ele>
        <time>2022-01-26T09:11:35.306Z</time>
      </trkpt>
      <trkpt lat="42.90922" lon="0.11647">
        <ele>1669</ele>
        <time>2022-01-26T09:11:40.334Z</time>
      </trkpt>
      <trkpt lat="42.90925" lon="0.11649">
        <ele>1669</ele>
        <time>2022-01-26T09:11:45.306Z</time>
      </trkpt>
      <trkpt lat="42.90926" lon="0.11651">
        <ele>1669</ele>
        <time>2022-01-26T09:11:50.306Z</time>
      </trkpt>
      <trkpt lat="42.90927" lon="0.11659">
        <ele>1673</ele>
        <time>2022-01-26T09:12:19.305Z</time>
      </trkpt>
      <trkpt lat="42.90929" lon="0.1166">
        <ele>1673</ele>
        <time>2022-01-26T09:12:24.310Z</time>
      </trkpt>
      <trkpt lat="42.90931" lon="0.11662">
        <ele>1682</ele>
        <time>2022-01-26T09:12:29.310Z</time>
      </trkpt>
      <trkpt lat="42.90934" lon="0.11663">
        <ele>1682</ele>
        <time>2022-01-26T09:12:33.333Z</time>
      </trkpt>
      <trkpt lat="42.90936" lon="0.11664">
        <ele>1682</ele>
        <time>2022-01-26T09:12:38.311Z</time>
      </trkpt>
      <trkpt lat="42.90939" lon="0.11665">
        <ele>1682</ele>
        <time>2022-01-26T09:12:43.308Z</time>
      </trkpt>
      <trkpt lat="42.90941" lon="0.11666">
        <ele>1682</ele>
        <time>2022-01-26T09:12:48.301Z</time>
      </trkpt>
      <trkpt lat="42.90944" lon="0.11667">
        <ele>1682</ele>
        <time>2022-01-26T09:12:53.304Z</time>
      </trkpt>
      <trkpt lat="42.90945" lon="0.1167">
        <ele>1682</ele>
        <time>2022-01-26T09:12:58.315Z</time>
      </trkpt>
      <trkpt lat="42.90946" lon="0.11674">
        <ele>1682</ele>
        <time>2022-01-26T09:13:03.307Z</time>
      </trkpt>
      <trkpt lat="42.90948" lon="0.11678">
        <ele>1682</ele>
        <time>2022-01-26T09:13:08.302Z</time>
      </trkpt>
      <trkpt lat="42.90949" lon="0.11681">
        <ele>1683</ele>
        <time>2022-01-26T09:13:13.305Z</time>
      </trkpt>
      <trkpt lat="42.90949" lon="0.11685">
        <ele>1683</ele>
        <time>2022-01-26T09:13:18.307Z</time>
      </trkpt>
      <trkpt lat="42.9095" lon="0.11688">
        <ele>1683</ele>
        <time>2022-01-26T09:13:23.305Z</time>
      </trkpt>
      <trkpt lat="42.90952" lon="0.11689">
        <ele>1683</ele>
        <time>2022-01-26T09:13:28.302Z</time>
      </trkpt>
      <trkpt lat="42.90958" lon="0.11691">
        <ele>1683</ele>
        <time>2022-01-26T09:13:38.303Z</time>
      </trkpt>
      <trkpt lat="42.9096" lon="0.11693">
        <ele>1690</ele>
        <time>2022-01-26T09:13:42.332Z</time>
      </trkpt>
      <trkpt lat="42.90961" lon="0.11695">
        <ele>1690</ele>
        <time>2022-01-26T09:13:47.307Z</time>
      </trkpt>
      <trkpt lat="42.90962" lon="0.11698">
        <ele>1690</ele>
        <time>2022-01-26T09:13:52.306Z</time>
      </trkpt>
      <trkpt lat="42.90965" lon="0.11697">
        <ele>1690</ele>
        <time>2022-01-26T09:13:57.308Z</time>
      </trkpt>
      <trkpt lat="42.90966" lon="0.11711">
        <ele>1691</ele>
        <time>2022-01-26T09:14:27.305Z</time>
      </trkpt>
      <trkpt lat="42.90966" lon="0.11713">
        <ele>1691</ele>
        <time>2022-01-26T09:14:32.309Z</time>
      </trkpt>
      <trkpt lat="42.90969" lon="0.11715">
        <ele>1691</ele>
        <time>2022-01-26T09:14:37.307Z</time>
      </trkpt>
      <trkpt lat="42.9097" lon="0.11716">
        <ele>1691</ele>
        <time>2022-01-26T09:14:41.307Z</time>
      </trkpt>
      <trkpt lat="42.90971" lon="0.11719">
        <ele>1691</ele>
        <time>2022-01-26T09:14:46.308Z</time>
      </trkpt>
      <trkpt lat="42.90976" lon="0.11727">
        <ele>1691</ele>
        <time>2022-01-26T09:15:00.305Z</time>
      </trkpt>
      <trkpt lat="42.90977" lon="0.11728">
        <ele>1691</ele>
        <time>2022-01-26T09:15:04.334Z</time>
      </trkpt>
      <trkpt lat="42.90977" lon="0.11729">
        <ele>1691</ele>
        <time>2022-01-26T09:15:09.305Z</time>
      </trkpt>
      <trkpt lat="42.90977" lon="0.11731">
        <ele>1691</ele>
        <time>2022-01-26T09:15:14.303Z</time>
      </trkpt>
      <trkpt lat="42.90978" lon="0.11733">
        <ele>1691</ele>
        <time>2022-01-26T09:15:18.317Z</time>
      </trkpt>
      <trkpt lat="42.90979" lon="0.11735">
        <ele>1691</ele>
        <time>2022-01-26T09:15:22.334Z</time>
      </trkpt>
      <trkpt lat="42.90981" lon="0.11738">
        <ele>1694</ele>
        <time>2022-01-26T09:15:27.308Z</time>
      </trkpt>
      <trkpt lat="42.90983" lon="0.11742">
        <ele>1694</ele>
        <time>2022-01-26T09:15:32.303Z</time>
      </trkpt>
      <trkpt lat="42.90985" lon="0.11745">
        <ele>1694</ele>
        <time>2022-01-26T09:15:37.308Z</time>
      </trkpt>
      <trkpt lat="42.90988" lon="0.11752">
        <ele>1700</ele>
        <time>2022-01-26T09:15:46.303Z</time>
      </trkpt>
      <trkpt lat="42.9099" lon="0.11754">
        <ele>1700</ele>
        <time>2022-01-26T09:15:51.311Z</time>
      </trkpt>
      <trkpt lat="42.90991" lon="0.11757">
        <ele>1700</ele>
        <time>2022-01-26T09:15:56.304Z</time>
      </trkpt>
      <trkpt lat="42.90992" lon="0.11758">
        <ele>1700</ele>
        <time>2022-01-26T09:16:01.304Z</time>
      </trkpt>
      <trkpt lat="42.90994" lon="0.11761">
        <ele>1700</ele>
        <time>2022-01-26T09:16:06.306Z</time>
      </trkpt>
      <trkpt lat="42.90996" lon="0.11763">
        <ele>1700</ele>
        <time>2022-01-26T09:16:10.306Z</time>
      </trkpt>
      <trkpt lat="42.90999" lon="0.11766">
        <ele>1705</ele>
        <time>2022-01-26T09:16:15.307Z</time>
      </trkpt>
      <trkpt lat="42.91001" lon="0.11768">
        <ele>1705</ele>
        <time>2022-01-26T09:16:20.303Z</time>
      </trkpt>
      <trkpt lat="42.91" lon="0.1177">
        <ele>1705</ele>
        <time>2022-01-26T09:16:25.307Z</time>
      </trkpt>
      <trkpt lat="42.91003" lon="0.11774">
        <ele>1705</ele>
        <time>2022-01-26T09:16:30.309Z</time>
      </trkpt>
      <trkpt lat="42.91005" lon="0.11775">
        <ele>1705</ele>
        <time>2022-01-26T09:16:44.309Z</time>
      </trkpt>
      <trkpt lat="42.91005" lon="0.11775">
        <ele>1705</ele>
        <time>2022-01-26T09:16:49.312Z</time>
      </trkpt>
      <trkpt lat="42.91008" lon="0.11776">
        <ele>1705</ele>
        <time>2022-01-26T09:16:54.303Z</time>
      </trkpt>
      <trkpt lat="42.91011" lon="0.11776">
        <ele>1705</ele>
        <time>2022-01-26T09:16:59.306Z</time>
      </trkpt>
      <trkpt lat="42.91014" lon="0.11776">
        <ele>1705</ele>
        <time>2022-01-26T09:17:04.308Z</time>
      </trkpt>
      <trkpt lat="42.91016" lon="0.11775">
        <ele>1714</ele>
        <time>2022-01-26T09:17:08.306Z</time>
      </trkpt>
      <trkpt lat="42.9102" lon="0.11775">
        <ele>1714</ele>
        <time>2022-01-26T09:17:13.307Z</time>
      </trkpt>
      <trkpt lat="42.91022" lon="0.11777">
        <ele>1714</ele>
        <time>2022-01-26T09:17:18.307Z</time>
      </trkpt>
      <trkpt lat="42.91024" lon="0.11779">
        <ele>1714</ele>
        <time>2022-01-26T09:17:23.302Z</time>
      </trkpt>
      <trkpt lat="42.91025" lon="0.11781">
        <ele>1714</ele>
        <time>2022-01-26T09:17:28.302Z</time>
      </trkpt>
      <trkpt lat="42.91029" lon="0.11784">
        <ele>1714</ele>
        <time>2022-01-26T09:17:37.304Z</time>
      </trkpt>
      <trkpt lat="42.9103" lon="0.11788">
        <ele>1714</ele>
        <time>2022-01-26T09:17:42.304Z</time>
      </trkpt>
      <trkpt lat="42.91031" lon="0.11789">
        <ele>1714</ele>
        <time>2022-01-26T09:17:47.305Z</time>
      </trkpt>
      <trkpt lat="42.91033" lon="0.11792">
        <ele>1714</ele>
        <time>2022-01-26T09:17:52.301Z</time>
      </trkpt>
      <trkpt lat="42.91034" lon="0.11796">
        <ele>1718</ele>
        <time>2022-01-26T09:17:57.307Z</time>
      </trkpt>
      <trkpt lat="42.91035" lon="0.118">
        <ele>1718</ele>
        <time>2022-01-26T09:18:02.304Z</time>
      </trkpt>
      <trkpt lat="42.91037" lon="0.11803">
        <ele>1718</ele>
        <time>2022-01-26T09:18:07.306Z</time>
      </trkpt>
      <trkpt lat="42.91038" lon="0.11805">
        <ele>1718</ele>
        <time>2022-01-26T09:18:11.308Z</time>
      </trkpt>
      <trkpt lat="42.91039" lon="0.11807">
        <ele>1718</ele>
        <time>2022-01-26T09:18:16.306Z</time>
      </trkpt>
      <trkpt lat="42.91041" lon="0.11809">
        <ele>1718</ele>
        <time>2022-01-26T09:18:21.309Z</time>
      </trkpt>
      <trkpt lat="42.91046" lon="0.1181">
        <ele>1722</ele>
        <time>2022-01-26T09:22:54.316Z</time>
      </trkpt>
      <trkpt lat="42.91047" lon="0.11814">
        <ele>1722</ele>
        <time>2022-01-26T09:22:59.307Z</time>
      </trkpt>
      <trkpt lat="42.91049" lon="0.11816">
        <ele>1722</ele>
        <time>2022-01-26T09:23:04.306Z</time>
      </trkpt>
      <trkpt lat="42.91052" lon="0.11817">
        <ele>1722</ele>
        <time>2022-01-26T09:23:08.307Z</time>
      </trkpt>
      <trkpt lat="42.91054" lon="0.11818">
        <ele>1722</ele>
        <time>2022-01-26T09:23:13.305Z</time>
      </trkpt>
      <trkpt lat="42.91056" lon="0.11821">
        <ele>1723</ele>
        <time>2022-01-26T09:23:22.305Z</time>
      </trkpt>
      <trkpt lat="42.91058" lon="0.11823">
        <ele>1723</ele>
        <time>2022-01-26T09:23:27.310Z</time>
      </trkpt>
      <trkpt lat="42.9106" lon="0.11824">
        <ele>1723</ele>
        <time>2022-01-26T09:23:32.307Z</time>
      </trkpt>
      <trkpt lat="42.91062" lon="0.11826">
        <ele>1723</ele>
        <time>2022-01-26T09:23:37.306Z</time>
      </trkpt>
      <trkpt lat="42.91065" lon="0.11828">
        <ele>1723</ele>
        <time>2022-01-26T09:23:42.307Z</time>
      </trkpt>
      <trkpt lat="42.91068" lon="0.1183">
        <ele>1723</ele>
        <time>2022-01-26T09:23:47.306Z</time>
      </trkpt>
      <trkpt lat="42.9107" lon="0.11833">
        <ele>1725</ele>
        <time>2022-01-26T09:23:52.308Z</time>
      </trkpt>
      <trkpt lat="42.9107" lon="0.11835">
        <ele>1725</ele>
        <time>2022-01-26T09:23:56.303Z</time>
      </trkpt>
      <trkpt lat="42.91071" lon="0.11837">
        <ele>1725</ele>
        <time>2022-01-26T09:24:01.307Z</time>
      </trkpt>
      <trkpt lat="42.91073" lon="0.1184">
        <ele>1725</ele>
        <time>2022-01-26T09:24:06.307Z</time>
      </trkpt>
      <trkpt lat="42.91075" lon="0.11843">
        <ele>1725</ele>
        <time>2022-01-26T09:24:11.305Z</time>
      </trkpt>
      <trkpt lat="42.91077" lon="0.11844">
        <ele>1725</ele>
        <time>2022-01-26T09:24:16.305Z</time>
      </trkpt>
      <trkpt lat="42.91079" lon="0.11845">
        <ele>1725</ele>
        <time>2022-01-26T09:24:20.330Z</time>
      </trkpt>
      <trkpt lat="42.91082" lon="0.11847">
        <ele>1725</ele>
        <time>2022-01-26T09:24:25.306Z</time>
      </trkpt>
      <trkpt lat="42.91084" lon="0.11849">
        <ele>1726</ele>
        <time>2022-01-26T09:24:30.313Z</time>
      </trkpt>
      <trkpt lat="42.91089" lon="0.1186">
        <ele>1726</ele>
        <time>2022-01-26T09:25:09.304Z</time>
      </trkpt>
      <trkpt lat="42.9109" lon="0.1186">
        <ele>1726</ele>
        <time>2022-01-26T09:25:14.328Z</time>
      </trkpt>
      <trkpt lat="42.91091" lon="0.11859">
        <ele>1726</ele>
        <time>2022-01-26T09:25:19.307Z</time>
      </trkpt>
      <trkpt lat="42.91094" lon="0.11857">
        <ele>1726</ele>
        <time>2022-01-26T09:25:24.307Z</time>
      </trkpt>
      <trkpt lat="42.91096" lon="0.11854">
        <ele>1726</ele>
        <time>2022-01-26T09:25:29.307Z</time>
      </trkpt>
      <trkpt lat="42.91096" lon="0.1185">
        <ele>1726</ele>
        <time>2022-01-26T09:25:34.309Z</time>
      </trkpt>
      <trkpt lat="42.91096" lon="0.11845">
        <ele>1725</ele>
        <time>2022-01-26T09:25:39.304Z</time>
      </trkpt>
      <trkpt lat="42.91097" lon="0.1184">
        <ele>1725</ele>
        <time>2022-01-26T09:25:44.314Z</time>
      </trkpt>
      <trkpt lat="42.91097" lon="0.11836">
        <ele>1740</ele>
        <time>2022-01-26T09:25:49.310Z</time>
      </trkpt>
      <trkpt lat="42.91099" lon="0.11835">
        <ele>1740</ele>
        <time>2022-01-26T09:25:54.305Z</time>
      </trkpt>
      <trkpt lat="42.91101" lon="0.11838">
        <ele>1740</ele>
        <time>2022-01-26T09:25:59.308Z</time>
      </trkpt>
      <trkpt lat="42.91103" lon="0.11842">
        <ele>1740</ele>
        <time>2022-01-26T09:26:04.306Z</time>
      </trkpt>
      <trkpt lat="42.91104" lon="0.11846">
        <ele>1740</ele>
        <time>2022-01-26T09:26:09.310Z</time>
      </trkpt>
      <trkpt lat="42.91106" lon="0.11849">
        <ele>1739</ele>
        <time>2022-01-26T09:26:14.307Z</time>
      </trkpt>
      <trkpt lat="42.91107" lon="0.11851">
        <ele>1739</ele>
        <time>2022-01-26T09:26:19.307Z</time>
      </trkpt>
      <trkpt lat="42.91108" lon="0.11852">
        <ele>1739</ele>
        <time>2022-01-26T09:26:23.305Z</time>
      </trkpt>
      <trkpt lat="42.9111" lon="0.11855">
        <ele>1739</ele>
        <time>2022-01-26T09:26:28.309Z</time>
      </trkpt>
      <trkpt lat="42.91113" lon="0.11858">
        <ele>1739</ele>
        <time>2022-01-26T09:26:33.307Z</time>
      </trkpt>
      <trkpt lat="42.91115" lon="0.1186">
        <ele>1739</ele>
        <time>2022-01-26T09:26:37.327Z</time>
      </trkpt>
      <trkpt lat="42.91117" lon="0.11863">
        <ele>1739</ele>
        <time>2022-01-26T09:26:42.304Z</time>
      </trkpt>
      <trkpt lat="42.91118" lon="0.11867">
        <ele>1739</ele>
        <time>2022-01-26T09:26:47.302Z</time>
      </trkpt>
      <trkpt lat="42.9112" lon="0.1187">
        <ele>1739</ele>
        <time>2022-01-26T09:26:52.305Z</time>
      </trkpt>
      <trkpt lat="42.91122" lon="0.11873">
        <ele>1739</ele>
        <time>2022-01-26T09:26:57.305Z</time>
      </trkpt>
      <trkpt lat="42.91127" lon="0.11876">
        <ele>1747</ele>
        <time>2022-01-26T09:27:22.308Z</time>
      </trkpt>
      <trkpt lat="42.91129" lon="0.11871">
        <ele>1754</ele>
        <time>2022-01-26T09:27:27.309Z</time>
      </trkpt>
      <trkpt lat="42.91129" lon="0.11869">
        <ele>1754</ele>
        <time>2022-01-26T09:27:31.306Z</time>
      </trkpt>
      <trkpt lat="42.91129" lon="0.11866">
        <ele>1754</ele>
        <time>2022-01-26T09:27:36.311Z</time>
      </trkpt>
      <trkpt lat="42.91129" lon="0.11864">
        <ele>1754</ele>
        <time>2022-01-26T09:27:41.305Z</time>
      </trkpt>
      <trkpt lat="42.9113" lon="0.11854">
        <ele>1754</ele>
        <time>2022-01-26T09:28:06.308Z</time>
      </trkpt>
      <trkpt lat="42.91133" lon="0.11856">
        <ele>1754</ele>
        <time>2022-01-26T09:28:11.306Z</time>
      </trkpt>
      <trkpt lat="42.91135" lon="0.11857">
        <ele>1754</ele>
        <time>2022-01-26T09:28:16.306Z</time>
      </trkpt>
      <trkpt lat="42.91137" lon="0.11858">
        <ele>1754</ele>
        <time>2022-01-26T09:28:21.303Z</time>
      </trkpt>
      <trkpt lat="42.91138" lon="0.11859">
        <ele>1754</ele>
        <time>2022-01-26T09:28:25.306Z</time>
      </trkpt>
      <trkpt lat="42.91144" lon="0.11867">
        <ele>1754</ele>
        <time>2022-01-26T09:29:03.305Z</time>
      </trkpt>
      <trkpt lat="42.91144" lon="0.11867">
        <ele>1754</ele>
        <time>2022-01-26T09:29:08.307Z</time>
      </trkpt>
      <trkpt lat="42.91147" lon="0.11869">
        <ele>1754</ele>
        <time>2022-01-26T09:29:13.307Z</time>
      </trkpt>
      <trkpt lat="42.91148" lon="0.11871">
        <ele>1754</ele>
        <time>2022-01-26T09:29:17.329Z</time>
      </trkpt>
      <trkpt lat="42.91151" lon="0.11873">
        <ele>1754</ele>
        <time>2022-01-26T09:29:22.311Z</time>
      </trkpt>
      <trkpt lat="42.91155" lon="0.11878">
        <ele>1767</ele>
        <time>2022-01-26T09:29:32.305Z</time>
      </trkpt>
      <trkpt lat="42.91156" lon="0.11879">
        <ele>1767</ele>
        <time>2022-01-26T09:29:37.306Z</time>
      </trkpt>
      <trkpt lat="42.91157" lon="0.11881">
        <ele>1767</ele>
        <time>2022-01-26T09:29:42.307Z</time>
      </trkpt>
      <trkpt lat="42.91158" lon="0.11884">
        <ele>1767</ele>
        <time>2022-01-26T09:29:47.306Z</time>
      </trkpt>
      <trkpt lat="42.9116" lon="0.11886">
        <ele>1767</ele>
        <time>2022-01-26T09:29:52.305Z</time>
      </trkpt>
      <trkpt lat="42.91168" lon="0.11888">
        <ele>1767</ele>
        <time>2022-01-26T09:30:21.327Z</time>
      </trkpt>
      <trkpt lat="42.91169" lon="0.11887">
        <ele>1767</ele>
        <time>2022-01-26T09:30:26.309Z</time>
      </trkpt>
      <trkpt lat="42.91169" lon="0.11883">
        <ele>1767</ele>
        <time>2022-01-26T09:30:31.305Z</time>
      </trkpt>
      <trkpt lat="42.91169" lon="0.1188">
        <ele>1767</ele>
        <time>2022-01-26T09:30:36.306Z</time>
      </trkpt>
      <trkpt lat="42.9117" lon="0.11876">
        <ele>1767</ele>
        <time>2022-01-26T09:30:41.309Z</time>
      </trkpt>
      <trkpt lat="42.91174" lon="0.11866">
        <ele>1772</ele>
        <time>2022-01-26T09:31:21.309Z</time>
      </trkpt>
      <trkpt lat="42.91176" lon="0.11868">
        <ele>1772</ele>
        <time>2022-01-26T09:31:26.306Z</time>
      </trkpt>
      <trkpt lat="42.91177" lon="0.1187">
        <ele>1772</ele>
        <time>2022-01-26T09:31:30.307Z</time>
      </trkpt>
      <trkpt lat="42.91179" lon="0.11872">
        <ele>1772</ele>
        <time>2022-01-26T09:31:35.303Z</time>
      </trkpt>
      <trkpt lat="42.91181" lon="0.11875">
        <ele>1782</ele>
        <time>2022-01-26T09:31:40.304Z</time>
      </trkpt>
      <trkpt lat="42.91188" lon="0.11875">
        <ele>1773</ele>
        <time>2022-01-26T09:32:28.305Z</time>
      </trkpt>
      <trkpt lat="42.91188" lon="0.11873">
        <ele>1782</ele>
        <time>2022-01-26T09:32:32.311Z</time>
      </trkpt>
      <trkpt lat="42.91188" lon="0.11871">
        <ele>1782</ele>
        <time>2022-01-26T09:32:37.309Z</time>
      </trkpt>
      <trkpt lat="42.91187" lon="0.11868">
        <ele>1782</ele>
        <time>2022-01-26T09:32:42.306Z</time>
      </trkpt>
      <trkpt lat="42.91188" lon="0.11865">
        <ele>1782</ele>
        <time>2022-01-26T09:32:47.308Z</time>
      </trkpt>
      <trkpt lat="42.91191" lon="0.11859">
        <ele>1782</ele>
        <time>2022-01-26T09:33:11.309Z</time>
      </trkpt>
      <trkpt lat="42.91192" lon="0.11863">
        <ele>1782</ele>
        <time>2022-01-26T09:33:16.311Z</time>
      </trkpt>
      <trkpt lat="42.91194" lon="0.11866">
        <ele>1782</ele>
        <time>2022-01-26T09:33:21.307Z</time>
      </trkpt>
      <trkpt lat="42.91196" lon="0.11868">
        <ele>1782</ele>
        <time>2022-01-26T09:33:26.308Z</time>
      </trkpt>
      <trkpt lat="42.91197" lon="0.11869">
        <ele>1782</ele>
        <time>2022-01-26T09:33:30.303Z</time>
      </trkpt>
      <trkpt lat="42.91204" lon="0.11877">
        <ele>1773</ele>
        <time>2022-01-26T09:33:58.306Z</time>
      </trkpt>
      <trkpt lat="42.91204" lon="0.11877">
        <ele>1773</ele>
        <time>2022-01-26T09:34:03.306Z</time>
      </trkpt>
      <trkpt lat="42.91204" lon="0.11877">
        <ele>1773</ele>
        <time>2022-01-26T09:34:08.305Z</time>
      </trkpt>
      <trkpt lat="42.91204" lon="0.11877">
        <ele>1773</ele>
        <time>2022-01-26T09:34:13.304Z</time>
      </trkpt>
      <trkpt lat="42.91205" lon="0.11879">
        <ele>1773</ele>
        <time>2022-01-26T09:34:18.307Z</time>
      </trkpt>
      <trkpt lat="42.91206" lon="0.11882">
        <ele>1773</ele>
        <time>2022-01-26T09:34:22.327Z</time>
      </trkpt>
      <trkpt lat="42.91208" lon="0.11885">
        <ele>1773</ele>
        <time>2022-01-26T09:34:27.305Z</time>
      </trkpt>
      <trkpt lat="42.9121" lon="0.11887">
        <ele>1787</ele>
        <time>2022-01-26T09:34:32.307Z</time>
      </trkpt>
      <trkpt lat="42.91213" lon="0.1189">
        <ele>1787</ele>
        <time>2022-01-26T09:34:37.305Z</time>
      </trkpt>
      <trkpt lat="42.91215" lon="0.11893">
        <ele>1787</ele>
        <time>2022-01-26T09:34:42.306Z</time>
      </trkpt>
      <trkpt lat="42.91214" lon="0.11888">
        <ele>1787</ele>
        <time>2022-01-26T09:34:56.306Z</time>
      </trkpt>
      <trkpt lat="42.91213" lon="0.11885">
        <ele>1787</ele>
        <time>2022-01-26T09:35:01.306Z</time>
      </trkpt>
      <trkpt lat="42.91213" lon="0.11883">
        <ele>1787</ele>
        <time>2022-01-26T09:35:06.306Z</time>
      </trkpt>
      <trkpt lat="42.91212" lon="0.11881">
        <ele>1787</ele>
        <time>2022-01-26T09:35:10.307Z</time>
      </trkpt>
      <trkpt lat="42.91212" lon="0.11879">
        <ele>1787</ele>
        <time>2022-01-26T09:35:15.312Z</time>
      </trkpt>
      <trkpt lat="42.91212" lon="0.11873">
        <ele>1793</ele>
        <time>2022-01-26T09:35:25.307Z</time>
      </trkpt>
      <trkpt lat="42.91212" lon="0.1187">
        <ele>1793</ele>
        <time>2022-01-26T09:35:30.307Z</time>
      </trkpt>
      <trkpt lat="42.91212" lon="0.11867">
        <ele>1793</ele>
        <time>2022-01-26T09:35:34.303Z</time>
      </trkpt>
      <trkpt lat="42.91212" lon="0.11865">
        <ele>1793</ele>
        <time>2022-01-26T09:35:39.303Z</time>
      </trkpt>
      <trkpt lat="42.91212" lon="0.11861">
        <ele>1793</ele>
        <time>2022-01-26T09:35:44.306Z</time>
      </trkpt>
      <trkpt lat="42.91215" lon="0.11852">
        <ele>1793</ele>
        <time>2022-01-26T09:36:27.331Z</time>
      </trkpt>
      <trkpt lat="42.91217" lon="0.11855">
        <ele>1793</ele>
        <time>2022-01-26T09:36:32.307Z</time>
      </trkpt>
      <trkpt lat="42.91219" lon="0.11857">
        <ele>1793</ele>
        <time>2022-01-26T09:36:37.314Z</time>
      </trkpt>
      <trkpt lat="42.9122" lon="0.11859">
        <ele>1793</ele>
        <time>2022-01-26T09:36:42.306Z</time>
      </trkpt>
      <trkpt lat="42.91222" lon="0.11862">
        <ele>1793</ele>
        <time>2022-01-26T09:36:47.301Z</time>
      </trkpt>
      <trkpt lat="42.9123" lon="0.11865">
        <ele>1793</ele>
        <time>2022-01-26T09:37:44.327Z</time>
      </trkpt>
      <trkpt lat="42.91231" lon="0.11862">
        <ele>1793</ele>
        <time>2022-01-26T09:37:49.312Z</time>
      </trkpt>
      <trkpt lat="42.91231" lon="0.11858">
        <ele>1793</ele>
        <time>2022-01-26T09:37:54.310Z</time>
      </trkpt>
      <trkpt lat="42.9123" lon="0.11855">
        <ele>1793</ele>
        <time>2022-01-26T09:37:59.308Z</time>
      </trkpt>
      <trkpt lat="42.9123" lon="0.11852">
        <ele>1793</ele>
        <time>2022-01-26T09:38:04.308Z</time>
      </trkpt>
      <trkpt lat="42.9123" lon="0.11849">
        <ele>1793</ele>
        <time>2022-01-26T09:38:08.313Z</time>
      </trkpt>
      <trkpt lat="42.9123" lon="0.11846">
        <ele>1798</ele>
        <time>2022-01-26T09:38:13.307Z</time>
      </trkpt>
      <trkpt lat="42.91229" lon="0.11842">
        <ele>1798</ele>
        <time>2022-01-26T09:38:18.308Z</time>
      </trkpt>
      <trkpt lat="42.91229" lon="0.11838">
        <ele>1798</ele>
        <time>2022-01-26T09:38:23.311Z</time>
      </trkpt>
      <trkpt lat="42.91228" lon="0.11835">
        <ele>1798</ele>
        <time>2022-01-26T09:38:28.307Z</time>
      </trkpt>
      <trkpt lat="42.91228" lon="0.11828">
        <ele>1798</ele>
        <time>2022-01-26T09:39:07.328Z</time>
      </trkpt>
      <trkpt lat="42.91231" lon="0.1183">
        <ele>1798</ele>
        <time>2022-01-26T09:39:12.307Z</time>
      </trkpt>
      <trkpt lat="42.91235" lon="0.11833">
        <ele>1798</ele>
        <time>2022-01-26T09:39:17.305Z</time>
      </trkpt>
      <trkpt lat="42.91238" lon="0.11835">
        <ele>1812</ele>
        <time>2022-01-26T09:39:22.305Z</time>
      </trkpt>
      <trkpt lat="42.9124" lon="0.11838">
        <ele>1812</ele>
        <time>2022-01-26T09:39:27.310Z</time>
      </trkpt>
      <trkpt lat="42.91242" lon="0.1184">
        <ele>1812</ele>
        <time>2022-01-26T09:39:32.309Z</time>
      </trkpt>
      <trkpt lat="42.91244" lon="0.11842">
        <ele>1812</ele>
        <time>2022-01-26T09:39:36.307Z</time>
      </trkpt>
      <trkpt lat="42.91246" lon="0.11845">
        <ele>1812</ele>
        <time>2022-01-26T09:39:41.308Z</time>
      </trkpt>
      <trkpt lat="42.91248" lon="0.11847">
        <ele>1812</ele>
        <time>2022-01-26T09:39:46.307Z</time>
      </trkpt>
      <trkpt lat="42.9125" lon="0.11849">
        <ele>1806</ele>
        <time>2022-01-26T09:39:51.310Z</time>
      </trkpt>
      <trkpt lat="42.91252" lon="0.1185">
        <ele>1806</ele>
        <time>2022-01-26T09:40:11.306Z</time>
      </trkpt>
      <trkpt lat="42.91254" lon="0.11852">
        <ele>1806</ele>
        <time>2022-01-26T09:40:16.306Z</time>
      </trkpt>
      <trkpt lat="42.91256" lon="0.11855">
        <ele>1806</ele>
        <time>2022-01-26T09:40:21.315Z</time>
      </trkpt>
      <trkpt lat="42.91258" lon="0.11856">
        <ele>1806</ele>
        <time>2022-01-26T09:40:26.309Z</time>
      </trkpt>
      <trkpt lat="42.9126" lon="0.11858">
        <ele>1806</ele>
        <time>2022-01-26T09:40:31.306Z</time>
      </trkpt>
      <trkpt lat="42.91263" lon="0.11859">
        <ele>1806</ele>
        <time>2022-01-26T09:40:35.307Z</time>
      </trkpt>
      <trkpt lat="42.91266" lon="0.11861">
        <ele>1819</ele>
        <time>2022-01-26T09:40:40.306Z</time>
      </trkpt>
      <trkpt lat="42.91268" lon="0.11862">
        <ele>1819</ele>
        <time>2022-01-26T09:40:45.310Z</time>
      </trkpt>
      <trkpt lat="42.9127" lon="0.11864">
        <ele>1819</ele>
        <time>2022-01-26T09:40:50.306Z</time>
      </trkpt>
      <trkpt lat="42.91271" lon="0.11864">
        <ele>1819</ele>
        <time>2022-01-26T09:40:55.305Z</time>
      </trkpt>
      <trkpt lat="42.91272" lon="0.11865">
        <ele>1819</ele>
        <time>2022-01-26T09:40:59.305Z</time>
      </trkpt>
      <trkpt lat="42.9127" lon="0.11864">
        <ele>1819</ele>
        <time>2022-01-26T09:41:04.309Z</time>
      </trkpt>
      <trkpt lat="42.91269" lon="0.11863">
        <ele>1819</ele>
        <time>2022-01-26T09:41:09.305Z</time>
      </trkpt>
      <trkpt lat="42.91267" lon="0.1186">
        <ele>1819</ele>
        <time>2022-01-26T09:41:14.308Z</time>
      </trkpt>
      <trkpt lat="42.91265" lon="0.11856">
        <ele>1819</ele>
        <time>2022-01-26T09:41:19.308Z</time>
      </trkpt>
      <trkpt lat="42.91264" lon="0.11854">
        <ele>1819</ele>
        <time>2022-01-26T09:41:23.308Z</time>
      </trkpt>
      <trkpt lat="42.91263" lon="0.11851">
        <ele>1806</ele>
        <time>2022-01-26T09:41:28.307Z</time>
      </trkpt>
      <trkpt lat="42.91263" lon="0.11847">
        <ele>1806</ele>
        <time>2022-01-26T09:41:33.307Z</time>
      </trkpt>
      <trkpt lat="42.91262" lon="0.11843">
        <ele>1812</ele>
        <time>2022-01-26T09:41:38.307Z</time>
      </trkpt>
      <trkpt lat="42.91261" lon="0.1184">
        <ele>1812</ele>
        <time>2022-01-26T09:41:43.308Z</time>
      </trkpt>
      <trkpt lat="42.91261" lon="0.11836">
        <ele>1812</ele>
        <time>2022-01-26T09:41:47.305Z</time>
      </trkpt>
      <trkpt lat="42.91261" lon="0.11832">
        <ele>1812</ele>
        <time>2022-01-26T09:41:52.308Z</time>
      </trkpt>
      <trkpt lat="42.9126" lon="0.11828">
        <ele>1812</ele>
        <time>2022-01-26T09:41:57.310Z</time>
      </trkpt>
      <trkpt lat="42.91259" lon="0.11824">
        <ele>1812</ele>
        <time>2022-01-26T09:42:02.308Z</time>
      </trkpt>
      <trkpt lat="42.91261" lon="0.11824">
        <ele>1812</ele>
        <time>2022-01-26T09:42:55.309Z</time>
      </trkpt>
      <trkpt lat="42.91263" lon="0.11825">
        <ele>1812</ele>
        <time>2022-01-26T09:42:59.334Z</time>
      </trkpt>
      <trkpt lat="42.91265" lon="0.11827">
        <ele>1823</ele>
        <time>2022-01-26T09:43:04.313Z</time>
      </trkpt>
      <trkpt lat="42.91267" lon="0.11828">
        <ele>1823</ele>
        <time>2022-01-26T09:43:09.305Z</time>
      </trkpt>
      <trkpt lat="42.9127" lon="0.11831">
        <ele>1823</ele>
        <time>2022-01-26T09:43:14.305Z</time>
      </trkpt>
      <trkpt lat="42.91272" lon="0.11832">
        <ele>1823</ele>
        <time>2022-01-26T09:43:19.307Z</time>
      </trkpt>
      <trkpt lat="42.91274" lon="0.11835">
        <ele>1823</ele>
        <time>2022-01-26T09:43:24.309Z</time>
      </trkpt>
      <trkpt lat="42.91277" lon="0.11836">
        <ele>1823</ele>
        <time>2022-01-26T09:43:28.306Z</time>
      </trkpt>
      <trkpt lat="42.91281" lon="0.11837">
        <ele>1823</ele>
        <time>2022-01-26T09:43:33.306Z</time>
      </trkpt>
      <trkpt lat="42.91283" lon="0.11837">
        <ele>1823</ele>
        <time>2022-01-26T09:43:38.305Z</time>
      </trkpt>
      <trkpt lat="42.91283" lon="0.11837">
        <ele>1823</ele>
        <time>2022-01-26T09:43:43.308Z</time>
      </trkpt>
      <trkpt lat="42.91281" lon="0.11833">
        <ele>1823</ele>
        <time>2022-01-26T09:43:48.308Z</time>
      </trkpt>
      <trkpt lat="42.91278" lon="0.11829">
        <ele>1823</ele>
        <time>2022-01-26T09:43:53.306Z</time>
      </trkpt>
      <trkpt lat="42.91277" lon="0.11827">
        <ele>1823</ele>
        <time>2022-01-26T09:43:58.308Z</time>
      </trkpt>
      <trkpt lat="42.91275" lon="0.11825">
        <ele>1823</ele>
        <time>2022-01-26T09:44:03.306Z</time>
      </trkpt>
      <trkpt lat="42.91273" lon="0.11821">
        <ele>1823</ele>
        <time>2022-01-26T09:44:08.307Z</time>
      </trkpt>
      <trkpt lat="42.91272" lon="0.11816">
        <ele>1827</ele>
        <time>2022-01-26T09:44:13.307Z</time>
      </trkpt>
      <trkpt lat="42.9127" lon="0.11814">
        <ele>1827</ele>
        <time>2022-01-26T09:44:18.308Z</time>
      </trkpt>
      <trkpt lat="42.91269" lon="0.1181">
        <ele>1827</ele>
        <time>2022-01-26T09:44:23.311Z</time>
      </trkpt>
      <trkpt lat="42.91268" lon="0.11806">
        <ele>1827</ele>
        <time>2022-01-26T09:44:28.308Z</time>
      </trkpt>
      <trkpt lat="42.91267" lon="0.11803">
        <ele>1827</ele>
        <time>2022-01-26T09:44:33.335Z</time>
      </trkpt>
      <trkpt lat="42.91266" lon="0.11799">
        <ele>1827</ele>
        <time>2022-01-26T09:44:38.306Z</time>
      </trkpt>
      <trkpt lat="42.91266" lon="0.11796">
        <ele>1827</ele>
        <time>2022-01-26T09:44:43.307Z</time>
      </trkpt>
      <trkpt lat="42.91267" lon="0.11798">
        <ele>1827</ele>
        <time>2022-01-26T09:45:07.310Z</time>
      </trkpt>
      <trkpt lat="42.91268" lon="0.11799">
        <ele>1827</ele>
        <time>2022-01-26T09:45:12.305Z</time>
      </trkpt>
      <trkpt lat="42.9127" lon="0.11801">
        <ele>1827</ele>
        <time>2022-01-26T09:45:17.307Z</time>
      </trkpt>
      <trkpt lat="42.91272" lon="0.11803">
        <ele>1827</ele>
        <time>2022-01-26T09:45:22.304Z</time>
      </trkpt>
      <trkpt lat="42.91275" lon="0.11806">
        <ele>1827</ele>
        <time>2022-01-26T09:45:27.308Z</time>
      </trkpt>
      <trkpt lat="42.91283" lon="0.11804">
        <ele>1827</ele>
        <time>2022-01-26T09:46:30.306Z</time>
      </trkpt>
      <trkpt lat="42.91282" lon="0.118">
        <ele>1827</ele>
        <time>2022-01-26T09:46:35.304Z</time>
      </trkpt>
      <trkpt lat="42.9128" lon="0.11796">
        <ele>1827</ele>
        <time>2022-01-26T09:46:40.310Z</time>
      </trkpt>
      <trkpt lat="42.91279" lon="0.11792">
        <ele>1827</ele>
        <time>2022-01-26T09:46:45.309Z</time>
      </trkpt>
      <trkpt lat="42.91278" lon="0.11789">
        <ele>1832</ele>
        <time>2022-01-26T09:46:50.305Z</time>
      </trkpt>
      <trkpt lat="42.91278" lon="0.11784">
        <ele>1832</ele>
        <time>2022-01-26T09:47:24.305Z</time>
      </trkpt>
      <trkpt lat="42.9128" lon="0.11785">
        <ele>1832</ele>
        <time>2022-01-26T09:47:28.330Z</time>
      </trkpt>
      <trkpt lat="42.91282" lon="0.11787">
        <ele>1832</ele>
        <time>2022-01-26T09:47:33.309Z</time>
      </trkpt>
      <trkpt lat="42.91285" lon="0.11788">
        <ele>1832</ele>
        <time>2022-01-26T09:47:38.306Z</time>
      </trkpt>
      <trkpt lat="42.91287" lon="0.11789">
        <ele>1832</ele>
        <time>2022-01-26T09:47:43.308Z</time>
      </trkpt>
      <trkpt lat="42.91294" lon="0.11793">
        <ele>1837</ele>
        <time>2022-01-26T09:48:36.305Z</time>
      </trkpt>
      <trkpt lat="42.91294" lon="0.11794">
        <ele>1837</ele>
        <time>2022-01-26T09:48:40.332Z</time>
      </trkpt>
      <trkpt lat="42.91296" lon="0.11796">
        <ele>1837</ele>
        <time>2022-01-26T09:48:45.308Z</time>
      </trkpt>
      <trkpt lat="42.91298" lon="0.11798">
        <ele>1837</ele>
        <time>2022-01-26T09:48:50.307Z</time>
      </trkpt>
      <trkpt lat="42.91301" lon="0.118">
        <ele>1837</ele>
        <time>2022-01-26T09:48:55.306Z</time>
      </trkpt>
      <trkpt lat="42.9131" lon="0.118">
        <ele>1837</ele>
        <time>2022-01-26T09:49:09.307Z</time>
      </trkpt>
      <trkpt lat="42.9131" lon="0.11799">
        <ele>1837</ele>
        <time>2022-01-26T09:49:14.307Z</time>
      </trkpt>
      <trkpt lat="42.91309" lon="0.11794">
        <ele>1837</ele>
        <time>2022-01-26T09:49:19.312Z</time>
      </trkpt>
      <trkpt lat="42.91307" lon="0.1179">
        <ele>1840</ele>
        <time>2022-01-26T09:49:24.309Z</time>
      </trkpt>
      <trkpt lat="42.91305" lon="0.11786">
        <ele>1840</ele>
        <time>2022-01-26T09:49:29.310Z</time>
      </trkpt>
      <trkpt lat="42.91309" lon="0.11774">
        <ele>1840</ele>
        <time>2022-01-26T09:50:08.305Z</time>
      </trkpt>
      <trkpt lat="42.91309" lon="0.11774">
        <ele>1840</ele>
        <time>2022-01-26T09:50:13.305Z</time>
      </trkpt>
      <trkpt lat="42.91311" lon="0.11772">
        <ele>1840</ele>
        <time>2022-01-26T09:50:18.309Z</time>
      </trkpt>
      <trkpt lat="42.91315" lon="0.11773">
        <ele>1840</ele>
        <time>2022-01-26T09:50:23.311Z</time>
      </trkpt>
      <trkpt lat="42.91318" lon="0.11772">
        <ele>1840</ele>
        <time>2022-01-26T09:50:28.311Z</time>
      </trkpt>
      <trkpt lat="42.91321" lon="0.11772">
        <ele>1849</ele>
        <time>2022-01-26T09:50:33.306Z</time>
      </trkpt>
      <trkpt lat="42.91325" lon="0.11771">
        <ele>1849</ele>
        <time>2022-01-26T09:50:38.308Z</time>
      </trkpt>
      <trkpt lat="42.91328" lon="0.11769">
        <ele>1849</ele>
        <time>2022-01-26T09:50:43.309Z</time>
      </trkpt>
      <trkpt lat="42.91333" lon="0.11769">
        <ele>1849</ele>
        <time>2022-01-26T09:50:48.304Z</time>
      </trkpt>
      <trkpt lat="42.91337" lon="0.1177">
        <ele>1849</ele>
        <time>2022-01-26T09:50:53.309Z</time>
      </trkpt>
      <trkpt lat="42.9134" lon="0.11771">
        <ele>1849</ele>
        <time>2022-01-26T09:50:58.306Z</time>
      </trkpt>
      <trkpt lat="42.91343" lon="0.1177">
        <ele>1849</ele>
        <time>2022-01-26T09:51:03.308Z</time>
      </trkpt>
      <trkpt lat="42.91347" lon="0.1177">
        <ele>1855</ele>
        <time>2022-01-26T09:51:08.309Z</time>
      </trkpt>
      <trkpt lat="42.91358" lon="0.11763">
        <ele>1856</ele>
        <time>2022-01-26T09:59:24.309Z</time>
      </trkpt>
      <trkpt lat="42.9136" lon="0.1176">
        <ele>1856</ele>
        <time>2022-01-26T09:59:29.307Z</time>
      </trkpt>
      <trkpt lat="42.9136" lon="0.11755">
        <ele>1856</ele>
        <time>2022-01-26T09:59:34.307Z</time>
      </trkpt>
      <trkpt lat="42.91362" lon="0.11753">
        <ele>1856</ele>
        <time>2022-01-26T09:59:39.307Z</time>
      </trkpt>
      <trkpt lat="42.91364" lon="0.1175">
        <ele>1856</ele>
        <time>2022-01-26T09:59:44.303Z</time>
      </trkpt>
      <trkpt lat="42.91366" lon="0.11747">
        <ele>1856</ele>
        <time>2022-01-26T09:59:49.310Z</time>
      </trkpt>
      <trkpt lat="42.91369" lon="0.11745">
        <ele>1856</ele>
        <time>2022-01-26T09:59:54.306Z</time>
      </trkpt>
      <trkpt lat="42.91371" lon="0.11741">
        <ele>1856</ele>
        <time>2022-01-26T09:59:58.308Z</time>
      </trkpt>
      <trkpt lat="42.91373" lon="0.11737">
        <ele>1856</ele>
        <time>2022-01-26T10:00:03.310Z</time>
      </trkpt>
      <trkpt lat="42.91375" lon="0.11732">
        <ele>1862</ele>
        <time>2022-01-26T10:00:08.307Z</time>
      </trkpt>
      <trkpt lat="42.91378" lon="0.11727">
        <ele>1862</ele>
        <time>2022-01-26T10:00:13.305Z</time>
      </trkpt>
      <trkpt lat="42.9138" lon="0.11723">
        <ele>1862</ele>
        <time>2022-01-26T10:00:18.302Z</time>
      </trkpt>
      <trkpt lat="42.91381" lon="0.1172">
        <ele>1862</ele>
        <time>2022-01-26T10:00:22.331Z</time>
      </trkpt>
      <trkpt lat="42.91383" lon="0.11716">
        <ele>1862</ele>
        <time>2022-01-26T10:00:27.307Z</time>
      </trkpt>
      <trkpt lat="42.91385" lon="0.11711">
        <ele>1862</ele>
        <time>2022-01-26T10:00:32.308Z</time>
      </trkpt>
      <trkpt lat="42.91387" lon="0.11706">
        <ele>1862</ele>
        <time>2022-01-26T10:00:37.306Z</time>
      </trkpt>
      <trkpt lat="42.91389" lon="0.11699">
        <ele>1862</ele>
        <time>2022-01-26T10:00:42.304Z</time>
      </trkpt>
      <trkpt lat="42.91392" lon="0.11694">
        <ele>1862</ele>
        <time>2022-01-26T10:00:51.304Z</time>
      </trkpt>
      <trkpt lat="42.91393" lon="0.11692">
        <ele>1862</ele>
        <time>2022-01-26T10:00:56.307Z</time>
      </trkpt>
      <trkpt lat="42.91393" lon="0.11688">
        <ele>1862</ele>
        <time>2022-01-26T10:01:01.306Z</time>
      </trkpt>
      <trkpt lat="42.91393" lon="0.11685">
        <ele>1862</ele>
        <time>2022-01-26T10:01:06.304Z</time>
      </trkpt>
      <trkpt lat="42.91394" lon="0.11682">
        <ele>1862</ele>
        <time>2022-01-26T10:01:11.306Z</time>
      </trkpt>
      <trkpt lat="42.91394" lon="0.1168">
        <ele>1862</ele>
        <time>2022-01-26T10:01:15.329Z</time>
      </trkpt>
      <trkpt lat="42.91395" lon="0.11676">
        <ele>1862</ele>
        <time>2022-01-26T10:01:20.304Z</time>
      </trkpt>
      <trkpt lat="42.91396" lon="0.11672">
        <ele>1862</ele>
        <time>2022-01-26T10:01:25.304Z</time>
      </trkpt>
      <trkpt lat="42.91398" lon="0.11669">
        <ele>1862</ele>
        <time>2022-01-26T10:01:29.305Z</time>
      </trkpt>
      <trkpt lat="42.914" lon="0.11666">
        <ele>1862</ele>
        <time>2022-01-26T10:01:33.303Z</time>
      </trkpt>
      <trkpt lat="42.91401" lon="0.11663">
        <ele>1862</ele>
        <time>2022-01-26T10:01:38.305Z</time>
      </trkpt>
      <trkpt lat="42.91403" lon="0.11658">
        <ele>1862</ele>
        <time>2022-01-26T10:01:43.308Z</time>
      </trkpt>
      <trkpt lat="42.91404" lon="0.11652">
        <ele>1866</ele>
        <time>2022-01-26T10:01:48.305Z</time>
      </trkpt>
      <trkpt lat="42.91406" lon="0.11648">
        <ele>1866</ele>
        <time>2022-01-26T10:01:53.321Z</time>
      </trkpt>
      <trkpt lat="42.91408" lon="0.11645">
        <ele>1866</ele>
        <time>2022-01-26T10:01:58.304Z</time>
      </trkpt>
      <trkpt lat="42.91411" lon="0.11642">
        <ele>1866</ele>
        <time>2022-01-26T10:02:03.303Z</time>
      </trkpt>
      <trkpt lat="42.91411" lon="0.11638">
        <ele>1866</ele>
        <time>2022-01-26T10:02:08.308Z</time>
      </trkpt>
      <trkpt lat="42.91412" lon="0.11633">
        <ele>1866</ele>
        <time>2022-01-26T10:02:13.303Z</time>
      </trkpt>
      <trkpt lat="42.91412" lon="0.11627">
        <ele>1866</ele>
        <time>2022-01-26T10:02:18.304Z</time>
      </trkpt>
      <trkpt lat="42.91414" lon="0.11622">
        <ele>1865</ele>
        <time>2022-01-26T10:02:23.301Z</time>
      </trkpt>
      <trkpt lat="42.91416" lon="0.11618">
        <ele>1865</ele>
        <time>2022-01-26T10:02:28.311Z</time>
      </trkpt>
      <trkpt lat="42.91418" lon="0.11615">
        <ele>1865</ele>
        <time>2022-01-26T10:02:33.306Z</time>
      </trkpt>
      <trkpt lat="42.9142" lon="0.11611">
        <ele>1865</ele>
        <time>2022-01-26T10:02:38.306Z</time>
      </trkpt>
      <trkpt lat="42.91421" lon="0.11609">
        <ele>1865</ele>
        <time>2022-01-26T10:02:43.308Z</time>
      </trkpt>
      <trkpt lat="42.91424" lon="0.11608">
        <ele>1865</ele>
        <time>2022-01-26T10:02:48.307Z</time>
      </trkpt>
      <trkpt lat="42.91427" lon="0.11606">
        <ele>1865</ele>
        <time>2022-01-26T10:02:53.303Z</time>
      </trkpt>
      <trkpt lat="42.91428" lon="0.11603">
        <ele>1865</ele>
        <time>2022-01-26T10:02:58.306Z</time>
      </trkpt>
      <trkpt lat="42.91428" lon="0.11601">
        <ele>1865</ele>
        <time>2022-01-26T10:03:02.306Z</time>
      </trkpt>
      <trkpt lat="42.91431" lon="0.116">
        <ele>1869</ele>
        <time>2022-01-26T10:03:07.306Z</time>
      </trkpt>
      <trkpt lat="42.91433" lon="0.116">
        <ele>1869</ele>
        <time>2022-01-26T10:03:12.304Z</time>
      </trkpt>
      <trkpt lat="42.91435" lon="0.11597">
        <ele>1869</ele>
        <time>2022-01-26T10:03:17.308Z</time>
      </trkpt>
      <trkpt lat="42.91436" lon="0.11594">
        <ele>1871</ele>
        <time>2022-01-26T10:03:22.320Z</time>
      </trkpt>
      <trkpt lat="42.91437" lon="0.11589">
        <ele>1871</ele>
        <time>2022-01-26T10:03:27.311Z</time>
      </trkpt>
      <trkpt lat="42.91438" lon="0.11585">
        <ele>1871</ele>
        <time>2022-01-26T10:03:31.329Z</time>
      </trkpt>
      <trkpt lat="42.91437" lon="0.11579">
        <ele>1871</ele>
        <time>2022-01-26T10:03:36.311Z</time>
      </trkpt>
      <trkpt lat="42.91438" lon="0.11575">
        <ele>1871</ele>
        <time>2022-01-26T10:03:41.307Z</time>
      </trkpt>
      <trkpt lat="42.9144" lon="0.11573">
        <ele>1871</ele>
        <time>2022-01-26T10:03:45.308Z</time>
      </trkpt>
      <trkpt lat="42.91441" lon="0.11569">
        <ele>1874</ele>
        <time>2022-01-26T10:03:49.305Z</time>
      </trkpt>
      <trkpt lat="42.91443" lon="0.11565">
        <ele>1874</ele>
        <time>2022-01-26T10:03:54.304Z</time>
      </trkpt>
      <trkpt lat="42.91444" lon="0.11559">
        <ele>1874</ele>
        <time>2022-01-26T10:03:59.307Z</time>
      </trkpt>
      <trkpt lat="42.91445" lon="0.11554">
        <ele>1874</ele>
        <time>2022-01-26T10:04:04.304Z</time>
      </trkpt>
      <trkpt lat="42.91447" lon="0.11549">
        <ele>1874</ele>
        <time>2022-01-26T10:04:09.307Z</time>
      </trkpt>
      <trkpt lat="42.91448" lon="0.11544">
        <ele>1874</ele>
        <time>2022-01-26T10:04:14.306Z</time>
      </trkpt>
      <trkpt lat="42.91448" lon="0.11539">
        <ele>1876</ele>
        <time>2022-01-26T10:04:19.306Z</time>
      </trkpt>
      <trkpt lat="42.9145" lon="0.11537">
        <ele>1876</ele>
        <time>2022-01-26T10:04:24.306Z</time>
      </trkpt>
      <trkpt lat="42.91452" lon="0.11534">
        <ele>1876</ele>
        <time>2022-01-26T10:04:29.305Z</time>
      </trkpt>
      <trkpt lat="42.91454" lon="0.11531">
        <ele>1876</ele>
        <time>2022-01-26T10:04:34.304Z</time>
      </trkpt>
      <trkpt lat="42.91455" lon="0.11527">
        <ele>1876</ele>
        <time>2022-01-26T10:04:39.309Z</time>
      </trkpt>
      <trkpt lat="42.91456" lon="0.11522">
        <ele>1876</ele>
        <time>2022-01-26T10:04:44.337Z</time>
      </trkpt>
      <trkpt lat="42.91456" lon="0.11518">
        <ele>1876</ele>
        <time>2022-01-26T10:04:49.311Z</time>
      </trkpt>
      <trkpt lat="42.91456" lon="0.11514">
        <ele>1877</ele>
        <time>2022-01-26T10:04:54.307Z</time>
      </trkpt>
      <trkpt lat="42.91457" lon="0.11509">
        <ele>1877</ele>
        <time>2022-01-26T10:04:59.312Z</time>
      </trkpt>
      <trkpt lat="42.91457" lon="0.11503">
        <ele>1877</ele>
        <time>2022-01-26T10:05:04.307Z</time>
      </trkpt>
      <trkpt lat="42.91458" lon="0.11498">
        <ele>1877</ele>
        <time>2022-01-26T10:05:09.306Z</time>
      </trkpt>
      <trkpt lat="42.91458" lon="0.11492">
        <ele>1877</ele>
        <time>2022-01-26T10:05:14.306Z</time>
      </trkpt>
      <trkpt lat="42.91459" lon="0.11487">
        <ele>1878</ele>
        <time>2022-01-26T10:05:19.307Z</time>
      </trkpt>
      <trkpt lat="42.91459" lon="0.11482">
        <ele>1879</ele>
        <time>2022-01-26T10:05:24.305Z</time>
      </trkpt>
      <trkpt lat="42.9146" lon="0.11477">
        <ele>1879</ele>
        <time>2022-01-26T10:05:29.304Z</time>
      </trkpt>
      <trkpt lat="42.91459" lon="0.11472">
        <ele>1879</ele>
        <time>2022-01-26T10:05:33.308Z</time>
      </trkpt>
      <trkpt lat="42.9146" lon="0.11468">
        <ele>1879</ele>
        <time>2022-01-26T10:05:38.307Z</time>
      </trkpt>
      <trkpt lat="42.91462" lon="0.11466">
        <ele>1879</ele>
        <time>2022-01-26T10:05:42.318Z</time>
      </trkpt>
      <trkpt lat="42.91463" lon="0.11463">
        <ele>1879</ele>
        <time>2022-01-26T10:05:47.306Z</time>
      </trkpt>
      <trkpt lat="42.91464" lon="0.11459">
        <ele>1879</ele>
        <time>2022-01-26T10:05:52.307Z</time>
      </trkpt>
      <trkpt lat="42.91465" lon="0.11455">
        <ele>1880</ele>
        <time>2022-01-26T10:05:57.308Z</time>
      </trkpt>
      <trkpt lat="42.91465" lon="0.11449">
        <ele>1880</ele>
        <time>2022-01-26T10:06:02.307Z</time>
      </trkpt>
      <trkpt lat="42.91467" lon="0.11446">
        <ele>1880</ele>
        <time>2022-01-26T10:06:07.310Z</time>
      </trkpt>
      <trkpt lat="42.91467" lon="0.11441">
        <ele>1880</ele>
        <time>2022-01-26T10:06:12.308Z</time>
      </trkpt>
      <trkpt lat="42.91467" lon="0.11437">
        <ele>1880</ele>
        <time>2022-01-26T10:06:17.305Z</time>
      </trkpt>
      <trkpt lat="42.91468" lon="0.11433">
        <ele>1880</ele>
        <time>2022-01-26T10:06:22.304Z</time>
      </trkpt>
      <trkpt lat="42.9147" lon="0.1143">
        <ele>1887</ele>
        <time>2022-01-26T10:06:57.308Z</time>
      </trkpt>
      <trkpt lat="42.91473" lon="0.11426">
        <ele>1887</ele>
        <time>2022-01-26T10:07:02.306Z</time>
      </trkpt>
      <trkpt lat="42.91475" lon="0.11422">
        <ele>1887</ele>
        <time>2022-01-26T10:07:06.309Z</time>
      </trkpt>
      <trkpt lat="42.91474" lon="0.11416">
        <ele>1887</ele>
        <time>2022-01-26T10:07:11.312Z</time>
      </trkpt>
      <trkpt lat="42.91475" lon="0.11412">
        <ele>1887</ele>
        <time>2022-01-26T10:07:15.308Z</time>
      </trkpt>
      <trkpt lat="42.91476" lon="0.11407">
        <ele>1887</ele>
        <time>2022-01-26T10:07:20.307Z</time>
      </trkpt>
      <trkpt lat="42.91477" lon="0.11405">
        <ele>1887</ele>
        <time>2022-01-26T10:07:25.307Z</time>
      </trkpt>
      <trkpt lat="42.91478" lon="0.11402">
        <ele>1893</ele>
        <time>2022-01-26T10:07:30.306Z</time>
      </trkpt>
      <trkpt lat="42.91479" lon="0.11399">
        <ele>1893</ele>
        <time>2022-01-26T10:07:35.305Z</time>
      </trkpt>
      <trkpt lat="42.91479" lon="0.11396">
        <ele>1893</ele>
        <time>2022-01-26T10:07:40.306Z</time>
      </trkpt>
      <trkpt lat="42.91481" lon="0.11396">
        <ele>1893</ele>
        <time>2022-01-26T10:08:41.315Z</time>
      </trkpt>
      <trkpt lat="42.91482" lon="0.11395">
        <ele>1893</ele>
        <time>2022-01-26T10:08:46.316Z</time>
      </trkpt>
      <trkpt lat="42.91483" lon="0.11392">
        <ele>1893</ele>
        <time>2022-01-26T10:08:50.309Z</time>
      </trkpt>
      <trkpt lat="42.91486" lon="0.11386">
        <ele>1893</ele>
        <time>2022-01-26T10:08:55.309Z</time>
      </trkpt>
      <trkpt lat="42.91489" lon="0.11382">
        <ele>1901</ele>
        <time>2022-01-26T10:09:00.309Z</time>
      </trkpt>
      <trkpt lat="42.91492" lon="0.11378">
        <ele>1901</ele>
        <time>2022-01-26T10:09:05.309Z</time>
      </trkpt>
      <trkpt lat="42.91493" lon="0.11372">
        <ele>1911</ele>
        <time>2022-01-26T10:09:10.308Z</time>
      </trkpt>
      <trkpt lat="42.91494" lon="0.11368">
        <ele>1911</ele>
        <time>2022-01-26T10:09:15.310Z</time>
      </trkpt>
      <trkpt lat="42.91497" lon="0.11366">
        <ele>1911</ele>
        <time>2022-01-26T10:09:20.311Z</time>
      </trkpt>
      <trkpt lat="42.91496" lon="0.11361">
        <ele>1911</ele>
        <time>2022-01-26T10:09:39.307Z</time>
      </trkpt>
      <trkpt lat="42.91495" lon="0.1136">
        <ele>1911</ele>
        <time>2022-01-26T10:09:44.308Z</time>
      </trkpt>
      <trkpt lat="42.91498" lon="0.11358">
        <ele>1911</ele>
        <time>2022-01-26T10:09:49.308Z</time>
      </trkpt>
      <trkpt lat="42.91498" lon="0.11356">
        <ele>1911</ele>
        <time>2022-01-26T10:09:54.306Z</time>
      </trkpt>
      <trkpt lat="42.91498" lon="0.11351">
        <ele>1911</ele>
        <time>2022-01-26T10:09:59.304Z</time>
      </trkpt>
      <trkpt lat="42.91496" lon="0.11348">
        <ele>1911</ele>
        <time>2022-01-26T10:10:04.308Z</time>
      </trkpt>
      <trkpt lat="42.91498" lon="0.11347">
        <ele>1911</ele>
        <time>2022-01-26T10:10:09.308Z</time>
      </trkpt>
      <trkpt lat="42.91502" lon="0.11343">
        <ele>1917</ele>
        <time>2022-01-26T10:10:14.307Z</time>
      </trkpt>
      <trkpt lat="42.91506" lon="0.1134">
        <ele>1917</ele>
        <time>2022-01-26T10:10:19.305Z</time>
      </trkpt>
      <trkpt lat="42.91508" lon="0.1134">
        <ele>1917</ele>
        <time>2022-01-26T10:10:34.310Z</time>
      </trkpt>
      <trkpt lat="42.91508" lon="0.1134">
        <ele>1917</ele>
        <time>2022-01-26T10:10:39.305Z</time>
      </trkpt>
      <trkpt lat="42.9151" lon="0.11338">
        <ele>1917</ele>
        <time>2022-01-26T10:10:44.307Z</time>
      </trkpt>
      <trkpt lat="42.91513" lon="0.11334">
        <ele>1917</ele>
        <time>2022-01-26T10:10:49.308Z</time>
      </trkpt>
      <trkpt lat="42.91516" lon="0.11332">
        <ele>1928</ele>
        <time>2022-01-26T10:10:54.306Z</time>
      </trkpt>
      <trkpt lat="42.9152" lon="0.11324">
        <ele>1928</ele>
        <time>2022-01-26T10:11:03.313Z</time>
      </trkpt>
      <trkpt lat="42.91518" lon="0.11321">
        <ele>1928</ele>
        <time>2022-01-26T10:11:08.308Z</time>
      </trkpt>
      <trkpt lat="42.91517" lon="0.11321">
        <ele>1928</ele>
        <time>2022-01-26T10:11:13.306Z</time>
      </trkpt>
      <trkpt lat="42.9152" lon="0.11318">
        <ele>1935</ele>
        <time>2022-01-26T10:11:18.305Z</time>
      </trkpt>
      <trkpt lat="42.91524" lon="0.11318">
        <ele>1935</ele>
        <time>2022-01-26T10:11:23.305Z</time>
      </trkpt>
      <trkpt lat="42.91527" lon="0.11323">
        <ele>1928</ele>
        <time>2022-01-26T10:11:56.309Z</time>
      </trkpt>
      <trkpt lat="42.91525" lon="0.11322">
        <ele>1928</ele>
        <time>2022-01-26T10:12:00.309Z</time>
      </trkpt>
      <trkpt lat="42.91522" lon="0.11325">
        <ele>1928</ele>
        <time>2022-01-26T10:12:05.308Z</time>
      </trkpt>
      <trkpt lat="42.91519" lon="0.11325">
        <ele>1928</ele>
        <time>2022-01-26T10:12:10.308Z</time>
      </trkpt>
      <trkpt lat="42.91517" lon="0.11325">
        <ele>1928</ele>
        <time>2022-01-26T10:12:15.306Z</time>
      </trkpt>
      <trkpt lat="42.91507" lon="0.1133">
        <ele>1917</ele>
        <time>2022-01-26T10:12:54.308Z</time>
      </trkpt>
      <trkpt lat="42.91507" lon="0.1133">
        <ele>1917</ele>
        <time>2022-01-26T10:12:59.310Z</time>
      </trkpt>
      <trkpt lat="42.91506" lon="0.1133">
        <ele>1917</ele>
        <time>2022-01-26T10:13:04.311Z</time>
      </trkpt>
      <trkpt lat="42.91504" lon="0.11328">
        <ele>1917</ele>
        <time>2022-01-26T10:13:08.308Z</time>
      </trkpt>
      <trkpt lat="42.91501" lon="0.11325">
        <ele>1917</ele>
        <time>2022-01-26T10:13:13.310Z</time>
      </trkpt>
      <trkpt lat="42.91497" lon="0.11319">
        <ele>1923</ele>
        <time>2022-01-26T10:13:37.305Z</time>
      </trkpt>
      <trkpt lat="42.91498" lon="0.11319">
        <ele>1923</ele>
        <time>2022-01-26T10:13:42.312Z</time>
      </trkpt>
      <trkpt lat="42.91499" lon="0.11318">
        <ele>1923</ele>
        <time>2022-01-26T10:13:47.309Z</time>
      </trkpt>
      <trkpt lat="42.91499" lon="0.11314">
        <ele>1923</ele>
        <time>2022-01-26T10:13:52.311Z</time>
      </trkpt>
      <trkpt lat="42.91497" lon="0.11312">
        <ele>1923</ele>
        <time>2022-01-26T10:13:56.308Z</time>
      </trkpt>
      <trkpt lat="42.915" lon="0.11308">
        <ele>1923</ele>
        <time>2022-01-26T10:14:01.308Z</time>
      </trkpt>
      <trkpt lat="42.91506" lon="0.11307">
        <ele>1923</ele>
        <time>2022-01-26T10:14:06.308Z</time>
      </trkpt>
      <trkpt lat="42.91508" lon="0.11308">
        <ele>1923</ele>
        <time>2022-01-26T10:14:11.306Z</time>
      </trkpt>
      <trkpt lat="42.91511" lon="0.11305">
        <ele>1923</ele>
        <time>2022-01-26T10:14:16.308Z</time>
      </trkpt>
      <trkpt lat="42.91513" lon="0.11293">
        <ele>1923</ele>
        <time>2022-01-26T10:16:04.309Z</time>
      </trkpt>
      <trkpt lat="42.91511" lon="0.11292">
        <ele>1923</ele>
        <time>2022-01-26T10:16:09.307Z</time>
      </trkpt>
      <trkpt lat="42.91509" lon="0.11292">
        <ele>1923</ele>
        <time>2022-01-26T10:16:14.310Z</time>
      </trkpt>
      <trkpt lat="42.91506" lon="0.11289">
        <ele>1928</ele>
        <time>2022-01-26T10:16:19.314Z</time>
      </trkpt>
      <trkpt lat="42.91504" lon="0.11286">
        <ele>1928</ele>
        <time>2022-01-26T10:16:24.308Z</time>
      </trkpt>
      <trkpt lat="42.91503" lon="0.11285">
        <ele>1928</ele>
        <time>2022-01-26T10:16:44.308Z</time>
      </trkpt>
      <trkpt lat="42.91505" lon="0.11282">
        <ele>1928</ele>
        <time>2022-01-26T10:16:49.307Z</time>
      </trkpt>
      <trkpt lat="42.91508" lon="0.1128">
        <ele>1928</ele>
        <time>2022-01-26T10:16:54.306Z</time>
      </trkpt>
      <trkpt lat="42.91509" lon="0.11279">
        <ele>1928</ele>
        <time>2022-01-26T10:16:59.305Z</time>
      </trkpt>
      <trkpt lat="42.91512" lon="0.11276">
        <ele>1928</ele>
        <time>2022-01-26T10:17:03.332Z</time>
      </trkpt>
      <trkpt lat="42.91515" lon="0.1127">
        <ele>1943</ele>
        <time>2022-01-26T10:17:13.313Z</time>
      </trkpt>
      <trkpt lat="42.91513" lon="0.11267">
        <ele>1928</ele>
        <time>2022-01-26T10:17:18.308Z</time>
      </trkpt>
      <trkpt lat="42.91513" lon="0.11265">
        <ele>1928</ele>
        <time>2022-01-26T10:17:23.305Z</time>
      </trkpt>
      <trkpt lat="42.91514" lon="0.11262">
        <ele>1929</ele>
        <time>2022-01-26T10:17:27.309Z</time>
      </trkpt>
      <trkpt lat="42.91514" lon="0.11259">
        <ele>1944</ele>
        <time>2022-01-26T10:17:32.307Z</time>
      </trkpt>
      <trkpt lat="42.91513" lon="0.11258">
        <ele>1929</ele>
        <time>2022-01-26T10:18:07.309Z</time>
      </trkpt>
      <trkpt lat="42.91513" lon="0.11256">
        <ele>1929</ele>
        <time>2022-01-26T10:18:12.304Z</time>
      </trkpt>
      <trkpt lat="42.91514" lon="0.11251">
        <ele>1944</ele>
        <time>2022-01-26T10:18:17.308Z</time>
      </trkpt>
      <trkpt lat="42.91517" lon="0.11248">
        <ele>1944</ele>
        <time>2022-01-26T10:18:22.313Z</time>
      </trkpt>
      <trkpt lat="42.91519" lon="0.11244">
        <ele>1944</ele>
        <time>2022-01-26T10:18:27.309Z</time>
      </trkpt>
      <trkpt lat="42.91521" lon="0.11242">
        <ele>1944</ele>
        <time>2022-01-26T10:18:32.306Z</time>
      </trkpt>
      <trkpt lat="42.91523" lon="0.11239">
        <ele>1944</ele>
        <time>2022-01-26T10:18:37.306Z</time>
      </trkpt>
      <trkpt lat="42.91525" lon="0.11235">
        <ele>1948</ele>
        <time>2022-01-26T10:18:42.306Z</time>
      </trkpt>
      <trkpt lat="42.91527" lon="0.11231">
        <ele>1948</ele>
        <time>2022-01-26T10:18:47.305Z</time>
      </trkpt>
      <trkpt lat="42.91528" lon="0.11229">
        <ele>1948</ele>
        <time>2022-01-26T10:19:11.304Z</time>
      </trkpt>
      <trkpt lat="42.91528" lon="0.11228">
        <ele>1948</ele>
        <time>2022-01-26T10:19:16.333Z</time>
      </trkpt>
      <trkpt lat="42.91531" lon="0.11224">
        <ele>1948</ele>
        <time>2022-01-26T10:19:21.308Z</time>
      </trkpt>
      <trkpt lat="42.91533" lon="0.11221">
        <ele>1948</ele>
        <time>2022-01-26T10:19:25.311Z</time>
      </trkpt>
      <trkpt lat="42.91535" lon="0.11216">
        <ele>1948</ele>
        <time>2022-01-26T10:19:30.310Z</time>
      </trkpt>
      <trkpt lat="42.91539" lon="0.11213">
        <ele>1948</ele>
        <time>2022-01-26T10:19:35.310Z</time>
      </trkpt>
      <trkpt lat="42.91541" lon="0.11211">
        <ele>1948</ele>
        <time>2022-01-26T10:19:39.309Z</time>
      </trkpt>
      <trkpt lat="42.91544" lon="0.11209">
        <ele>1962</ele>
        <time>2022-01-26T10:19:43.318Z</time>
      </trkpt>
      <trkpt lat="42.91546" lon="0.11206">
        <ele>1962</ele>
        <time>2022-01-26T10:19:48.307Z</time>
      </trkpt>
      <trkpt lat="42.91548" lon="0.11206">
        <ele>1962</ele>
        <time>2022-01-26T10:20:02.307Z</time>
      </trkpt>
      <trkpt lat="42.91548" lon="0.11206">
        <ele>1962</ele>
        <time>2022-01-26T10:20:07.310Z</time>
      </trkpt>
      <trkpt lat="42.9155" lon="0.11205">
        <ele>1962</ele>
        <time>2022-01-26T10:20:12.306Z</time>
      </trkpt>
      <trkpt lat="42.91554" lon="0.11202">
        <ele>1962</ele>
        <time>2022-01-26T10:20:17.309Z</time>
      </trkpt>
      <trkpt lat="42.91557" lon="0.11201">
        <ele>1962</ele>
        <time>2022-01-26T10:20:22.313Z</time>
      </trkpt>
      <trkpt lat="42.9155" lon="0.11202">
        <ele>1962</ele>
        <time>2022-01-26T10:21:33.310Z</time>
      </trkpt>
      <trkpt lat="42.91549" lon="0.11199">
        <ele>1962</ele>
        <time>2022-01-26T10:21:38.311Z</time>
      </trkpt>
      <trkpt lat="42.91547" lon="0.11199">
        <ele>1962</ele>
        <time>2022-01-26T10:21:43.308Z</time>
      </trkpt>
      <trkpt lat="42.91546" lon="0.11198">
        <ele>1962</ele>
        <time>2022-01-26T10:21:47.308Z</time>
      </trkpt>
      <trkpt lat="42.91546" lon="0.11198">
        <ele>1962</ele>
        <time>2022-01-26T10:21:52.310Z</time>
      </trkpt>
      <trkpt lat="42.91545" lon="0.11197">
        <ele>1962</ele>
        <time>2022-01-26T10:25:11.305Z</time>
      </trkpt>
      <trkpt lat="42.91548" lon="0.11194">
        <ele>1962</ele>
        <time>2022-01-26T10:25:16.312Z</time>
      </trkpt>
      <trkpt lat="42.91551" lon="0.11191">
        <ele>1962</ele>
        <time>2022-01-26T10:25:21.306Z</time>
      </trkpt>
      <trkpt lat="42.91554" lon="0.11188">
        <ele>1962</ele>
        <time>2022-01-26T10:25:26.309Z</time>
      </trkpt>
      <trkpt lat="42.91555" lon="0.11186">
        <ele>1962</ele>
        <time>2022-01-26T10:25:30.306Z</time>
      </trkpt>
      <trkpt lat="42.91557" lon="0.11185">
        <ele>1962</ele>
        <time>2022-01-26T10:25:35.315Z</time>
      </trkpt>
      <trkpt lat="42.91559" lon="0.11183">
        <ele>1962</ele>
        <time>2022-01-26T10:25:40.311Z</time>
      </trkpt>
      <trkpt lat="42.91563" lon="0.1118">
        <ele>1947</ele>
        <time>2022-01-26T10:25:45.304Z</time>
      </trkpt>
      <trkpt lat="42.91566" lon="0.11178">
        <ele>1947</ele>
        <time>2022-01-26T10:25:50.305Z</time>
      </trkpt>
      <trkpt lat="42.91568" lon="0.11175">
        <ele>1947</ele>
        <time>2022-01-26T10:25:55.340Z</time>
      </trkpt>
      <trkpt lat="42.9157" lon="0.11173">
        <ele>1981</ele>
        <time>2022-01-26T10:26:00.337Z</time>
      </trkpt>
      <trkpt lat="42.91572" lon="0.11172">
        <ele>1981</ele>
        <time>2022-01-26T10:26:05.337Z</time>
      </trkpt>
      <trkpt lat="42.91573" lon="0.1117">
        <ele>1981</ele>
        <time>2022-01-26T10:26:10.341Z</time>
      </trkpt>
      <trkpt lat="42.91575" lon="0.11168">
        <ele>1981</ele>
        <time>2022-01-26T10:26:15.335Z</time>
      </trkpt>
      <trkpt lat="42.91576" lon="0.11166">
        <ele>1981</ele>
        <time>2022-01-26T10:26:25.314Z</time>
      </trkpt>
      <trkpt lat="42.91577" lon="0.11165">
        <ele>1981</ele>
        <time>2022-01-26T10:26:30.306Z</time>
      </trkpt>
      <trkpt lat="42.91578" lon="0.11162">
        <ele>1981</ele>
        <time>2022-01-26T10:26:35.307Z</time>
      </trkpt>
      <trkpt lat="42.9158" lon="0.1116">
        <ele>1981</ele>
        <time>2022-01-26T10:26:39.306Z</time>
      </trkpt>
      <trkpt lat="42.91582" lon="0.11157">
        <ele>1981</ele>
        <time>2022-01-26T10:26:44.331Z</time>
      </trkpt>
      <trkpt lat="42.91588" lon="0.11147">
        <ele>1976</ele>
        <time>2022-01-26T10:27:09.306Z</time>
      </trkpt>
      <trkpt lat="42.91588" lon="0.11147">
        <ele>1976</ele>
        <time>2022-01-26T10:27:13.328Z</time>
      </trkpt>
      <trkpt lat="42.91588" lon="0.11147">
        <ele>1976</ele>
        <time>2022-01-26T10:27:18.310Z</time>
      </trkpt>
      <trkpt lat="42.9159" lon="0.11145">
        <ele>1976</ele>
        <time>2022-01-26T10:27:23.305Z</time>
      </trkpt>
      <trkpt lat="42.91592" lon="0.11141">
        <ele>1976</ele>
        <time>2022-01-26T10:27:28.309Z</time>
      </trkpt>
      <trkpt lat="42.91597" lon="0.11136">
        <ele>1976</ele>
        <time>2022-01-26T10:27:38.306Z</time>
      </trkpt>
      <trkpt lat="42.91599" lon="0.11135">
        <ele>1993</ele>
        <time>2022-01-26T10:27:42.335Z</time>
      </trkpt>
      <trkpt lat="42.916" lon="0.11134">
        <ele>1993</ele>
        <time>2022-01-26T10:27:47.308Z</time>
      </trkpt>
      <trkpt lat="42.91601" lon="0.11132">
        <ele>1993</ele>
        <time>2022-01-26T10:27:52.306Z</time>
      </trkpt>
      <trkpt lat="42.91603" lon="0.1113">
        <ele>1993</ele>
        <time>2022-01-26T10:27:57.308Z</time>
      </trkpt>
      <trkpt lat="42.91605" lon="0.1113">
        <ele>1993</ele>
        <time>2022-01-26T10:28:22.307Z</time>
      </trkpt>
      <trkpt lat="42.91607" lon="0.11128">
        <ele>1993</ele>
        <time>2022-01-26T10:28:27.334Z</time>
      </trkpt>
      <trkpt lat="42.91608" lon="0.11125">
        <ele>1993</ele>
        <time>2022-01-26T10:28:32.307Z</time>
      </trkpt>
      <trkpt lat="42.9161" lon="0.11123">
        <ele>1995</ele>
        <time>2022-01-26T10:28:37.304Z</time>
      </trkpt>
      <trkpt lat="42.91612" lon="0.11121">
        <ele>1995</ele>
        <time>2022-01-26T10:28:42.332Z</time>
      </trkpt>
      <trkpt lat="42.91615" lon="0.11117">
        <ele>1995</ele>
        <time>2022-01-26T10:29:02.308Z</time>
      </trkpt>
      <trkpt lat="42.91617" lon="0.11116">
        <ele>1995</ele>
        <time>2022-01-26T10:29:07.313Z</time>
      </trkpt>
      <trkpt lat="42.9162" lon="0.11114">
        <ele>1995</ele>
        <time>2022-01-26T10:29:12.310Z</time>
      </trkpt>
      <trkpt lat="42.91622" lon="0.11112">
        <ele>1995</ele>
        <time>2022-01-26T10:29:16.308Z</time>
      </trkpt>
      <trkpt lat="42.91623" lon="0.1111">
        <ele>1995</ele>
        <time>2022-01-26T10:29:20.305Z</time>
      </trkpt>
      <trkpt lat="42.91624" lon="0.11104">
        <ele>1995</ele>
        <time>2022-01-26T10:29:58.333Z</time>
      </trkpt>
      <trkpt lat="42.91627" lon="0.11104">
        <ele>2016</ele>
        <time>2022-01-26T10:30:03.310Z</time>
      </trkpt>
      <trkpt lat="42.9163" lon="0.11105">
        <ele>2016</ele>
        <time>2022-01-26T10:30:07.311Z</time>
      </trkpt>
      <trkpt lat="42.91633" lon="0.11106">
        <ele>2016</ele>
        <time>2022-01-26T10:30:12.311Z</time>
      </trkpt>
      <trkpt lat="42.91635" lon="0.11105">
        <ele>2016</ele>
        <time>2022-01-26T10:30:17.308Z</time>
      </trkpt>
      <trkpt lat="42.91638" lon="0.11101">
        <ele>2016</ele>
        <time>2022-01-26T10:30:47.309Z</time>
      </trkpt>
      <trkpt lat="42.91637" lon="0.11098">
        <ele>2016</ele>
        <time>2022-01-26T10:30:52.308Z</time>
      </trkpt>
      <trkpt lat="42.91637" lon="0.11094">
        <ele>2018</ele>
        <time>2022-01-26T10:30:57.310Z</time>
      </trkpt>
      <trkpt lat="42.91636" lon="0.11091">
        <ele>2018</ele>
        <time>2022-01-26T10:31:02.308Z</time>
      </trkpt>
      <trkpt lat="42.91636" lon="0.11088">
        <ele>2018</ele>
        <time>2022-01-26T10:31:06.309Z</time>
      </trkpt>
      <trkpt lat="42.91638" lon="0.11089">
        <ele>2018</ele>
        <time>2022-01-26T10:31:25.308Z</time>
      </trkpt>
      <trkpt lat="42.9164" lon="0.11089">
        <ele>2018</ele>
        <time>2022-01-26T10:31:30.311Z</time>
      </trkpt>
      <trkpt lat="42.91642" lon="0.1109">
        <ele>2018</ele>
        <time>2022-01-26T10:31:34.307Z</time>
      </trkpt>
      <trkpt lat="42.91645" lon="0.1109">
        <ele>2018</ele>
        <time>2022-01-26T10:31:39.305Z</time>
      </trkpt>
      <trkpt lat="42.91647" lon="0.11093">
        <ele>2018</ele>
        <time>2022-01-26T10:31:44.307Z</time>
      </trkpt>
      <trkpt lat="42.9165" lon="0.11093">
        <ele>2018</ele>
        <time>2022-01-26T10:32:04.307Z</time>
      </trkpt>
      <trkpt lat="42.9165" lon="0.11093">
        <ele>2018</ele>
        <time>2022-01-26T10:32:09.307Z</time>
      </trkpt>
      <trkpt lat="42.9165" lon="0.1109">
        <ele>2018</ele>
        <time>2022-01-26T10:32:14.312Z</time>
      </trkpt>
      <trkpt lat="42.91651" lon="0.11085">
        <ele>2018</ele>
        <time>2022-01-26T10:32:19.326Z</time>
      </trkpt>
      <trkpt lat="42.91651" lon="0.11081">
        <ele>2018</ele>
        <time>2022-01-26T10:32:24.308Z</time>
      </trkpt>
      <trkpt lat="42.91657" lon="0.11083">
        <ele>2029</ele>
        <time>2022-01-26T10:33:07.310Z</time>
      </trkpt>
      <trkpt lat="42.91658" lon="0.11082">
        <ele>2029</ele>
        <time>2022-01-26T10:33:12.306Z</time>
      </trkpt>
      <trkpt lat="42.91658" lon="0.11079">
        <ele>2029</ele>
        <time>2022-01-26T10:33:17.310Z</time>
      </trkpt>
      <trkpt lat="42.91658" lon="0.11075">
        <ele>2029</ele>
        <time>2022-01-26T10:33:22.313Z</time>
      </trkpt>
      <trkpt lat="42.91657" lon="0.11071">
        <ele>2029</ele>
        <time>2022-01-26T10:33:27.308Z</time>
      </trkpt>
      <trkpt lat="42.91658" lon="0.11072">
        <ele>2029</ele>
        <time>2022-01-26T10:33:46.310Z</time>
      </trkpt>
      <trkpt lat="42.9166" lon="0.11072">
        <ele>2029</ele>
        <time>2022-01-26T10:33:51.306Z</time>
      </trkpt>
      <trkpt lat="42.91663" lon="0.11074">
        <ele>2029</ele>
        <time>2022-01-26T10:33:56.311Z</time>
      </trkpt>
      <trkpt lat="42.91665" lon="0.11076">
        <ele>2029</ele>
        <time>2022-01-26T10:34:00.338Z</time>
      </trkpt>
      <trkpt lat="42.91666" lon="0.11079">
        <ele>2029</ele>
        <time>2022-01-26T10:34:05.308Z</time>
      </trkpt>
      <trkpt lat="42.91665" lon="0.11076">
        <ele>2029</ele>
        <time>2022-01-26T10:34:34.303Z</time>
      </trkpt>
      <trkpt lat="42.91665" lon="0.11074">
        <ele>2029</ele>
        <time>2022-01-26T10:34:39.305Z</time>
      </trkpt>
      <trkpt lat="42.91666" lon="0.1107">
        <ele>2029</ele>
        <time>2022-01-26T10:34:44.305Z</time>
      </trkpt>
      <trkpt lat="42.91665" lon="0.11067">
        <ele>2032</ele>
        <time>2022-01-26T10:34:48.321Z</time>
      </trkpt>
      <trkpt lat="42.91662" lon="0.11064">
        <ele>2032</ele>
        <time>2022-01-26T10:34:53.304Z</time>
      </trkpt>
      <trkpt lat="42.91664" lon="0.11067">
        <ele>2032</ele>
        <time>2022-01-26T10:35:08.308Z</time>
      </trkpt>
      <trkpt lat="42.91666" lon="0.11067">
        <ele>2032</ele>
        <time>2022-01-26T10:35:13.308Z</time>
      </trkpt>
      <trkpt lat="42.91669" lon="0.11069">
        <ele>2032</ele>
        <time>2022-01-26T10:35:18.309Z</time>
      </trkpt>
      <trkpt lat="42.9167" lon="0.11073">
        <ele>2029</ele>
        <time>2022-01-26T10:35:23.305Z</time>
      </trkpt>
      <trkpt lat="42.9167" lon="0.11076">
        <ele>2029</ele>
        <time>2022-01-26T10:35:27.310Z</time>
      </trkpt>
      <trkpt lat="42.91672" lon="0.11072">
        <ele>2029</ele>
        <time>2022-01-26T10:36:07.309Z</time>
      </trkpt>
      <trkpt lat="42.91673" lon="0.11072">
        <ele>2029</ele>
        <time>2022-01-26T10:36:12.309Z</time>
      </trkpt>
      <trkpt lat="42.91673" lon="0.11072">
        <ele>2029</ele>
        <time>2022-01-26T10:36:17.306Z</time>
      </trkpt>
      <trkpt lat="42.91674" lon="0.11069">
        <ele>2032</ele>
        <time>2022-01-26T10:36:21.333Z</time>
      </trkpt>
      <trkpt lat="42.91674" lon="0.11065">
        <ele>2032</ele>
        <time>2022-01-26T10:36:26.308Z</time>
      </trkpt>
      <trkpt lat="42.91675" lon="0.11057">
        <ele>2032</ele>
        <time>2022-01-26T10:39:12.306Z</time>
      </trkpt>
      <trkpt lat="42.91678" lon="0.11056">
        <ele>2032</ele>
        <time>2022-01-26T10:39:17.308Z</time>
      </trkpt>
      <trkpt lat="42.91681" lon="0.11057">
        <ele>2037</ele>
        <time>2022-01-26T10:39:22.313Z</time>
      </trkpt>
      <trkpt lat="42.91683" lon="0.1106">
        <ele>2037</ele>
        <time>2022-01-26T10:39:27.313Z</time>
      </trkpt>
      <trkpt lat="42.91685" lon="0.11061">
        <ele>2037</ele>
        <time>2022-01-26T10:39:31.312Z</time>
      </trkpt>
      <trkpt lat="42.91684" lon="0.11058">
        <ele>2037</ele>
        <time>2022-01-26T10:40:00.308Z</time>
      </trkpt>
      <trkpt lat="42.91685" lon="0.11055">
        <ele>2037</ele>
        <time>2022-01-26T10:40:05.304Z</time>
      </trkpt>
      <trkpt lat="42.91685" lon="0.1105">
        <ele>2037</ele>
        <time>2022-01-26T10:40:10.307Z</time>
      </trkpt>
      <trkpt lat="42.91684" lon="0.11048">
        <ele>2037</ele>
        <time>2022-01-26T10:40:15.319Z</time>
      </trkpt>
      <trkpt lat="42.91684" lon="0.11045">
        <ele>2037</ele>
        <time>2022-01-26T10:40:20.310Z</time>
      </trkpt>
      <trkpt lat="42.91688" lon="0.11048">
        <ele>2037</ele>
        <time>2022-01-26T10:40:57.350Z</time>
      </trkpt>
      <trkpt lat="42.91689" lon="0.11051">
        <ele>2037</ele>
        <time>2022-01-26T10:41:02.306Z</time>
      </trkpt>
      <trkpt lat="42.9169" lon="0.11053">
        <ele>2037</ele>
        <time>2022-01-26T10:41:06.374Z</time>
      </trkpt>
      <trkpt lat="42.9169" lon="0.11056">
        <ele>2037</ele>
        <time>2022-01-26T10:41:11.336Z</time>
      </trkpt>
      <trkpt lat="42.91689" lon="0.11057">
        <ele>2037</ele>
        <time>2022-01-26T10:41:15.337Z</time>
      </trkpt>
      <trkpt lat="42.91691" lon="0.11055">
        <ele>2037</ele>
        <time>2022-01-26T10:41:44.305Z</time>
      </trkpt>
      <trkpt lat="42.91692" lon="0.11052">
        <ele>2037</ele>
        <time>2022-01-26T10:41:49.308Z</time>
      </trkpt>
      <trkpt lat="42.91692" lon="0.11049">
        <ele>2037</ele>
        <time>2022-01-26T10:41:53.309Z</time>
      </trkpt>
      <trkpt lat="42.91692" lon="0.11046">
        <ele>2037</ele>
        <time>2022-01-26T10:41:58.310Z</time>
      </trkpt>
      <trkpt lat="42.91692" lon="0.11045">
        <ele>2037</ele>
        <time>2022-01-26T10:42:03.307Z</time>
      </trkpt>
      <trkpt lat="42.91695" lon="0.11047">
        <ele>2037</ele>
        <time>2022-01-26T10:42:41.306Z</time>
      </trkpt>
      <trkpt lat="42.91697" lon="0.1105">
        <ele>2037</ele>
        <time>2022-01-26T10:42:46.308Z</time>
      </trkpt>
      <trkpt lat="42.91697" lon="0.11053">
        <ele>2037</ele>
        <time>2022-01-26T10:42:51.313Z</time>
      </trkpt>
      <trkpt lat="42.91697" lon="0.11055">
        <ele>2037</ele>
        <time>2022-01-26T10:42:56.310Z</time>
      </trkpt>
      <trkpt lat="42.91698" lon="0.11058">
        <ele>2037</ele>
        <time>2022-01-26T10:43:01.309Z</time>
      </trkpt>
      <trkpt lat="42.91699" lon="0.11058">
        <ele>2037</ele>
        <time>2022-01-26T10:43:40.312Z</time>
      </trkpt>
      <trkpt lat="42.917" lon="0.11055">
        <ele>2037</ele>
        <time>2022-01-26T10:43:45.309Z</time>
      </trkpt>
      <trkpt lat="42.91702" lon="0.11052">
        <ele>2037</ele>
        <time>2022-01-26T10:43:50.303Z</time>
      </trkpt>
      <trkpt lat="42.91703" lon="0.11049">
        <ele>2037</ele>
        <time>2022-01-26T10:43:55.305Z</time>
      </trkpt>
      <trkpt lat="42.91704" lon="0.11047">
        <ele>2037</ele>
        <time>2022-01-26T10:44:00.308Z</time>
      </trkpt>
      <trkpt lat="42.91708" lon="0.11045">
        <ele>2037</ele>
        <time>2022-01-26T10:45:07.306Z</time>
      </trkpt>
      <trkpt lat="42.91708" lon="0.11046">
        <ele>2037</ele>
        <time>2022-01-26T10:45:12.306Z</time>
      </trkpt>
      <trkpt lat="42.91709" lon="0.1105">
        <ele>2051</ele>
        <time>2022-01-26T10:45:17.312Z</time>
      </trkpt>
      <trkpt lat="42.91709" lon="0.11053">
        <ele>2051</ele>
        <time>2022-01-26T10:45:22.306Z</time>
      </trkpt>
      <trkpt lat="42.91709" lon="0.11056">
        <ele>2051</ele>
        <time>2022-01-26T10:45:27.307Z</time>
      </trkpt>
      <trkpt lat="42.9171" lon="0.11052">
        <ele>2051</ele>
        <time>2022-01-26T10:46:15.334Z</time>
      </trkpt>
      <trkpt lat="42.91711" lon="0.11049">
        <ele>2051</ele>
        <time>2022-01-26T10:46:20.312Z</time>
      </trkpt>
      <trkpt lat="42.91713" lon="0.11047">
        <ele>2051</ele>
        <time>2022-01-26T10:46:25.311Z</time>
      </trkpt>
      <trkpt lat="42.91712" lon="0.11044">
        <ele>2051</ele>
        <time>2022-01-26T10:46:30.308Z</time>
      </trkpt>
      <trkpt lat="42.91712" lon="0.11043">
        <ele>2051</ele>
        <time>2022-01-26T10:46:35.304Z</time>
      </trkpt>
      <trkpt lat="42.9172" lon="0.11044">
        <ele>2051</ele>
        <time>2022-01-26T10:48:43.309Z</time>
      </trkpt>
      <trkpt lat="42.9172" lon="0.11041">
        <ele>2048</ele>
        <time>2022-01-26T10:48:48.311Z</time>
      </trkpt>
      <trkpt lat="42.91721" lon="0.11039">
        <ele>2048</ele>
        <time>2022-01-26T10:48:53.306Z</time>
      </trkpt>
      <trkpt lat="42.91722" lon="0.11036">
        <ele>2048</ele>
        <time>2022-01-26T10:48:58.307Z</time>
      </trkpt>
      <trkpt lat="42.91723" lon="0.11032">
        <ele>2048</ele>
        <time>2022-01-26T10:49:03.305Z</time>
      </trkpt>
      <trkpt lat="42.91729" lon="0.11034">
        <ele>2048</ele>
        <time>2022-01-26T10:50:54.306Z</time>
      </trkpt>
      <trkpt lat="42.91731" lon="0.11031">
        <ele>2048</ele>
        <time>2022-01-26T10:50:59.307Z</time>
      </trkpt>
      <trkpt lat="42.91732" lon="0.11029">
        <ele>2048</ele>
        <time>2022-01-26T10:51:03.306Z</time>
      </trkpt>
      <trkpt lat="42.91732" lon="0.11026">
        <ele>2048</ele>
        <time>2022-01-26T10:51:07.309Z</time>
      </trkpt>
      <trkpt lat="42.91733" lon="0.11023">
        <ele>2048</ele>
        <time>2022-01-26T10:51:12.307Z</time>
      </trkpt>
      <trkpt lat="42.91738" lon="0.11025">
        <ele>2060</ele>
        <time>2022-01-26T10:52:24.305Z</time>
      </trkpt>
      <trkpt lat="42.91739" lon="0.11022">
        <ele>2060</ele>
        <time>2022-01-26T10:52:29.309Z</time>
      </trkpt>
      <trkpt lat="42.9174" lon="0.11019">
        <ele>2060</ele>
        <time>2022-01-26T10:52:34.307Z</time>
      </trkpt>
      <trkpt lat="42.9174" lon="0.11016">
        <ele>2060</ele>
        <time>2022-01-26T10:52:38.332Z</time>
      </trkpt>
      <trkpt lat="42.91743" lon="0.11015">
        <ele>2060</ele>
        <time>2022-01-26T10:52:43.305Z</time>
      </trkpt>
      <trkpt lat="42.91746" lon="0.11017">
        <ele>2060</ele>
        <time>2022-01-26T10:53:44.308Z</time>
      </trkpt>
      <trkpt lat="42.91747" lon="0.11014">
        <ele>2060</ele>
        <time>2022-01-26T10:53:49.305Z</time>
      </trkpt>
      <trkpt lat="42.91748" lon="0.11011">
        <ele>2068</ele>
        <time>2022-01-26T10:53:54.308Z</time>
      </trkpt>
      <trkpt lat="42.91749" lon="0.11007">
        <ele>2068</ele>
        <time>2022-01-26T10:53:59.310Z</time>
      </trkpt>
      <trkpt lat="42.9175" lon="0.11004">
        <ele>2068</ele>
        <time>2022-01-26T10:54:04.308Z</time>
      </trkpt>
      <trkpt lat="42.91754" lon="0.10997">
        <ele>2068</ele>
        <time>2022-01-26T10:56:56.305Z</time>
      </trkpt>
      <trkpt lat="42.91754" lon="0.10996">
        <ele>2068</ele>
        <time>2022-01-26T10:57:01.305Z</time>
      </trkpt>
      <trkpt lat="42.91755" lon="0.10994">
        <ele>2068</ele>
        <time>2022-01-26T10:57:06.307Z</time>
      </trkpt>
      <trkpt lat="42.91756" lon="0.10991">
        <ele>2068</ele>
        <time>2022-01-26T10:57:11.306Z</time>
      </trkpt>
      <trkpt lat="42.91758" lon="0.10989">
        <ele>2068</ele>
        <time>2022-01-26T10:57:16.311Z</time>
      </trkpt>
      <trkpt lat="42.91761" lon="0.10988">
        <ele>2068</ele>
        <time>2022-01-26T10:57:21.307Z</time>
      </trkpt>
      <trkpt lat="42.91762" lon="0.10985">
        <ele>2075</ele>
        <time>2022-01-26T10:57:26.311Z</time>
      </trkpt>
      <trkpt lat="42.91762" lon="0.10981">
        <ele>2075</ele>
        <time>2022-01-26T10:57:31.308Z</time>
      </trkpt>
      <trkpt lat="42.91764" lon="0.10978">
        <ele>2075</ele>
        <time>2022-01-26T10:57:36.334Z</time>
      </trkpt>
      <trkpt lat="42.91767" lon="0.10977">
        <ele>2085</ele>
        <time>2022-01-26T10:57:41.306Z</time>
      </trkpt>
      <trkpt lat="42.91769" lon="0.10972">
        <ele>2085</ele>
        <time>2022-01-26T10:58:33.315Z</time>
      </trkpt>
      <trkpt lat="42.9177" lon="0.10971">
        <ele>2085</ele>
        <time>2022-01-26T10:58:37.313Z</time>
      </trkpt>
      <trkpt lat="42.91771" lon="0.10968">
        <ele>2085</ele>
        <time>2022-01-26T10:58:42.314Z</time>
      </trkpt>
      <trkpt lat="42.91772" lon="0.10966">
        <ele>2085</ele>
        <time>2022-01-26T10:58:46.312Z</time>
      </trkpt>
      <trkpt lat="42.91775" lon="0.10963">
        <ele>2085</ele>
        <time>2022-01-26T10:58:51.335Z</time>
      </trkpt>
      <trkpt lat="42.91777" lon="0.10962">
        <ele>2085</ele>
        <time>2022-01-26T10:58:56.314Z</time>
      </trkpt>
      <trkpt lat="42.91778" lon="0.10959">
        <ele>2085</ele>
        <time>2022-01-26T10:59:01.312Z</time>
      </trkpt>
      <trkpt lat="42.91779" lon="0.10956">
        <ele>2093</ele>
        <time>2022-01-26T10:59:05.322Z</time>
      </trkpt>
      <trkpt lat="42.91779" lon="0.10952">
        <ele>2093</ele>
        <time>2022-01-26T10:59:10.313Z</time>
      </trkpt>
      <trkpt lat="42.9178" lon="0.10949">
        <ele>2093</ele>
        <time>2022-01-26T10:59:15.313Z</time>
      </trkpt>
      <trkpt lat="42.91784" lon="0.10948">
        <ele>2093</ele>
        <time>2022-01-26T10:59:45.328Z</time>
      </trkpt>
      <trkpt lat="42.91786" lon="0.10949">
        <ele>2093</ele>
        <time>2022-01-26T10:59:50.316Z</time>
      </trkpt>
      <trkpt lat="42.91787" lon="0.10951">
        <ele>2093</ele>
        <time>2022-01-26T10:59:55.313Z</time>
      </trkpt>
      <trkpt lat="42.91788" lon="0.10954">
        <ele>2093</ele>
        <time>2022-01-26T11:00:00.316Z</time>
      </trkpt>
      <trkpt lat="42.91789" lon="0.10956">
        <ele>2093</ele>
        <time>2022-01-26T11:00:04.334Z</time>
      </trkpt>
      <trkpt lat="42.91793" lon="0.10961">
        <ele>2103</ele>
        <time>2022-01-26T11:01:03.312Z</time>
      </trkpt>
      <trkpt lat="42.91794" lon="0.10957">
        <ele>2100</ele>
        <time>2022-01-26T11:01:08.313Z</time>
      </trkpt>
      <trkpt lat="42.91795" lon="0.10954">
        <ele>2100</ele>
        <time>2022-01-26T11:01:13.308Z</time>
      </trkpt>
      <trkpt lat="42.91796" lon="0.1095">
        <ele>2100</ele>
        <time>2022-01-26T11:01:18.312Z</time>
      </trkpt>
      <trkpt lat="42.91798" lon="0.10947">
        <ele>2100</ele>
        <time>2022-01-26T11:01:23.312Z</time>
      </trkpt>
      <trkpt lat="42.91801" lon="0.10934">
        <ele>2100</ele>
        <time>2022-01-26T11:01:47.312Z</time>
      </trkpt>
      <trkpt lat="42.91801" lon="0.10933">
        <ele>2100</ele>
        <time>2022-01-26T11:01:52.316Z</time>
      </trkpt>
      <trkpt lat="42.91801" lon="0.10933">
        <ele>2100</ele>
        <time>2022-01-26T11:01:56.311Z</time>
      </trkpt>
      <trkpt lat="42.91801" lon="0.10933">
        <ele>2100</ele>
        <time>2022-01-26T11:02:01.312Z</time>
      </trkpt>
      <trkpt lat="42.91802" lon="0.1093">
        <ele>2105</ele>
        <time>2022-01-26T11:02:06.318Z</time>
      </trkpt>
      <trkpt lat="42.91804" lon="0.10925">
        <ele>2105</ele>
        <time>2022-01-26T11:02:16.312Z</time>
      </trkpt>
      <trkpt lat="42.91805" lon="0.10923">
        <ele>2105</ele>
        <time>2022-01-26T11:02:20.336Z</time>
      </trkpt>
      <trkpt lat="42.91808" lon="0.10923">
        <ele>2105</ele>
        <time>2022-01-26T11:02:25.312Z</time>
      </trkpt>
      <trkpt lat="42.91809" lon="0.1092">
        <ele>2105</ele>
        <time>2022-01-26T11:02:30.313Z</time>
      </trkpt>
      <trkpt lat="42.91809" lon="0.10917">
        <ele>2105</ele>
        <time>2022-01-26T11:02:35.312Z</time>
      </trkpt>
      <trkpt lat="42.91809" lon="0.10916">
        <ele>2105</ele>
        <time>2022-01-26T11:03:00.307Z</time>
      </trkpt>
      <trkpt lat="42.9181" lon="0.10914">
        <ele>2105</ele>
        <time>2022-01-26T11:03:05.307Z</time>
      </trkpt>
      <trkpt lat="42.91811" lon="0.10911">
        <ele>2105</ele>
        <time>2022-01-26T11:03:10.308Z</time>
      </trkpt>
      <trkpt lat="42.91812" lon="0.10907">
        <ele>2105</ele>
        <time>2022-01-26T11:03:15.308Z</time>
      </trkpt>
      <trkpt lat="42.91814" lon="0.10904">
        <ele>2105</ele>
        <time>2022-01-26T11:03:20.308Z</time>
      </trkpt>
      <trkpt lat="42.91816" lon="0.10898">
        <ele>2110</ele>
        <time>2022-01-26T11:03:39.306Z</time>
      </trkpt>
      <trkpt lat="42.91816" lon="0.10898">
        <ele>2110</ele>
        <time>2022-01-26T11:03:44.309Z</time>
      </trkpt>
      <trkpt lat="42.91817" lon="0.10895">
        <ele>2110</ele>
        <time>2022-01-26T11:03:49.308Z</time>
      </trkpt>
      <trkpt lat="42.91818" lon="0.10892">
        <ele>2110</ele>
        <time>2022-01-26T11:03:54.306Z</time>
      </trkpt>
      <trkpt lat="42.91819" lon="0.10889">
        <ele>2118</ele>
        <time>2022-01-26T11:03:58.307Z</time>
      </trkpt>
      <trkpt lat="42.91824" lon="0.10874">
        <ele>2120</ele>
        <time>2022-01-26T11:07:01.301Z</time>
      </trkpt>
      <trkpt lat="42.91824" lon="0.10874">
        <ele>2120</ele>
        <time>2022-01-26T11:07:05.305Z</time>
      </trkpt>
      <trkpt lat="42.91825" lon="0.10872">
        <ele>2120</ele>
        <time>2022-01-26T11:07:09.327Z</time>
      </trkpt>
      <trkpt lat="42.91826" lon="0.1087">
        <ele>2120</ele>
        <time>2022-01-26T11:07:14.307Z</time>
      </trkpt>
      <trkpt lat="42.91828" lon="0.10868">
        <ele>2120</ele>
        <time>2022-01-26T11:07:18.307Z</time>
      </trkpt>
      <trkpt lat="42.9183" lon="0.10865">
        <ele>2120</ele>
        <time>2022-01-26T11:07:23.305Z</time>
      </trkpt>
      <trkpt lat="42.91832" lon="0.10862">
        <ele>2120</ele>
        <time>2022-01-26T11:07:28.321Z</time>
      </trkpt>
      <trkpt lat="42.91834" lon="0.10859">
        <ele>2120</ele>
        <time>2022-01-26T11:07:33.310Z</time>
      </trkpt>
      <trkpt lat="42.91836" lon="0.10856">
        <ele>2120</ele>
        <time>2022-01-26T11:07:38.328Z</time>
      </trkpt>
      <trkpt lat="42.91843" lon="0.10847">
        <ele>2120</ele>
        <time>2022-01-26T11:07:58.307Z</time>
      </trkpt>
      <trkpt lat="42.91843" lon="0.10847">
        <ele>2123</ele>
        <time>2022-01-26T11:08:03.310Z</time>
      </trkpt>
      <trkpt lat="42.91843" lon="0.10847">
        <ele>2123</ele>
        <time>2022-01-26T11:08:07.306Z</time>
      </trkpt>
      <trkpt lat="42.91843" lon="0.10847">
        <ele>2123</ele>
        <time>2022-01-26T11:08:12.307Z</time>
      </trkpt>
      <trkpt lat="42.91845" lon="0.10845">
        <ele>2123</ele>
        <time>2022-01-26T11:08:17.305Z</time>
      </trkpt>
      <trkpt lat="42.91847" lon="0.10842">
        <ele>2123</ele>
        <time>2022-01-26T11:08:22.309Z</time>
      </trkpt>
      <trkpt lat="42.91849" lon="0.10841">
        <ele>2119</ele>
        <time>2022-01-26T11:08:27.308Z</time>
      </trkpt>
      <trkpt lat="42.9185" lon="0.10839">
        <ele>2119</ele>
        <time>2022-01-26T11:08:31.332Z</time>
      </trkpt>
      <trkpt lat="42.91852" lon="0.10836">
        <ele>2119</ele>
        <time>2022-01-26T11:08:36.305Z</time>
      </trkpt>
      <trkpt lat="42.91854" lon="0.10834">
        <ele>2119</ele>
        <time>2022-01-26T11:08:41.312Z</time>
      </trkpt>
      <trkpt lat="42.91857" lon="0.1083">
        <ele>2119</ele>
        <time>2022-01-26T11:08:46.308Z</time>
      </trkpt>
      <trkpt lat="42.91859" lon="0.10826">
        <ele>2119</ele>
        <time>2022-01-26T11:08:51.305Z</time>
      </trkpt>
      <trkpt lat="42.91861" lon="0.10823">
        <ele>2119</ele>
        <time>2022-01-26T11:08:56.307Z</time>
      </trkpt>
      <trkpt lat="42.91862" lon="0.10821">
        <ele>2119</ele>
        <time>2022-01-26T11:09:00.305Z</time>
      </trkpt>
      <trkpt lat="42.91865" lon="0.10817">
        <ele>2119</ele>
        <time>2022-01-26T11:09:05.305Z</time>
      </trkpt>
      <trkpt lat="42.91867" lon="0.10813">
        <ele>2119</ele>
        <time>2022-01-26T11:09:39.308Z</time>
      </trkpt>
      <trkpt lat="42.91868" lon="0.10812">
        <ele>2119</ele>
        <time>2022-01-26T11:09:44.307Z</time>
      </trkpt>
      <trkpt lat="42.9187" lon="0.1081">
        <ele>2119</ele>
        <time>2022-01-26T11:09:48.306Z</time>
      </trkpt>
      <trkpt lat="42.91872" lon="0.10808">
        <ele>2119</ele>
        <time>2022-01-26T11:09:53.306Z</time>
      </trkpt>
      <trkpt lat="42.91873" lon="0.10805">
        <ele>2119</ele>
        <time>2022-01-26T11:09:58.307Z</time>
      </trkpt>
      <trkpt lat="42.91876" lon="0.10803">
        <ele>2126</ele>
        <time>2022-01-26T11:10:03.312Z</time>
      </trkpt>
      <trkpt lat="42.91879" lon="0.108">
        <ele>2126</ele>
        <time>2022-01-26T11:10:08.306Z</time>
      </trkpt>
      <trkpt lat="42.91881" lon="0.10797">
        <ele>2126</ele>
        <time>2022-01-26T11:10:13.310Z</time>
      </trkpt>
      <trkpt lat="42.91884" lon="0.10793">
        <ele>2126</ele>
        <time>2022-01-26T11:10:18.330Z</time>
      </trkpt>
      <trkpt lat="42.9189" lon="0.10788">
        <ele>2131</ele>
        <time>2022-01-26T11:10:38.308Z</time>
      </trkpt>
      <trkpt lat="42.9189" lon="0.10788">
        <ele>2131</ele>
        <time>2022-01-26T11:10:43.305Z</time>
      </trkpt>
      <trkpt lat="42.9189" lon="0.10788">
        <ele>2131</ele>
        <time>2022-01-26T11:10:48.309Z</time>
      </trkpt>
      <trkpt lat="42.91892" lon="0.10786">
        <ele>2131</ele>
        <time>2022-01-26T11:10:53.304Z</time>
      </trkpt>
      <trkpt lat="42.91895" lon="0.10786">
        <ele>2131</ele>
        <time>2022-01-26T11:10:58.305Z</time>
      </trkpt>
      <trkpt lat="42.91906" lon="0.10782">
        <ele>2133</ele>
        <time>2022-01-26T11:11:38.311Z</time>
      </trkpt>
      <trkpt lat="42.91907" lon="0.10783">
        <ele>2133</ele>
        <time>2022-01-26T11:11:43.309Z</time>
      </trkpt>
      <trkpt lat="42.91909" lon="0.10781">
        <ele>2133</ele>
        <time>2022-01-26T11:11:48.304Z</time>
      </trkpt>
      <trkpt lat="42.9191" lon="0.10778">
        <ele>2133</ele>
        <time>2022-01-26T11:11:53.306Z</time>
      </trkpt>
      <trkpt lat="42.91913" lon="0.10777">
        <ele>2133</ele>
        <time>2022-01-26T11:11:58.309Z</time>
      </trkpt>
      <trkpt lat="42.91921" lon="0.10771">
        <ele>2133</ele>
        <time>2022-01-26T11:12:42.333Z</time>
      </trkpt>
      <trkpt lat="42.91921" lon="0.10771">
        <ele>2133</ele>
        <time>2022-01-26T11:12:47.307Z</time>
      </trkpt>
      <trkpt lat="42.91924" lon="0.10771">
        <ele>2133</ele>
        <time>2022-01-26T11:12:52.323Z</time>
      </trkpt>
      <trkpt lat="42.91926" lon="0.10769">
        <ele>2133</ele>
        <time>2022-01-26T11:12:57.307Z</time>
      </trkpt>
      <trkpt lat="42.91928" lon="0.10767">
        <ele>2133</ele>
        <time>2022-01-26T11:13:02.308Z</time>
      </trkpt>
      <trkpt lat="42.91937" lon="0.10762">
        <ele>2138</ele>
        <time>2022-01-26T11:13:40.307Z</time>
      </trkpt>
      <trkpt lat="42.91938" lon="0.10762">
        <ele>2138</ele>
        <time>2022-01-26T11:13:44.328Z</time>
      </trkpt>
      <trkpt lat="42.9194" lon="0.10762">
        <ele>2138</ele>
        <time>2022-01-26T11:13:49.306Z</time>
      </trkpt>
      <trkpt lat="42.91943" lon="0.1076">
        <ele>2138</ele>
        <time>2022-01-26T11:13:54.307Z</time>
      </trkpt>
      <trkpt lat="42.91945" lon="0.10762">
        <ele>2138</ele>
        <time>2022-01-26T11:13:59.305Z</time>
      </trkpt>
      <trkpt lat="42.91951" lon="0.10757">
        <ele>2138</ele>
        <time>2022-01-26T11:14:24.312Z</time>
      </trkpt>
      <trkpt lat="42.91951" lon="0.10757">
        <ele>2138</ele>
        <time>2022-01-26T11:14:28.313Z</time>
      </trkpt>
      <trkpt lat="42.91951" lon="0.10757">
        <ele>2138</ele>
        <time>2022-01-26T11:14:33.311Z</time>
      </trkpt>
      <trkpt lat="42.91954" lon="0.10757">
        <ele>2138</ele>
        <time>2022-01-26T11:14:38.307Z</time>
      </trkpt>
      <trkpt lat="42.91956" lon="0.10756">
        <ele>2138</ele>
        <time>2022-01-26T11:14:43.308Z</time>
      </trkpt>
      <trkpt lat="42.91958" lon="0.10754">
        <ele>2138</ele>
        <time>2022-01-26T11:14:48.307Z</time>
      </trkpt>
      <trkpt lat="42.91961" lon="0.10753">
        <ele>2138</ele>
        <time>2022-01-26T11:14:52.331Z</time>
      </trkpt>
      <trkpt lat="42.91965" lon="0.10753">
        <ele>2138</ele>
        <time>2022-01-26T11:14:57.311Z</time>
      </trkpt>
      <trkpt lat="42.91967" lon="0.10754">
        <ele>2138</ele>
        <time>2022-01-26T11:15:02.308Z</time>
      </trkpt>
      <trkpt lat="42.91968" lon="0.10754">
        <ele>2138</ele>
        <time>2022-01-26T11:15:07.304Z</time>
      </trkpt>
      <trkpt lat="42.91975" lon="0.10749">
        <ele>2138</ele>
        <time>2022-01-26T11:40:03.302Z</time>
      </trkpt>
      <trkpt lat="42.91975" lon="0.10747">
        <ele>2138</ele>
        <time>2022-01-26T11:40:08.302Z</time>
      </trkpt>
      <trkpt lat="42.91975" lon="0.10743">
        <ele>2138</ele>
        <time>2022-01-26T11:40:12.333Z</time>
      </trkpt>
      <trkpt lat="42.91976" lon="0.1074">
        <ele>2138</ele>
        <time>2022-01-26T11:40:17.305Z</time>
      </trkpt>
      <trkpt lat="42.91977" lon="0.10738">
        <ele>2138</ele>
        <time>2022-01-26T11:40:22.303Z</time>
      </trkpt>
      <trkpt lat="42.91978" lon="0.10736">
        <ele>2142</ele>
        <time>2022-01-26T11:40:26.304Z</time>
      </trkpt>
      <trkpt lat="42.91979" lon="0.10734">
        <ele>2142</ele>
        <time>2022-01-26T11:40:30.331Z</time>
      </trkpt>
      <trkpt lat="42.9198" lon="0.10731">
        <ele>2142</ele>
        <time>2022-01-26T11:40:35.308Z</time>
      </trkpt>
      <trkpt lat="42.9198" lon="0.10728">
        <ele>2142</ele>
        <time>2022-01-26T11:40:40.305Z</time>
      </trkpt>
      <trkpt lat="42.91981" lon="0.10724">
        <ele>2142</ele>
        <time>2022-01-26T11:40:45.304Z</time>
      </trkpt>
      <trkpt lat="42.91981" lon="0.1072">
        <ele>2142</ele>
        <time>2022-01-26T11:40:50.306Z</time>
      </trkpt>
      <trkpt lat="42.91982" lon="0.10716">
        <ele>2142</ele>
        <time>2022-01-26T11:40:54.306Z</time>
      </trkpt>
      <trkpt lat="42.91983" lon="0.10712">
        <ele>2142</ele>
        <time>2022-01-26T11:40:59.307Z</time>
      </trkpt>
      <trkpt lat="42.91983" lon="0.10707">
        <ele>2147</ele>
        <time>2022-01-26T11:41:04.311Z</time>
      </trkpt>
      <trkpt lat="42.91984" lon="0.10702">
        <ele>2147</ele>
        <time>2022-01-26T11:41:09.305Z</time>
      </trkpt>
      <trkpt lat="42.91985" lon="0.10698">
        <ele>2147</ele>
        <time>2022-01-26T11:41:14.305Z</time>
      </trkpt>
      <trkpt lat="42.91986" lon="0.10694">
        <ele>2147</ele>
        <time>2022-01-26T11:41:18.302Z</time>
      </trkpt>
      <trkpt lat="42.91986" lon="0.10689">
        <ele>2147</ele>
        <time>2022-01-26T11:41:23.304Z</time>
      </trkpt>
      <trkpt lat="42.91986" lon="0.10685">
        <ele>2145</ele>
        <time>2022-01-26T11:41:28.306Z</time>
      </trkpt>
      <trkpt lat="42.91985" lon="0.10681">
        <ele>2147</ele>
        <time>2022-01-26T11:41:33.303Z</time>
      </trkpt>
      <trkpt lat="42.91987" lon="0.10679">
        <ele>2153</ele>
        <time>2022-01-26T11:41:38.303Z</time>
      </trkpt>
      <trkpt lat="42.91989" lon="0.10675">
        <ele>2153</ele>
        <time>2022-01-26T11:41:43.304Z</time>
      </trkpt>
      <trkpt lat="42.9199" lon="0.10672">
        <ele>2153</ele>
        <time>2022-01-26T11:41:47.300Z</time>
      </trkpt>
      <trkpt lat="42.91992" lon="0.10664">
        <ele>2153</ele>
        <time>2022-01-26T11:41:57.309Z</time>
      </trkpt>
      <trkpt lat="42.91993" lon="0.10661">
        <ele>2153</ele>
        <time>2022-01-26T11:42:02.305Z</time>
      </trkpt>
      <trkpt lat="42.91993" lon="0.10658">
        <ele>2153</ele>
        <time>2022-01-26T11:42:07.307Z</time>
      </trkpt>
      <trkpt lat="42.91995" lon="0.10656">
        <ele>2153</ele>
        <time>2022-01-26T11:42:12.301Z</time>
      </trkpt>
      <trkpt lat="42.91996" lon="0.10654">
        <ele>2153</ele>
        <time>2022-01-26T11:42:16.327Z</time>
      </trkpt>
      <trkpt lat="42.91999" lon="0.10649">
        <ele>2161</ele>
        <time>2022-01-26T11:42:26.306Z</time>
      </trkpt>
      <trkpt lat="42.92001" lon="0.10647">
        <ele>2161</ele>
        <time>2022-01-26T11:42:31.306Z</time>
      </trkpt>
      <trkpt lat="42.92002" lon="0.10645">
        <ele>2161</ele>
        <time>2022-01-26T11:42:36.308Z</time>
      </trkpt>
      <trkpt lat="42.92004" lon="0.10643">
        <ele>2161</ele>
        <time>2022-01-26T11:42:41.309Z</time>
      </trkpt>
      <trkpt lat="42.92006" lon="0.1064">
        <ele>2161</ele>
        <time>2022-01-26T11:42:46.309Z</time>
      </trkpt>
      <trkpt lat="42.9201" lon="0.10634">
        <ele>2161</ele>
        <time>2022-01-26T11:43:16.301Z</time>
      </trkpt>
      <trkpt lat="42.92011" lon="0.10631">
        <ele>2161</ele>
        <time>2022-01-26T11:43:21.305Z</time>
      </trkpt>
      <trkpt lat="42.92013" lon="0.10629">
        <ele>2161</ele>
        <time>2022-01-26T11:43:25.302Z</time>
      </trkpt>
      <trkpt lat="42.92013" lon="0.10625">
        <ele>2161</ele>
        <time>2022-01-26T11:43:30.299Z</time>
      </trkpt>
      <trkpt lat="42.92016" lon="0.10622">
        <ele>2162</ele>
        <time>2022-01-26T11:43:35.305Z</time>
      </trkpt>
      <trkpt lat="42.92023" lon="0.10616">
        <ele>2162</ele>
        <time>2022-01-26T11:44:33.302Z</time>
      </trkpt>
      <trkpt lat="42.92023" lon="0.10615">
        <ele>2162</ele>
        <time>2022-01-26T11:44:38.305Z</time>
      </trkpt>
      <trkpt lat="42.92026" lon="0.10611">
        <ele>2162</ele>
        <time>2022-01-26T11:44:43.307Z</time>
      </trkpt>
      <trkpt lat="42.92028" lon="0.10608">
        <ele>2162</ele>
        <time>2022-01-26T11:44:48.307Z</time>
      </trkpt>
      <trkpt lat="42.92027" lon="0.10607">
        <ele>2162</ele>
        <time>2022-01-26T11:44:53.303Z</time>
      </trkpt>
      <trkpt lat="42.92027" lon="0.10605">
        <ele>2162</ele>
        <time>2022-01-26T11:45:07.304Z</time>
      </trkpt>
      <trkpt lat="42.92029" lon="0.10602">
        <ele>2162</ele>
        <time>2022-01-26T11:45:12.304Z</time>
      </trkpt>
      <trkpt lat="42.92029" lon="0.106">
        <ele>2162</ele>
        <time>2022-01-26T11:45:17.307Z</time>
      </trkpt>
      <trkpt lat="42.9203" lon="0.10597">
        <ele>2162</ele>
        <time>2022-01-26T11:45:21.306Z</time>
      </trkpt>
      <trkpt lat="42.92031" lon="0.10592">
        <ele>2162</ele>
        <time>2022-01-26T11:45:26.300Z</time>
      </trkpt>
      <trkpt lat="42.92031" lon="0.10589">
        <ele>2162</ele>
        <time>2022-01-26T11:45:40.302Z</time>
      </trkpt>
      <trkpt lat="42.92032" lon="0.10587">
        <ele>2162</ele>
        <time>2022-01-26T11:45:45.304Z</time>
      </trkpt>
      <trkpt lat="42.92034" lon="0.10583">
        <ele>2162</ele>
        <time>2022-01-26T11:45:50.307Z</time>
      </trkpt>
      <trkpt lat="42.92035" lon="0.10579">
        <ele>2162</ele>
        <time>2022-01-26T11:45:55.307Z</time>
      </trkpt>
      <trkpt lat="42.92037" lon="0.10575">
        <ele>2162</ele>
        <time>2022-01-26T11:46:00.303Z</time>
      </trkpt>
      <trkpt lat="42.92039" lon="0.10572">
        <ele>2162</ele>
        <time>2022-01-26T11:46:05.303Z</time>
      </trkpt>
      <trkpt lat="42.92041" lon="0.10568">
        <ele>2163</ele>
        <time>2022-01-26T11:46:10.306Z</time>
      </trkpt>
      <trkpt lat="42.92043" lon="0.10564">
        <ele>2165</ele>
        <time>2022-01-26T11:46:15.306Z</time>
      </trkpt>
      <trkpt lat="42.92046" lon="0.1056">
        <ele>2165</ele>
        <time>2022-01-26T11:46:20.304Z</time>
      </trkpt>
      <trkpt lat="42.9205" lon="0.10554">
        <ele>2165</ele>
        <time>2022-01-26T11:46:30.301Z</time>
      </trkpt>
      <trkpt lat="42.9205" lon="0.10554">
        <ele>2165</ele>
        <time>2022-01-26T11:46:35.298Z</time>
      </trkpt>
      <trkpt lat="42.92051" lon="0.10551">
        <ele>2165</ele>
        <time>2022-01-26T11:46:40.303Z</time>
      </trkpt>
      <trkpt lat="42.92052" lon="0.10546">
        <ele>2165</ele>
        <time>2022-01-26T11:46:45.307Z</time>
      </trkpt>
      <trkpt lat="42.92054" lon="0.10543">
        <ele>2165</ele>
        <time>2022-01-26T11:46:50.300Z</time>
      </trkpt>
      <trkpt lat="42.92055" lon="0.10538">
        <ele>2172</ele>
        <time>2022-01-26T11:46:55.302Z</time>
      </trkpt>
      <trkpt lat="42.92056" lon="0.10534">
        <ele>2172</ele>
        <time>2022-01-26T11:47:00.305Z</time>
      </trkpt>
      <trkpt lat="42.92057" lon="0.1053">
        <ele>2172</ele>
        <time>2022-01-26T11:47:05.309Z</time>
      </trkpt>
      <trkpt lat="42.92058" lon="0.10528">
        <ele>2172</ele>
        <time>2022-01-26T11:47:09.309Z</time>
      </trkpt>
      <trkpt lat="42.92059" lon="0.10524">
        <ele>2172</ele>
        <time>2022-01-26T11:47:14.309Z</time>
      </trkpt>
      <trkpt lat="42.9206" lon="0.10522">
        <ele>2172</ele>
        <time>2022-01-26T11:47:29.308Z</time>
      </trkpt>
      <trkpt lat="42.9206" lon="0.1052">
        <ele>2172</ele>
        <time>2022-01-26T11:47:34.308Z</time>
      </trkpt>
      <trkpt lat="42.92061" lon="0.10517">
        <ele>2172</ele>
        <time>2022-01-26T11:47:39.312Z</time>
      </trkpt>
      <trkpt lat="42.92061" lon="0.10513">
        <ele>2177</ele>
        <time>2022-01-26T11:47:44.307Z</time>
      </trkpt>
      <trkpt lat="42.92062" lon="0.10509">
        <ele>2177</ele>
        <time>2022-01-26T11:47:49.304Z</time>
      </trkpt>
      <trkpt lat="42.92062" lon="0.10506">
        <ele>2177</ele>
        <time>2022-01-26T11:47:54.303Z</time>
      </trkpt>
      <trkpt lat="42.92063" lon="0.10501">
        <ele>2177</ele>
        <time>2022-01-26T11:47:59.309Z</time>
      </trkpt>
      <trkpt lat="42.92063" lon="0.10497">
        <ele>2177</ele>
        <time>2022-01-26T11:48:04.305Z</time>
      </trkpt>
      <trkpt lat="42.92063" lon="0.10492">
        <ele>2177</ele>
        <time>2022-01-26T11:48:09.306Z</time>
      </trkpt>
      <trkpt lat="42.92064" lon="0.10489">
        <ele>2177</ele>
        <time>2022-01-26T11:48:34.301Z</time>
      </trkpt>
      <trkpt lat="42.92063" lon="0.10487">
        <ele>2177</ele>
        <time>2022-01-26T11:48:39.302Z</time>
      </trkpt>
      <trkpt lat="42.92063" lon="0.10484">
        <ele>2179</ele>
        <time>2022-01-26T11:48:44.306Z</time>
      </trkpt>
      <trkpt lat="42.92063" lon="0.10481">
        <ele>2179</ele>
        <time>2022-01-26T11:48:49.302Z</time>
      </trkpt>
      <trkpt lat="42.92063" lon="0.10478">
        <ele>2179</ele>
        <time>2022-01-26T11:48:54.302Z</time>
      </trkpt>
      <trkpt lat="42.92063" lon="0.10475">
        <ele>2179</ele>
        <time>2022-01-26T11:48:59.303Z</time>
      </trkpt>
      <trkpt lat="42.92063" lon="0.10472">
        <ele>2179</ele>
        <time>2022-01-26T11:49:04.304Z</time>
      </trkpt>
      <trkpt lat="42.92063" lon="0.10468">
        <ele>2179</ele>
        <time>2022-01-26T11:49:09.300Z</time>
      </trkpt>
      <trkpt lat="42.92064" lon="0.10465">
        <ele>2179</ele>
        <time>2022-01-26T11:49:14.307Z</time>
      </trkpt>
      <trkpt lat="42.92066" lon="0.10462">
        <ele>2179</ele>
        <time>2022-01-26T11:49:18.334Z</time>
      </trkpt>
      <trkpt lat="42.92069" lon="0.10453">
        <ele>2181</ele>
        <time>2022-01-26T11:49:48.302Z</time>
      </trkpt>
      <trkpt lat="42.92069" lon="0.10452">
        <ele>2181</ele>
        <time>2022-01-26T11:49:52.327Z</time>
      </trkpt>
      <trkpt lat="42.9207" lon="0.10449">
        <ele>2194</ele>
        <time>2022-01-26T11:49:57.305Z</time>
      </trkpt>
      <trkpt lat="42.92072" lon="0.10446">
        <ele>2194</ele>
        <time>2022-01-26T11:50:02.305Z</time>
      </trkpt>
      <trkpt lat="42.92074" lon="0.10444">
        <ele>2194</ele>
        <time>2022-01-26T11:50:07.306Z</time>
      </trkpt>
      <trkpt lat="42.92075" lon="0.10441">
        <ele>2194</ele>
        <time>2022-01-26T11:50:12.302Z</time>
      </trkpt>
      <trkpt lat="42.92076" lon="0.10437">
        <ele>2194</ele>
        <time>2022-01-26T11:50:16.329Z</time>
      </trkpt>
      <trkpt lat="42.92078" lon="0.10434">
        <ele>2194</ele>
        <time>2022-01-26T11:50:21.304Z</time>
      </trkpt>
      <trkpt lat="42.9208" lon="0.1043">
        <ele>2196</ele>
        <time>2022-01-26T11:50:26.303Z</time>
      </trkpt>
      <trkpt lat="42.92081" lon="0.10427">
        <ele>2196</ele>
        <time>2022-01-26T11:50:31.306Z</time>
      </trkpt>
      <trkpt lat="42.92083" lon="0.10424">
        <ele>2196</ele>
        <time>2022-01-26T11:50:36.301Z</time>
      </trkpt>
      <trkpt lat="42.92084" lon="0.10421">
        <ele>2196</ele>
        <time>2022-01-26T11:50:41.304Z</time>
      </trkpt>
      <trkpt lat="42.92085" lon="0.10418">
        <ele>2196</ele>
        <time>2022-01-26T11:50:45.304Z</time>
      </trkpt>
      <trkpt lat="42.92085" lon="0.10415">
        <ele>2196</ele>
        <time>2022-01-26T11:50:50.305Z</time>
      </trkpt>
      <trkpt lat="42.92086" lon="0.10411">
        <ele>2196</ele>
        <time>2022-01-26T11:50:55.303Z</time>
      </trkpt>
      <trkpt lat="42.92089" lon="0.10404">
        <ele>2196</ele>
        <time>2022-01-26T11:51:20.329Z</time>
      </trkpt>
      <trkpt lat="42.92089" lon="0.10404">
        <ele>2196</ele>
        <time>2022-01-26T11:51:25.305Z</time>
      </trkpt>
      <trkpt lat="42.92089" lon="0.10403">
        <ele>2196</ele>
        <time>2022-01-26T11:51:30.310Z</time>
      </trkpt>
      <trkpt lat="42.92091" lon="0.10399">
        <ele>2198</ele>
        <time>2022-01-26T11:51:35.306Z</time>
      </trkpt>
      <trkpt lat="42.92091" lon="0.10396">
        <ele>2198</ele>
        <time>2022-01-26T11:51:40.310Z</time>
      </trkpt>
      <trkpt lat="42.92092" lon="0.10393">
        <ele>2198</ele>
        <time>2022-01-26T11:51:44.305Z</time>
      </trkpt>
      <trkpt lat="42.92093" lon="0.10389">
        <ele>2198</ele>
        <time>2022-01-26T11:51:49.305Z</time>
      </trkpt>
      <trkpt lat="42.92094" lon="0.10385">
        <ele>2198</ele>
        <time>2022-01-26T11:51:54.304Z</time>
      </trkpt>
      <trkpt lat="42.92095" lon="0.10382">
        <ele>2198</ele>
        <time>2022-01-26T11:51:59.301Z</time>
      </trkpt>
      <trkpt lat="42.92096" lon="0.10378">
        <ele>2198</ele>
        <time>2022-01-26T11:52:04.306Z</time>
      </trkpt>
      <trkpt lat="42.92096" lon="0.10374">
        <ele>2194</ele>
        <time>2022-01-26T11:52:09.298Z</time>
      </trkpt>
      <trkpt lat="42.92097" lon="0.10371">
        <ele>2194</ele>
        <time>2022-01-26T11:52:14.304Z</time>
      </trkpt>
      <trkpt lat="42.92098" lon="0.10368">
        <ele>2214</ele>
        <time>2022-01-26T11:52:19.327Z</time>
      </trkpt>
      <trkpt lat="42.92098" lon="0.10364">
        <ele>2214</ele>
        <time>2022-01-26T11:52:24.299Z</time>
      </trkpt>
      <trkpt lat="42.92099" lon="0.10361">
        <ele>2214</ele>
        <time>2022-01-26T11:52:29.301Z</time>
      </trkpt>
      <trkpt lat="42.921" lon="0.10354">
        <ele>2214</ele>
        <time>2022-01-26T11:52:59.299Z</time>
      </trkpt>
      <trkpt lat="42.921" lon="0.10353">
        <ele>2214</ele>
        <time>2022-01-26T11:53:04.331Z</time>
      </trkpt>
      <trkpt lat="42.921" lon="0.10349">
        <ele>2214</ele>
        <time>2022-01-26T11:53:09.304Z</time>
      </trkpt>
      <trkpt lat="42.921" lon="0.10346">
        <ele>2215</ele>
        <time>2022-01-26T11:53:14.309Z</time>
      </trkpt>
      <trkpt lat="42.92098" lon="0.10343">
        <ele>2215</ele>
        <time>2022-01-26T11:53:19.307Z</time>
      </trkpt>
      <trkpt lat="42.92098" lon="0.10327">
        <ele>2215</ele>
        <time>2022-01-26T11:54:08.301Z</time>
      </trkpt>
      <trkpt lat="42.92098" lon="0.10327">
        <ele>2215</ele>
        <time>2022-01-26T11:54:12.301Z</time>
      </trkpt>
      <trkpt lat="42.92099" lon="0.10328">
        <ele>2215</ele>
        <time>2022-01-26T11:54:17.300Z</time>
      </trkpt>
      <trkpt lat="42.92102" lon="0.10328">
        <ele>2215</ele>
        <time>2022-01-26T11:54:22.303Z</time>
      </trkpt>
      <trkpt lat="42.92104" lon="0.10329">
        <ele>2215</ele>
        <time>2022-01-26T11:54:27.307Z</time>
      </trkpt>
      <trkpt lat="42.92112" lon="0.10327">
        <ele>2215</ele>
        <time>2022-01-26T11:55:05.304Z</time>
      </trkpt>
      <trkpt lat="42.9211" lon="0.10324">
        <ele>2215</ele>
        <time>2022-01-26T11:55:10.302Z</time>
      </trkpt>
      <trkpt lat="42.92109" lon="0.1032">
        <ele>2215</ele>
        <time>2022-01-26T11:55:15.303Z</time>
      </trkpt>
      <trkpt lat="42.92109" lon="0.10317">
        <ele>2221</ele>
        <time>2022-01-26T11:55:20.300Z</time>
      </trkpt>
      <trkpt lat="42.92109" lon="0.10314">
        <ele>2221</ele>
        <time>2022-01-26T11:55:25.303Z</time>
      </trkpt>
      <trkpt lat="42.92108" lon="0.1031">
        <ele>2221</ele>
        <time>2022-01-26T11:55:54.307Z</time>
      </trkpt>
      <trkpt lat="42.92109" lon="0.10308">
        <ele>2221</ele>
        <time>2022-01-26T11:55:58.306Z</time>
      </trkpt>
      <trkpt lat="42.92108" lon="0.10305">
        <ele>2221</ele>
        <time>2022-01-26T11:56:03.311Z</time>
      </trkpt>
      <trkpt lat="42.92108" lon="0.10302">
        <ele>2221</ele>
        <time>2022-01-26T11:56:08.301Z</time>
      </trkpt>
      <trkpt lat="42.92108" lon="0.10299">
        <ele>2221</ele>
        <time>2022-01-26T11:56:13.302Z</time>
      </trkpt>
      <trkpt lat="42.9211" lon="0.10294">
        <ele>2221</ele>
        <time>2022-01-26T11:57:01.302Z</time>
      </trkpt>
      <trkpt lat="42.92111" lon="0.10295">
        <ele>2221</ele>
        <time>2022-01-26T11:57:06.300Z</time>
      </trkpt>
      <trkpt lat="42.92114" lon="0.10296">
        <ele>2221</ele>
        <time>2022-01-26T11:57:11.307Z</time>
      </trkpt>
      <trkpt lat="42.92116" lon="0.10297">
        <ele>2221</ele>
        <time>2022-01-26T11:57:16.305Z</time>
      </trkpt>
      <trkpt lat="42.92119" lon="0.10298">
        <ele>2221</ele>
        <time>2022-01-26T11:57:21.306Z</time>
      </trkpt>
      <trkpt lat="42.92122" lon="0.10301">
        <ele>2221</ele>
        <time>2022-01-26T11:57:26.305Z</time>
      </trkpt>
      <trkpt lat="42.92125" lon="0.10302">
        <ele>2244</ele>
        <time>2022-01-26T11:57:30.305Z</time>
      </trkpt>
      <trkpt lat="42.92128" lon="0.10306">
        <ele>2244</ele>
        <time>2022-01-26T11:57:35.306Z</time>
      </trkpt>
      <trkpt lat="42.92132" lon="0.10307">
        <ele>2244</ele>
        <time>2022-01-26T11:57:40.305Z</time>
      </trkpt>
      <trkpt lat="42.9213" lon="0.10306">
        <ele>2244</ele>
        <time>2022-01-26T11:58:04.303Z</time>
      </trkpt>
      <trkpt lat="42.92129" lon="0.10305">
        <ele>2244</ele>
        <time>2022-01-26T11:58:09.304Z</time>
      </trkpt>
      <trkpt lat="42.92128" lon="0.10304">
        <ele>2244</ele>
        <time>2022-01-26T11:58:14.307Z</time>
      </trkpt>
      <trkpt lat="42.92127" lon="0.10298">
        <ele>2244</ele>
        <time>2022-01-26T11:58:19.310Z</time>
      </trkpt>
      <trkpt lat="42.92127" lon="0.10295">
        <ele>2244</ele>
        <time>2022-01-26T11:58:24.303Z</time>
      </trkpt>
      <trkpt lat="42.92127" lon="0.10293">
        <ele>2244</ele>
        <time>2022-01-26T11:58:28.333Z</time>
      </trkpt>
      <trkpt lat="42.92127" lon="0.1029">
        <ele>2246</ele>
        <time>2022-01-26T11:58:33.305Z</time>
      </trkpt>
      <trkpt lat="42.92127" lon="0.10287">
        <ele>2246</ele>
        <time>2022-01-26T11:58:38.301Z</time>
      </trkpt>
      <trkpt lat="42.92126" lon="0.10283">
        <ele>2246</ele>
        <time>2022-01-26T11:58:43.304Z</time>
      </trkpt>
      <trkpt lat="42.92127" lon="0.10281">
        <ele>2246</ele>
        <time>2022-01-26T11:58:48.304Z</time>
      </trkpt>
      <trkpt lat="42.92125" lon="0.10276">
        <ele>2246</ele>
        <time>2022-01-26T11:59:26.304Z</time>
      </trkpt>
      <trkpt lat="42.92124" lon="0.10274">
        <ele>2226</ele>
        <time>2022-01-26T11:59:31.304Z</time>
      </trkpt>
      <trkpt lat="42.92123" lon="0.10272">
        <ele>2226</ele>
        <time>2022-01-26T11:59:36.306Z</time>
      </trkpt>
      <trkpt lat="42.92121" lon="0.10269">
        <ele>2226</ele>
        <time>2022-01-26T11:59:41.301Z</time>
      </trkpt>
      <trkpt lat="42.92119" lon="0.10265">
        <ele>2226</ele>
        <time>2022-01-26T11:59:46.302Z</time>
      </trkpt>
      <trkpt lat="42.92118" lon="0.10261">
        <ele>2230</ele>
        <time>2022-01-26T11:59:51.307Z</time>
      </trkpt>
      <trkpt lat="42.92117" lon="0.10258">
        <ele>2230</ele>
        <time>2022-01-26T11:59:55.312Z</time>
      </trkpt>
      <trkpt lat="42.92115" lon="0.10254">
        <ele>2230</ele>
        <time>2022-01-26T12:00:00.300Z</time>
      </trkpt>
      <trkpt lat="42.92114" lon="0.10251">
        <ele>2230</ele>
        <time>2022-01-26T12:00:05.314Z</time>
      </trkpt>
      <trkpt lat="42.92113" lon="0.10249">
        <ele>2230</ele>
        <time>2022-01-26T12:00:10.302Z</time>
      </trkpt>
      <trkpt lat="42.92112" lon="0.10242">
        <ele>2230</ele>
        <time>2022-01-26T12:00:48.306Z</time>
      </trkpt>
      <trkpt lat="42.92112" lon="0.10242">
        <ele>2230</ele>
        <time>2022-01-26T12:00:53.304Z</time>
      </trkpt>
      <trkpt lat="42.92111" lon="0.10239">
        <ele>2230</ele>
        <time>2022-01-26T12:00:57.331Z</time>
      </trkpt>
      <trkpt lat="42.9211" lon="0.10234">
        <ele>2240</ele>
        <time>2022-01-26T12:01:02.306Z</time>
      </trkpt>
      <trkpt lat="42.92108" lon="0.10229">
        <ele>2240</ele>
        <time>2022-01-26T12:01:07.303Z</time>
      </trkpt>
      <trkpt lat="42.92106" lon="0.10225">
        <ele>2240</ele>
        <time>2022-01-26T12:01:12.303Z</time>
      </trkpt>
      <trkpt lat="42.92104" lon="0.10221">
        <ele>2240</ele>
        <time>2022-01-26T12:01:17.304Z</time>
      </trkpt>
      <trkpt lat="42.92103" lon="0.10219">
        <ele>2240</ele>
        <time>2022-01-26T12:01:21.326Z</time>
      </trkpt>
      <trkpt lat="42.92102" lon="0.10217">
        <ele>2240</ele>
        <time>2022-01-26T12:01:25.300Z</time>
      </trkpt>
      <trkpt lat="42.92102" lon="0.10214">
        <ele>2240</ele>
        <time>2022-01-26T12:01:30.307Z</time>
      </trkpt>
      <trkpt lat="42.92101" lon="0.10214">
        <ele>2240</ele>
        <time>2022-01-26T12:02:04.302Z</time>
      </trkpt>
      <trkpt lat="42.92101" lon="0.10214">
        <ele>2240</ele>
        <time>2022-01-26T12:02:08.305Z</time>
      </trkpt>
      <trkpt lat="42.92099" lon="0.1021">
        <ele>2240</ele>
        <time>2022-01-26T12:02:13.303Z</time>
      </trkpt>
      <trkpt lat="42.92098" lon="0.10206">
        <ele>2250</ele>
        <time>2022-01-26T12:02:18.303Z</time>
      </trkpt>
      <trkpt lat="42.92096" lon="0.10203">
        <ele>2242</ele>
        <time>2022-01-26T12:02:23.303Z</time>
      </trkpt>
      <trkpt lat="42.92098" lon="0.102">
        <ele>2250</ele>
        <time>2022-01-26T12:03:10.334Z</time>
      </trkpt>
      <trkpt lat="42.921" lon="0.10202">
        <ele>2250</ele>
        <time>2022-01-26T12:03:15.338Z</time>
      </trkpt>
      <trkpt lat="42.92101" lon="0.10203">
        <ele>2250</ele>
        <time>2022-01-26T12:03:20.307Z</time>
      </trkpt>
      <trkpt lat="42.92103" lon="0.10204">
        <ele>2250</ele>
        <time>2022-01-26T12:03:24.413Z</time>
      </trkpt>
      <trkpt lat="42.92106" lon="0.10204">
        <ele>2250</ele>
        <time>2022-01-26T12:03:29.300Z</time>
      </trkpt>
      <trkpt lat="42.92109" lon="0.10205">
        <ele>2250</ele>
        <time>2022-01-26T12:03:38.304Z</time>
      </trkpt>
      <trkpt lat="42.9211" lon="0.10206">
        <ele>2250</ele>
        <time>2022-01-26T12:03:42.408Z</time>
      </trkpt>
      <trkpt lat="42.92113" lon="0.10206">
        <ele>2250</ele>
        <time>2022-01-26T12:03:47.345Z</time>
      </trkpt>
      <trkpt lat="42.92115" lon="0.10206">
        <ele>2250</ele>
        <time>2022-01-26T12:03:51.348Z</time>
      </trkpt>
      <trkpt lat="42.92117" lon="0.10206">
        <ele>2250</ele>
        <time>2022-01-26T12:03:56.348Z</time>
      </trkpt>
      <trkpt lat="42.92121" lon="0.10209">
        <ele>2240</ele>
        <time>2022-01-26T12:04:27.302Z</time>
      </trkpt>
      <trkpt lat="42.92121" lon="0.10209">
        <ele>2240</ele>
        <time>2022-01-26T12:04:36.298Z</time>
      </trkpt>
      <trkpt lat="42.92121" lon="0.10209">
        <ele>2240</ele>
        <time>2022-01-26T12:04:41.302Z</time>
      </trkpt>
      <trkpt lat="42.92124" lon="0.1021">
        <ele>2240</ele>
        <time>2022-01-26T12:04:45.303Z</time>
      </trkpt>
      <trkpt lat="42.92126" lon="0.10211">
        <ele>2258</ele>
        <time>2022-01-26T12:04:50.304Z</time>
      </trkpt>
      <trkpt lat="42.92128" lon="0.10213">
        <ele>2258</ele>
        <time>2022-01-26T12:04:54.301Z</time>
      </trkpt>
      <trkpt lat="42.9213" lon="0.10214">
        <ele>2258</ele>
        <time>2022-01-26T12:04:59.301Z</time>
      </trkpt>
      <trkpt lat="42.92133" lon="0.10216">
        <ele>2258</ele>
        <time>2022-01-26T12:05:04.299Z</time>
      </trkpt>
      <trkpt lat="42.92136" lon="0.10218">
        <ele>2258</ele>
        <time>2022-01-26T12:05:09.310Z</time>
      </trkpt>
      <trkpt lat="42.92141" lon="0.10222">
        <ele>2258</ele>
        <time>2022-01-26T12:05:42.300Z</time>
      </trkpt>
      <trkpt lat="42.92142" lon="0.10222">
        <ele>2258</ele>
        <time>2022-01-26T12:05:47.303Z</time>
      </trkpt>
      <trkpt lat="42.92144" lon="0.10223">
        <ele>2258</ele>
        <time>2022-01-26T12:05:52.307Z</time>
      </trkpt>
      <trkpt lat="42.92146" lon="0.10223">
        <ele>2258</ele>
        <time>2022-01-26T12:05:57.301Z</time>
      </trkpt>
      <trkpt lat="42.92148" lon="0.10225">
        <ele>2258</ele>
        <time>2022-01-26T12:06:02.303Z</time>
      </trkpt>
      <trkpt lat="42.9215" lon="0.10227">
        <ele>2258</ele>
        <time>2022-01-26T12:06:07.300Z</time>
      </trkpt>
      <trkpt lat="42.92153" lon="0.10228">
        <ele>2270</ele>
        <time>2022-01-26T12:06:12.301Z</time>
      </trkpt>
      <trkpt lat="42.92155" lon="0.1023">
        <ele>2270</ele>
        <time>2022-01-26T12:06:17.300Z</time>
      </trkpt>
      <trkpt lat="42.92157" lon="0.10231">
        <ele>2270</ele>
        <time>2022-01-26T12:06:22.303Z</time>
      </trkpt>
      <trkpt lat="42.92159" lon="0.10231">
        <ele>2270</ele>
        <time>2022-01-26T12:06:27.301Z</time>
      </trkpt>
      <trkpt lat="42.92162" lon="0.10233">
        <ele>2270</ele>
        <time>2022-01-26T12:07:17.301Z</time>
      </trkpt>
      <trkpt lat="42.92162" lon="0.10233">
        <ele>2270</ele>
        <time>2022-01-26T12:07:21.302Z</time>
      </trkpt>
      <trkpt lat="42.92165" lon="0.10234">
        <ele>2270</ele>
        <time>2022-01-26T12:07:26.301Z</time>
      </trkpt>
      <trkpt lat="42.92168" lon="0.10235">
        <ele>2270</ele>
        <time>2022-01-26T12:07:31.300Z</time>
      </trkpt>
      <trkpt lat="42.9217" lon="0.10236">
        <ele>2261</ele>
        <time>2022-01-26T12:07:36.301Z</time>
      </trkpt>
      <trkpt lat="42.92175" lon="0.10238">
        <ele>2261</ele>
        <time>2022-01-26T12:07:45.302Z</time>
      </trkpt>
      <trkpt lat="42.92177" lon="0.10238">
        <ele>2261</ele>
        <time>2022-01-26T12:07:50.303Z</time>
      </trkpt>
      <trkpt lat="42.92179" lon="0.10239">
        <ele>2261</ele>
        <time>2022-01-26T12:07:55.305Z</time>
      </trkpt>
      <trkpt lat="42.92181" lon="0.10238">
        <ele>2269</ele>
        <time>2022-01-26T12:08:00.302Z</time>
      </trkpt>
      <trkpt lat="42.92181" lon="0.10238">
        <ele>2269</ele>
        <time>2022-01-26T12:08:05.302Z</time>
      </trkpt>
      <trkpt lat="42.92183" lon="0.10238">
        <ele>2269</ele>
        <time>2022-01-26T12:08:39.302Z</time>
      </trkpt>
      <trkpt lat="42.92185" lon="0.10239">
        <ele>2269</ele>
        <time>2022-01-26T12:08:44.301Z</time>
      </trkpt>
      <trkpt lat="42.92187" lon="0.1024">
        <ele>2269</ele>
        <time>2022-01-26T12:08:49.304Z</time>
      </trkpt>
      <trkpt lat="42.92189" lon="0.1024">
        <ele>2269</ele>
        <time>2022-01-26T12:08:54.300Z</time>
      </trkpt>
      <trkpt lat="42.92191" lon="0.1024">
        <ele>2269</ele>
        <time>2022-01-26T12:08:59.299Z</time>
      </trkpt>
      <trkpt lat="42.92195" lon="0.10243">
        <ele>2269</ele>
        <time>2022-01-26T12:09:34.298Z</time>
      </trkpt>
      <trkpt lat="42.92195" lon="0.10243">
        <ele>2269</ele>
        <time>2022-01-26T12:09:39.298Z</time>
      </trkpt>
      <trkpt lat="42.92196" lon="0.10244">
        <ele>2269</ele>
        <time>2022-01-26T12:09:43.308Z</time>
      </trkpt>
      <trkpt lat="42.92198" lon="0.10249">
        <ele>2269</ele>
        <time>2022-01-26T12:09:48.316Z</time>
      </trkpt>
      <trkpt lat="42.922" lon="0.10253">
        <ele>2269</ele>
        <time>2022-01-26T12:09:53.307Z</time>
      </trkpt>
      <trkpt lat="42.92204" lon="0.10262">
        <ele>2269</ele>
        <time>2022-01-26T12:10:47.299Z</time>
      </trkpt>
      <trkpt lat="42.92205" lon="0.10265">
        <ele>2262</ele>
        <time>2022-01-26T12:10:52.302Z</time>
      </trkpt>
      <trkpt lat="42.92206" lon="0.10268">
        <ele>2262</ele>
        <time>2022-01-26T12:10:57.304Z</time>
      </trkpt>
      <trkpt lat="42.92206" lon="0.1027">
        <ele>2262</ele>
        <time>2022-01-26T12:11:02.305Z</time>
      </trkpt>
      <trkpt lat="42.92206" lon="0.10273">
        <ele>2262</ele>
        <time>2022-01-26T12:11:07.334Z</time>
      </trkpt>
      <trkpt lat="42.92206" lon="0.10282">
        <ele>2262</ele>
        <time>2022-01-26T12:11:51.301Z</time>
      </trkpt>
      <trkpt lat="42.92206" lon="0.10284">
        <ele>2262</ele>
        <time>2022-01-26T12:11:56.300Z</time>
      </trkpt>
      <trkpt lat="42.92205" lon="0.10287">
        <ele>2262</ele>
        <time>2022-01-26T12:12:01.303Z</time>
      </trkpt>
      <trkpt lat="42.92207" lon="0.10291">
        <ele>2262</ele>
        <time>2022-01-26T12:12:06.326Z</time>
      </trkpt>
      <trkpt lat="42.92211" lon="0.1029">
        <ele>2271</ele>
        <time>2022-01-26T12:12:11.298Z</time>
      </trkpt>
      <trkpt lat="42.9222" lon="0.10284">
        <ele>2271</ele>
        <time>2022-01-26T12:13:14.298Z</time>
      </trkpt>
      <trkpt lat="42.92221" lon="0.10283">
        <ele>2271</ele>
        <time>2022-01-26T12:13:19.297Z</time>
      </trkpt>
      <trkpt lat="42.92221" lon="0.10283">
        <ele>2271</ele>
        <time>2022-01-26T12:13:23.325Z</time>
      </trkpt>
      <trkpt lat="42.92221" lon="0.10283">
        <ele>2271</ele>
        <time>2022-01-26T12:13:28.303Z</time>
      </trkpt>
      <trkpt lat="42.92222" lon="0.10282">
        <ele>2271</ele>
        <time>2022-01-26T12:13:33.298Z</time>
      </trkpt>
      <trkpt lat="42.92219" lon="0.1028">
        <ele>2271</ele>
        <time>2022-01-26T13:03:05.295Z</time>
      </trkpt>
      <trkpt lat="42.92219" lon="0.1028">
        <ele>2271</ele>
        <time>2022-01-26T13:03:09.320Z</time>
      </trkpt>
      <trkpt lat="42.92219" lon="0.1028">
        <ele>2271</ele>
        <time>2022-01-26T13:03:14.292Z</time>
      </trkpt>
      <trkpt lat="42.92219" lon="0.10278">
        <ele>2271</ele>
        <time>2022-01-26T13:03:19.296Z</time>
      </trkpt>
      <trkpt lat="42.92217" lon="0.10272">
        <ele>2271</ele>
        <time>2022-01-26T13:03:24.294Z</time>
      </trkpt>
      <trkpt lat="42.92213" lon="0.10259">
        <ele>2279</ele>
        <time>2022-01-26T13:03:29.294Z</time>
      </trkpt>
      <trkpt lat="42.92211" lon="0.10252">
        <ele>2279</ele>
        <time>2022-01-26T13:03:33.292Z</time>
      </trkpt>
      <trkpt lat="42.92207" lon="0.1024">
        <ele>2269</ele>
        <time>2022-01-26T13:03:38.294Z</time>
      </trkpt>
      <trkpt lat="42.92204" lon="0.10233">
        <ele>2279</ele>
        <time>2022-01-26T13:03:43.297Z</time>
      </trkpt>
      <trkpt lat="42.92199" lon="0.10243">
        <ele>2269</ele>
        <time>2022-01-26T13:03:48.294Z</time>
      </trkpt>
      <trkpt lat="42.92196" lon="0.10243">
        <ele>2269</ele>
        <time>2022-01-26T13:03:53.293Z</time>
      </trkpt>
      <trkpt lat="42.92192" lon="0.10246">
        <ele>2269</ele>
        <time>2022-01-26T13:03:57.294Z</time>
      </trkpt>
      <trkpt lat="42.92174" lon="0.10237">
        <ele>2261</ele>
        <time>2022-01-26T13:04:02.295Z</time>
      </trkpt>
      <trkpt lat="42.92152" lon="0.1023">
        <ele>2258</ele>
        <time>2022-01-26T13:04:07.293Z</time>
      </trkpt>
      <trkpt lat="42.92143" lon="0.1022">
        <ele>2258</ele>
        <time>2022-01-26T13:04:12.298Z</time>
      </trkpt>
      <trkpt lat="42.92135" lon="0.10228">
        <ele>2258</ele>
        <time>2022-01-26T13:04:17.284Z</time>
      </trkpt>
      <trkpt lat="42.92129" lon="0.10234">
        <ele>2258</ele>
        <time>2022-01-26T13:04:22.301Z</time>
      </trkpt>
      <trkpt lat="42.92115" lon="0.1024">
        <ele>2230</ele>
        <time>2022-01-26T13:04:37.299Z</time>
      </trkpt>
      <trkpt lat="42.92117" lon="0.10245">
        <ele>2230</ele>
        <time>2022-01-26T13:04:42.292Z</time>
      </trkpt>
      <trkpt lat="42.92121" lon="0.10257">
        <ele>2230</ele>
        <time>2022-01-26T13:04:47.293Z</time>
      </trkpt>
      <trkpt lat="42.92125" lon="0.10269">
        <ele>2226</ele>
        <time>2022-01-26T13:04:52.306Z</time>
      </trkpt>
      <trkpt lat="42.92128" lon="0.10278">
        <ele>2246</ele>
        <time>2022-01-26T13:04:56.316Z</time>
      </trkpt>
      <trkpt lat="42.92121" lon="0.10273">
        <ele>2226</ele>
        <time>2022-01-26T13:05:01.295Z</time>
      </trkpt>
      <trkpt lat="42.92111" lon="0.1028">
        <ele>2226</ele>
        <time>2022-01-26T13:05:06.290Z</time>
      </trkpt>
      <trkpt lat="42.92116" lon="0.10298">
        <ele>2221</ele>
        <time>2022-01-26T13:05:11.291Z</time>
      </trkpt>
      <trkpt lat="42.92122" lon="0.1031">
        <ele>2221</ele>
        <time>2022-01-26T13:05:16.295Z</time>
      </trkpt>
      <trkpt lat="42.92126" lon="0.10324">
        <ele>2235</ele>
        <time>2022-01-26T13:05:21.300Z</time>
      </trkpt>
      <trkpt lat="42.92123" lon="0.1034">
        <ele>2215</ele>
        <time>2022-01-26T13:05:26.296Z</time>
      </trkpt>
      <trkpt lat="42.92119" lon="0.10356">
        <ele>2214</ele>
        <time>2022-01-26T13:05:31.293Z</time>
      </trkpt>
      <trkpt lat="42.92114" lon="0.1038">
        <ele>2216</ele>
        <time>2022-01-26T13:05:36.291Z</time>
      </trkpt>
      <trkpt lat="42.92107" lon="0.10409">
        <ele>2214</ele>
        <time>2022-01-26T13:05:41.295Z</time>
      </trkpt>
      <trkpt lat="42.92101" lon="0.10428">
        <ele>2214</ele>
        <time>2022-01-26T13:05:46.294Z</time>
      </trkpt>
      <trkpt lat="42.92095" lon="0.10449">
        <ele>2194</ele>
        <time>2022-01-26T13:05:51.296Z</time>
      </trkpt>
      <trkpt lat="42.92091" lon="0.10466">
        <ele>2191</ele>
        <time>2022-01-26T13:05:56.295Z</time>
      </trkpt>
      <trkpt lat="42.92093" lon="0.10461">
        <ele>2191</ele>
        <time>2022-01-26T13:06:35.299Z</time>
      </trkpt>
      <trkpt lat="42.92093" lon="0.10461">
        <ele>2191</ele>
        <time>2022-01-26T13:06:40.294Z</time>
      </trkpt>
      <trkpt lat="42.92093" lon="0.10461">
        <ele>2191</ele>
        <time>2022-01-26T13:06:44.317Z</time>
      </trkpt>
      <trkpt lat="42.92092" lon="0.10468">
        <ele>2191</ele>
        <time>2022-01-26T13:06:49.295Z</time>
      </trkpt>
      <trkpt lat="42.92093" lon="0.10482">
        <ele>2191</ele>
        <time>2022-01-26T13:06:54.290Z</time>
      </trkpt>
      <trkpt lat="42.92093" lon="0.10488">
        <ele>2187</ele>
        <time>2022-01-26T13:06:59.290Z</time>
      </trkpt>
      <trkpt lat="42.92083" lon="0.10483">
        <ele>2191</ele>
        <time>2022-01-26T13:07:04.290Z</time>
      </trkpt>
      <trkpt lat="42.9208" lon="0.10494">
        <ele>2187</ele>
        <time>2022-01-26T13:07:09.292Z</time>
      </trkpt>
      <trkpt lat="42.92071" lon="0.10497">
        <ele>2187</ele>
        <time>2022-01-26T13:07:14.288Z</time>
      </trkpt>
      <trkpt lat="42.92067" lon="0.10514">
        <ele>2172</ele>
        <time>2022-01-26T13:07:19.294Z</time>
      </trkpt>
      <trkpt lat="42.92054" lon="0.10572">
        <ele>2161</ele>
        <time>2022-01-26T13:07:24.290Z</time>
      </trkpt>
      <trkpt lat="42.92055" lon="0.10591">
        <ele>2161</ele>
        <time>2022-01-26T13:07:29.290Z</time>
      </trkpt>
      <trkpt lat="42.92038" lon="0.10603">
        <ele>2162</ele>
        <time>2022-01-26T13:07:34.287Z</time>
      </trkpt>
      <trkpt lat="42.92021" lon="0.10621">
        <ele>2162</ele>
        <time>2022-01-26T13:07:39.289Z</time>
      </trkpt>
      <trkpt lat="42.91998" lon="0.1066">
        <ele>2153</ele>
        <time>2022-01-26T13:07:44.293Z</time>
      </trkpt>
      <trkpt lat="42.91988" lon="0.10701">
        <ele>2145</ele>
        <time>2022-01-26T13:07:49.292Z</time>
      </trkpt>
      <trkpt lat="42.91988" lon="0.10712">
        <ele>2142</ele>
        <time>2022-01-26T13:07:54.292Z</time>
      </trkpt>
      <trkpt lat="42.91987" lon="0.1072">
        <ele>2142</ele>
        <time>2022-01-26T13:07:59.290Z</time>
      </trkpt>
      <trkpt lat="42.91984" lon="0.10731">
        <ele>2142</ele>
        <time>2022-01-26T13:08:04.290Z</time>
      </trkpt>
      <trkpt lat="42.91979" lon="0.10742">
        <ele>2138</ele>
        <time>2022-01-26T13:08:09.293Z</time>
      </trkpt>
      <trkpt lat="42.91973" lon="0.10752">
        <ele>2138</ele>
        <time>2022-01-26T13:08:14.288Z</time>
      </trkpt>
      <trkpt lat="42.91973" lon="0.10751">
        <ele>2138</ele>
        <time>2022-01-26T13:08:33.289Z</time>
      </trkpt>
      <trkpt lat="42.91973" lon="0.1075">
        <ele>2138</ele>
        <time>2022-01-26T13:08:38.289Z</time>
      </trkpt>
      <trkpt lat="42.91968" lon="0.10748">
        <ele>2138</ele>
        <time>2022-01-26T13:08:43.289Z</time>
      </trkpt>
      <trkpt lat="42.91957" lon="0.10749">
        <ele>2138</ele>
        <time>2022-01-26T13:08:48.291Z</time>
      </trkpt>
      <trkpt lat="42.91947" lon="0.10755">
        <ele>2138</ele>
        <time>2022-01-26T13:08:53.290Z</time>
      </trkpt>
      <trkpt lat="42.91935" lon="0.10759">
        <ele>2138</ele>
        <time>2022-01-26T13:08:57.357Z</time>
      </trkpt>
      <trkpt lat="42.91927" lon="0.10768">
        <ele>2133</ele>
        <time>2022-01-26T13:09:02.287Z</time>
      </trkpt>
      <trkpt lat="42.9192" lon="0.10772">
        <ele>2133</ele>
        <time>2022-01-26T13:09:07.317Z</time>
      </trkpt>
      <trkpt lat="42.91909" lon="0.10781">
        <ele>2133</ele>
        <time>2022-01-26T13:09:12.294Z</time>
      </trkpt>
      <trkpt lat="42.91895" lon="0.10794">
        <ele>2126</ele>
        <time>2022-01-26T13:09:17.291Z</time>
      </trkpt>
      <trkpt lat="42.91886" lon="0.10814">
        <ele>2126</ele>
        <time>2022-01-26T13:09:22.292Z</time>
      </trkpt>
      <trkpt lat="42.91873" lon="0.10819">
        <ele>2119</ele>
        <time>2022-01-26T13:09:27.296Z</time>
      </trkpt>
      <trkpt lat="42.9187" lon="0.10825">
        <ele>2119</ele>
        <time>2022-01-26T13:09:32.293Z</time>
      </trkpt>
      <trkpt lat="42.91868" lon="0.10827">
        <ele>2119</ele>
        <time>2022-01-26T13:09:36.318Z</time>
      </trkpt>
      <trkpt lat="42.91861" lon="0.10834">
        <ele>2119</ele>
        <time>2022-01-26T13:09:41.289Z</time>
      </trkpt>
      <trkpt lat="42.91851" lon="0.10851">
        <ele>2123</ele>
        <time>2022-01-26T13:09:46.289Z</time>
      </trkpt>
      <trkpt lat="42.91838" lon="0.10873">
        <ele>2120</ele>
        <time>2022-01-26T13:09:51.292Z</time>
      </trkpt>
      <trkpt lat="42.91825" lon="0.10901">
        <ele>2118</ele>
        <time>2022-01-26T13:10:10.293Z</time>
      </trkpt>
      <trkpt lat="42.91825" lon="0.10902">
        <ele>2118</ele>
        <time>2022-01-26T13:10:15.290Z</time>
      </trkpt>
      <trkpt lat="42.91824" lon="0.10904">
        <ele>2119</ele>
        <time>2022-01-26T13:10:20.291Z</time>
      </trkpt>
      <trkpt lat="42.91813" lon="0.10922">
        <ele>2105</ele>
        <time>2022-01-26T13:10:25.293Z</time>
      </trkpt>
      <trkpt lat="42.91803" lon="0.10936">
        <ele>2100</ele>
        <time>2022-01-26T13:10:30.288Z</time>
      </trkpt>
      <trkpt lat="42.91798" lon="0.10949">
        <ele>2100</ele>
        <time>2022-01-26T13:10:34.317Z</time>
      </trkpt>
      <trkpt lat="42.91792" lon="0.1096">
        <ele>2103</ele>
        <time>2022-01-26T13:10:39.293Z</time>
      </trkpt>
      <trkpt lat="42.91779" lon="0.10973">
        <ele>2085</ele>
        <time>2022-01-26T13:10:44.293Z</time>
      </trkpt>
      <trkpt lat="42.9177" lon="0.10986">
        <ele>2086</ele>
        <time>2022-01-26T13:10:49.294Z</time>
      </trkpt>
      <trkpt lat="42.9177" lon="0.10981">
        <ele>2085</ele>
        <time>2022-01-26T13:11:03.295Z</time>
      </trkpt>
      <trkpt lat="42.91766" lon="0.10984">
        <ele>2085</ele>
        <time>2022-01-26T13:11:08.294Z</time>
      </trkpt>
      <trkpt lat="42.91757" lon="0.10999">
        <ele>2068</ele>
        <time>2022-01-26T13:11:13.290Z</time>
      </trkpt>
      <trkpt lat="42.91753" lon="0.11011">
        <ele>2068</ele>
        <time>2022-01-26T13:11:18.291Z</time>
      </trkpt>
      <trkpt lat="42.9175" lon="0.11023">
        <ele>2060</ele>
        <time>2022-01-26T13:11:23.291Z</time>
      </trkpt>
      <trkpt lat="42.91749" lon="0.11024">
        <ele>2060</ele>
        <time>2022-01-26T13:11:33.288Z</time>
      </trkpt>
      <trkpt lat="42.91749" lon="0.11025">
        <ele>2060</ele>
        <time>2022-01-26T13:11:38.291Z</time>
      </trkpt>
      <trkpt lat="42.91749" lon="0.11025">
        <ele>2060</ele>
        <time>2022-01-26T13:11:43.292Z</time>
      </trkpt>
      <trkpt lat="42.91748" lon="0.11027">
        <ele>2060</ele>
        <time>2022-01-26T13:11:48.288Z</time>
      </trkpt>
      <trkpt lat="42.91742" lon="0.11036">
        <ele>2060</ele>
        <time>2022-01-26T13:11:52.292Z</time>
      </trkpt>
      <trkpt lat="42.91735" lon="0.11033">
        <ele>2048</ele>
        <time>2022-01-26T13:11:57.315Z</time>
      </trkpt>
      <trkpt lat="42.91727" lon="0.11034">
        <ele>2048</ele>
        <time>2022-01-26T13:12:02.293Z</time>
      </trkpt>
      <trkpt lat="42.91718" lon="0.11041">
        <ele>2048</ele>
        <time>2022-01-26T13:12:07.291Z</time>
      </trkpt>
      <trkpt lat="42.91712" lon="0.11054">
        <ele>2051</ele>
        <time>2022-01-26T13:12:12.294Z</time>
      </trkpt>
      <trkpt lat="42.91713" lon="0.11046">
        <ele>2051</ele>
        <time>2022-01-26T13:12:17.292Z</time>
      </trkpt>
      <trkpt lat="42.91713" lon="0.11046">
        <ele>2051</ele>
        <time>2022-01-26T13:12:21.291Z</time>
      </trkpt>
      <trkpt lat="42.91712" lon="0.11047">
        <ele>2051</ele>
        <time>2022-01-26T13:12:26.290Z</time>
      </trkpt>
      <trkpt lat="42.91706" lon="0.11058">
        <ele>2037</ele>
        <time>2022-01-26T13:12:31.292Z</time>
      </trkpt>
      <trkpt lat="42.91694" lon="0.11069">
        <ele>2037</ele>
        <time>2022-01-26T13:12:56.295Z</time>
      </trkpt>
      <trkpt lat="42.91687" lon="0.11065">
        <ele>2037</ele>
        <time>2022-01-26T13:13:01.293Z</time>
      </trkpt>
      <trkpt lat="42.91678" lon="0.11064">
        <ele>2032</ele>
        <time>2022-01-26T13:13:06.292Z</time>
      </trkpt>
      <trkpt lat="42.91669" lon="0.11061">
        <ele>2032</ele>
        <time>2022-01-26T13:13:11.290Z</time>
      </trkpt>
      <trkpt lat="42.91668" lon="0.11061">
        <ele>2032</ele>
        <time>2022-01-26T13:13:16.290Z</time>
      </trkpt>
      <trkpt lat="42.91668" lon="0.11061">
        <ele>2032</ele>
        <time>2022-01-26T13:13:20.289Z</time>
      </trkpt>
      <trkpt lat="42.91666" lon="0.11061">
        <ele>2032</ele>
        <time>2022-01-26T13:13:25.296Z</time>
      </trkpt>
      <trkpt lat="42.91661" lon="0.1106">
        <ele>2032</ele>
        <time>2022-01-26T13:13:30.290Z</time>
      </trkpt>
      <trkpt lat="42.91657" lon="0.11074">
        <ele>2029</ele>
        <time>2022-01-26T13:13:35.296Z</time>
      </trkpt>
      <trkpt lat="42.91657" lon="0.11078">
        <ele>2029</ele>
        <time>2022-01-26T13:13:45.296Z</time>
      </trkpt>
      <trkpt lat="42.91657" lon="0.11079">
        <ele>2029</ele>
        <time>2022-01-26T13:13:50.292Z</time>
      </trkpt>
      <trkpt lat="42.91657" lon="0.11079">
        <ele>2029</ele>
        <time>2022-01-26T13:13:55.290Z</time>
      </trkpt>
      <trkpt lat="42.91657" lon="0.1108">
        <ele>2029</ele>
        <time>2022-01-26T13:14:00.292Z</time>
      </trkpt>
      <trkpt lat="42.91643" lon="0.11075">
        <ele>2018</ele>
        <time>2022-01-26T13:14:05.291Z</time>
      </trkpt>
      <trkpt lat="42.91637" lon="0.11087">
        <ele>2018</ele>
        <time>2022-01-26T13:14:10.289Z</time>
      </trkpt>
      <trkpt lat="42.9163" lon="0.11086">
        <ele>2018</ele>
        <time>2022-01-26T13:14:15.294Z</time>
      </trkpt>
      <trkpt lat="42.91624" lon="0.11096">
        <ele>1996</ele>
        <time>2022-01-26T13:14:20.291Z</time>
      </trkpt>
      <trkpt lat="42.91622" lon="0.11092">
        <ele>1996</ele>
        <time>2022-01-26T13:14:24.315Z</time>
      </trkpt>
      <trkpt lat="42.91628" lon="0.1109">
        <ele>2018</ele>
        <time>2022-01-26T13:15:07.288Z</time>
      </trkpt>
      <trkpt lat="42.91628" lon="0.1109">
        <ele>2018</ele>
        <time>2022-01-26T13:15:12.288Z</time>
      </trkpt>
      <trkpt lat="42.91628" lon="0.1109">
        <ele>2018</ele>
        <time>2022-01-26T13:15:17.318Z</time>
      </trkpt>
      <trkpt lat="42.91628" lon="0.11091">
        <ele>2018</ele>
        <time>2022-01-26T13:15:22.287Z</time>
      </trkpt>
      <trkpt lat="42.91636" lon="0.11102">
        <ele>2016</ele>
        <time>2022-01-26T13:15:27.291Z</time>
      </trkpt>
      <trkpt lat="42.91632" lon="0.11115">
        <ele>2016</ele>
        <time>2022-01-26T13:15:32.286Z</time>
      </trkpt>
      <trkpt lat="42.91626" lon="0.11122">
        <ele>2016</ele>
        <time>2022-01-26T13:15:37.295Z</time>
      </trkpt>
      <trkpt lat="42.91619" lon="0.11128">
        <ele>1993</ele>
        <time>2022-01-26T13:15:42.294Z</time>
      </trkpt>
      <trkpt lat="42.91614" lon="0.11135">
        <ele>1993</ele>
        <time>2022-01-26T13:15:46.291Z</time>
      </trkpt>
      <trkpt lat="42.91609" lon="0.11133">
        <ele>1993</ele>
        <time>2022-01-26T13:15:51.295Z</time>
      </trkpt>
      <trkpt lat="42.91609" lon="0.11124">
        <ele>1995</ele>
        <time>2022-01-26T13:15:56.291Z</time>
      </trkpt>
      <trkpt lat="42.91603" lon="0.11129">
        <ele>1993</ele>
        <time>2022-01-26T13:16:01.291Z</time>
      </trkpt>
      <trkpt lat="42.91597" lon="0.11138">
        <ele>1976</ele>
        <time>2022-01-26T13:16:06.291Z</time>
      </trkpt>
      <trkpt lat="42.91569" lon="0.11197">
        <ele>1962</ele>
        <time>2022-01-26T13:16:11.279Z</time>
      </trkpt>
      <trkpt lat="42.91559" lon="0.11218">
        <ele>1962</ele>
        <time>2022-01-26T13:16:16.296Z</time>
      </trkpt>
      <trkpt lat="42.91555" lon="0.11228">
        <ele>1962</ele>
        <time>2022-01-26T13:16:21.295Z</time>
      </trkpt>
      <trkpt lat="42.91554" lon="0.11229">
        <ele>1962</ele>
        <time>2022-01-26T13:16:26.292Z</time>
      </trkpt>
      <trkpt lat="42.91553" lon="0.11231">
        <ele>1962</ele>
        <time>2022-01-26T13:16:31.292Z</time>
      </trkpt>
      <trkpt lat="42.91545" lon="0.1124">
        <ele>1957</ele>
        <time>2022-01-26T13:16:36.291Z</time>
      </trkpt>
      <trkpt lat="42.91537" lon="0.11237">
        <ele>1944</ele>
        <time>2022-01-26T13:16:41.291Z</time>
      </trkpt>
      <trkpt lat="42.91536" lon="0.11254">
        <ele>1944</ele>
        <time>2022-01-26T13:16:46.293Z</time>
      </trkpt>
      <trkpt lat="42.91534" lon="0.11266">
        <ele>1943</ele>
        <time>2022-01-26T13:16:51.293Z</time>
      </trkpt>
      <trkpt lat="42.91526" lon="0.11262">
        <ele>1944</ele>
        <time>2022-01-26T13:16:55.291Z</time>
      </trkpt>
      <trkpt lat="42.91526" lon="0.1128">
        <ele>1943</ele>
        <time>2022-01-26T13:17:00.295Z</time>
      </trkpt>
      <trkpt lat="42.91514" lon="0.11278">
        <ele>1928</ele>
        <time>2022-01-26T13:17:05.292Z</time>
      </trkpt>
      <trkpt lat="42.91511" lon="0.11275">
        <ele>1928</ele>
        <time>2022-01-26T13:17:10.287Z</time>
      </trkpt>
      <trkpt lat="42.91511" lon="0.11282">
        <ele>1928</ele>
        <time>2022-01-26T13:17:15.288Z</time>
      </trkpt>
      <trkpt lat="42.91515" lon="0.11295">
        <ele>1935</ele>
        <time>2022-01-26T13:17:20.293Z</time>
      </trkpt>
      <trkpt lat="42.91511" lon="0.11308">
        <ele>1923</ele>
        <time>2022-01-26T13:17:25.293Z</time>
      </trkpt>
      <trkpt lat="42.91501" lon="0.11331">
        <ele>1917</ele>
        <time>2022-01-26T13:17:30.296Z</time>
      </trkpt>
      <trkpt lat="42.91504" lon="0.11349">
        <ele>1911</ele>
        <time>2022-01-26T13:17:35.288Z</time>
      </trkpt>
      <trkpt lat="42.91489" lon="0.11359">
        <ele>1911</ele>
        <time>2022-01-26T13:17:40.287Z</time>
      </trkpt>
      <trkpt lat="42.9148" lon="0.11367">
        <ele>1900</ele>
        <time>2022-01-26T13:17:45.288Z</time>
      </trkpt>
      <trkpt lat="42.91474" lon="0.11403">
        <ele>1887</ele>
        <time>2022-01-26T13:18:05.362Z</time>
      </trkpt>
      <trkpt lat="42.91465" lon="0.11416">
        <ele>1887</ele>
        <time>2022-01-26T13:18:10.287Z</time>
      </trkpt>
      <trkpt lat="42.91467" lon="0.11438">
        <ele>1880</ele>
        <time>2022-01-26T13:18:15.292Z</time>
      </trkpt>
      <trkpt lat="42.91455" lon="0.11447">
        <ele>1879</ele>
        <time>2022-01-26T13:18:20.295Z</time>
      </trkpt>
      <trkpt lat="42.91441" lon="0.11451">
        <ele>1879</ele>
        <time>2022-01-26T13:18:25.295Z</time>
      </trkpt>
      <trkpt lat="42.91455" lon="0.1147">
        <ele>1878</ele>
        <time>2022-01-26T13:18:30.291Z</time>
      </trkpt>
      <trkpt lat="42.91463" lon="0.11482">
        <ele>1879</ele>
        <time>2022-01-26T13:18:34.316Z</time>
      </trkpt>
      <trkpt lat="42.91463" lon="0.11504">
        <ele>1878</ele>
        <time>2022-01-26T13:18:39.294Z</time>
      </trkpt>
      <trkpt lat="42.91459" lon="0.1152">
        <ele>1877</ele>
        <time>2022-01-26T13:18:44.291Z</time>
      </trkpt>
      <trkpt lat="42.91449" lon="0.11551">
        <ele>1874</ele>
        <time>2022-01-26T13:18:49.288Z</time>
      </trkpt>
      <trkpt lat="42.91441" lon="0.11566">
        <ele>1874</ele>
        <time>2022-01-26T13:18:54.296Z</time>
      </trkpt>
      <trkpt lat="42.91431" lon="0.11583">
        <ele>1871</ele>
        <time>2022-01-26T13:18:59.291Z</time>
      </trkpt>
      <trkpt lat="42.91421" lon="0.11595">
        <ele>1868</ele>
        <time>2022-01-26T13:19:03.291Z</time>
      </trkpt>
      <trkpt lat="42.91421" lon="0.11593">
        <ele>1868</ele>
        <time>2022-01-26T13:20:03.291Z</time>
      </trkpt>
      <trkpt lat="42.9142" lon="0.11594">
        <ele>1868</ele>
        <time>2022-01-26T13:20:07.312Z</time>
      </trkpt>
      <trkpt lat="42.91419" lon="0.11595">
        <ele>1868</ele>
        <time>2022-01-26T13:20:12.292Z</time>
      </trkpt>
      <trkpt lat="42.91422" lon="0.11602">
        <ele>1865</ele>
        <time>2022-01-26T13:20:17.289Z</time>
      </trkpt>
      <trkpt lat="42.91425" lon="0.11616">
        <ele>1865</ele>
        <time>2022-01-26T13:20:22.287Z</time>
      </trkpt>
      <trkpt lat="42.91404" lon="0.11628">
        <ele>1866</ele>
        <time>2022-01-26T13:20:27.290Z</time>
      </trkpt>
      <trkpt lat="42.91397" lon="0.11644">
        <ele>1861</ele>
        <time>2022-01-26T13:20:32.285Z</time>
      </trkpt>
      <trkpt lat="42.91407" lon="0.11659">
        <ele>1866</ele>
        <time>2022-01-26T13:20:36.286Z</time>
      </trkpt>
      <trkpt lat="42.91413" lon="0.11679">
        <ele>1866</ele>
        <time>2022-01-26T13:20:41.288Z</time>
      </trkpt>
      <trkpt lat="42.91393" lon="0.11689">
        <ele>1862</ele>
        <time>2022-01-26T13:20:46.287Z</time>
      </trkpt>
      <trkpt lat="42.91387" lon="0.11709">
        <ele>1862</ele>
        <time>2022-01-26T13:20:51.286Z</time>
      </trkpt>
      <trkpt lat="42.9138" lon="0.11736">
        <ele>1862</ele>
        <time>2022-01-26T13:20:56.289Z</time>
      </trkpt>
      <trkpt lat="42.91374" lon="0.11752">
        <ele>1856</ele>
        <time>2022-01-26T13:21:01.287Z</time>
      </trkpt>
      <trkpt lat="42.9137" lon="0.11763">
        <ele>1856</ele>
        <time>2022-01-26T13:21:06.314Z</time>
      </trkpt>
      <trkpt lat="42.91367" lon="0.11775">
        <ele>1855</ele>
        <time>2022-01-26T13:21:11.289Z</time>
      </trkpt>
      <trkpt lat="42.91367" lon="0.11782">
        <ele>1855</ele>
        <time>2022-01-26T13:21:16.291Z</time>
      </trkpt>
      <trkpt lat="42.91364" lon="0.11796">
        <ele>1853</ele>
        <time>2022-01-26T13:21:21.290Z</time>
      </trkpt>
      <trkpt lat="42.91362" lon="0.11809">
        <ele>1853</ele>
        <time>2022-01-26T13:21:26.287Z</time>
      </trkpt>
      <trkpt lat="42.9136" lon="0.11823">
        <ele>1850</ele>
        <time>2022-01-26T13:21:31.287Z</time>
      </trkpt>
      <trkpt lat="42.91354" lon="0.11827">
        <ele>1850</ele>
        <time>2022-01-26T13:21:35.311Z</time>
      </trkpt>
      <trkpt lat="42.91346" lon="0.1182">
        <ele>1842</ele>
        <time>2022-01-26T13:21:40.290Z</time>
      </trkpt>
      <trkpt lat="42.9133" lon="0.11824">
        <ele>1842</ele>
        <time>2022-01-26T13:21:45.292Z</time>
      </trkpt>
      <trkpt lat="42.91314" lon="0.11819">
        <ele>1837</ele>
        <time>2022-01-26T13:21:50.289Z</time>
      </trkpt>
      <trkpt lat="42.91313" lon="0.11838">
        <ele>1833</ele>
        <time>2022-01-26T13:21:55.288Z</time>
      </trkpt>
      <trkpt lat="42.91303" lon="0.11844">
        <ele>1833</ele>
        <time>2022-01-26T13:22:00.293Z</time>
      </trkpt>
      <trkpt lat="42.91293" lon="0.11836">
        <ele>1833</ele>
        <time>2022-01-26T13:22:04.294Z</time>
      </trkpt>
      <trkpt lat="42.91284" lon="0.11835">
        <ele>1823</ele>
        <time>2022-01-26T13:22:09.288Z</time>
      </trkpt>
      <trkpt lat="42.91278" lon="0.11849">
        <ele>1819</ele>
        <time>2022-01-26T13:22:14.290Z</time>
      </trkpt>
      <trkpt lat="42.9127" lon="0.11837">
        <ele>1823</ele>
        <time>2022-01-26T13:22:19.292Z</time>
      </trkpt>
      <trkpt lat="42.9127" lon="0.11836">
        <ele>1823</ele>
        <time>2022-01-26T13:22:48.289Z</time>
      </trkpt>
      <trkpt lat="42.91271" lon="0.11836">
        <ele>1823</ele>
        <time>2022-01-26T13:22:53.319Z</time>
      </trkpt>
      <trkpt lat="42.91262" lon="0.1184">
        <ele>1812</ele>
        <time>2022-01-26T13:22:58.294Z</time>
      </trkpt>
      <trkpt lat="42.91258" lon="0.11847">
        <ele>1812</ele>
        <time>2022-01-26T13:23:03.290Z</time>
      </trkpt>
      <trkpt lat="42.91248" lon="0.11836">
        <ele>1812</ele>
        <time>2022-01-26T13:23:08.290Z</time>
      </trkpt>
      <trkpt lat="42.91244" lon="0.11853">
        <ele>1806</ele>
        <time>2022-01-26T13:23:13.292Z</time>
      </trkpt>
      <trkpt lat="42.91234" lon="0.11862">
        <ele>1793</ele>
        <time>2022-01-26T13:23:18.291Z</time>
      </trkpt>
      <trkpt lat="42.91224" lon="0.11875">
        <ele>1793</ele>
        <time>2022-01-26T13:23:23.321Z</time>
      </trkpt>
      <trkpt lat="42.91217" lon="0.11869">
        <ele>1793</ele>
        <time>2022-01-26T13:23:28.292Z</time>
      </trkpt>
      <trkpt lat="42.91213" lon="0.11881">
        <ele>1787</ele>
        <time>2022-01-26T13:23:33.292Z</time>
      </trkpt>
      <trkpt lat="42.91201" lon="0.11884">
        <ele>1773</ele>
        <time>2022-01-26T13:23:38.287Z</time>
      </trkpt>
      <trkpt lat="42.91191" lon="0.11879">
        <ele>1773</ele>
        <time>2022-01-26T13:23:43.291Z</time>
      </trkpt>
      <trkpt lat="42.91181" lon="0.11879">
        <ele>1773</ele>
        <time>2022-01-26T13:23:48.288Z</time>
      </trkpt>
      <trkpt lat="42.91157" lon="0.11897">
        <ele>1767</ele>
        <time>2022-01-26T13:24:02.292Z</time>
      </trkpt>
      <trkpt lat="42.91152" lon="0.11906">
        <ele>1745</ele>
        <time>2022-01-26T13:24:07.290Z</time>
      </trkpt>
      <trkpt lat="42.91148" lon="0.11904">
        <ele>1745</ele>
        <time>2022-01-26T13:24:12.288Z</time>
      </trkpt>
      <trkpt lat="42.91148" lon="0.11904">
        <ele>1745</ele>
        <time>2022-01-26T13:24:17.288Z</time>
      </trkpt>
      <trkpt lat="42.91147" lon="0.11904">
        <ele>1745</ele>
        <time>2022-01-26T13:24:22.292Z</time>
      </trkpt>
      <trkpt lat="42.91147" lon="0.11904">
        <ele>1745</ele>
        <time>2022-01-26T13:24:27.288Z</time>
      </trkpt>
      <trkpt lat="42.91147" lon="0.11904">
        <ele>1745</ele>
        <time>2022-01-26T13:24:32.289Z</time>
      </trkpt>
      <trkpt lat="42.91144" lon="0.11898">
        <ele>1747</ele>
        <time>2022-01-26T13:24:37.291Z</time>
      </trkpt>
      <trkpt lat="42.91138" lon="0.11887">
        <ele>1747</ele>
        <time>2022-01-26T13:24:42.290Z</time>
      </trkpt>
      <trkpt lat="42.91131" lon="0.11891">
        <ele>1747</ele>
        <time>2022-01-26T13:24:47.290Z</time>
      </trkpt>
      <trkpt lat="42.91128" lon="0.119">
        <ele>1747</ele>
        <time>2022-01-26T13:24:52.294Z</time>
      </trkpt>
      <trkpt lat="42.91122" lon="0.11903">
        <ele>1739</ele>
        <time>2022-01-26T13:24:57.290Z</time>
      </trkpt>
      <trkpt lat="42.91117" lon="0.11909">
        <ele>1739</ele>
        <time>2022-01-26T13:25:02.292Z</time>
      </trkpt>
      <trkpt lat="42.91114" lon="0.11908">
        <ele>1739</ele>
        <time>2022-01-26T13:25:07.289Z</time>
      </trkpt>
      <trkpt lat="42.91108" lon="0.11909">
        <ele>1739</ele>
        <time>2022-01-26T13:25:11.312Z</time>
      </trkpt>
      <trkpt lat="42.91098" lon="0.1191">
        <ele>1739</ele>
        <time>2022-01-26T13:25:16.291Z</time>
      </trkpt>
      <trkpt lat="42.91089" lon="0.11907">
        <ele>1738</ele>
        <time>2022-01-26T13:25:21.359Z</time>
      </trkpt>
      <trkpt lat="42.91082" lon="0.11904">
        <ele>1738</ele>
        <time>2022-01-26T13:25:26.284Z</time>
      </trkpt>
      <trkpt lat="42.91075" lon="0.11901">
        <ele>1729</ele>
        <time>2022-01-26T13:25:31.294Z</time>
      </trkpt>
      <trkpt lat="42.91073" lon="0.11895">
        <ele>1729</ele>
        <time>2022-01-26T13:25:35.348Z</time>
      </trkpt>
      <trkpt lat="42.9107" lon="0.11892">
        <ele>1729</ele>
        <time>2022-01-26T13:25:40.322Z</time>
      </trkpt>
      <trkpt lat="42.9106" lon="0.1188">
        <ele>1729</ele>
        <time>2022-01-26T13:25:45.355Z</time>
      </trkpt>
      <trkpt lat="42.91058" lon="0.11879">
        <ele>1729</ele>
        <time>2022-01-26T13:25:50.335Z</time>
      </trkpt>
      <trkpt lat="42.91049" lon="0.11878">
        <ele>1729</ele>
        <time>2022-01-26T13:25:55.324Z</time>
      </trkpt>
      <trkpt lat="42.91025" lon="0.11865">
        <ele>1726</ele>
        <time>2022-01-26T13:26:00.321Z</time>
      </trkpt>
      <trkpt lat="42.91014" lon="0.11851">
        <ele>1726</ele>
        <time>2022-01-26T13:26:04.397Z</time>
      </trkpt>
      <trkpt lat="42.91005" lon="0.11837">
        <ele>1722</ele>
        <time>2022-01-26T13:26:09.336Z</time>
      </trkpt>
      <trkpt lat="42.90994" lon="0.11818">
        <ele>1711</ele>
        <time>2022-01-26T13:26:13.362Z</time>
      </trkpt>
      <trkpt lat="42.90986" lon="0.11805">
        <ele>1711</ele>
        <time>2022-01-26T13:26:18.333Z</time>
      </trkpt>
      <trkpt lat="42.90982" lon="0.11802">
        <ele>1713</ele>
        <time>2022-01-26T13:26:47.292Z</time>
      </trkpt>
      <trkpt lat="42.90982" lon="0.11802">
        <ele>1713</ele>
        <time>2022-01-26T13:26:52.294Z</time>
      </trkpt>
      <trkpt lat="42.90977" lon="0.11799">
        <ele>1713</ele>
        <time>2022-01-26T13:26:57.289Z</time>
      </trkpt>
      <trkpt lat="42.9096" lon="0.11794">
        <ele>1713</ele>
        <time>2022-01-26T13:27:02.292Z</time>
      </trkpt>
      <trkpt lat="42.9095" lon="0.11787">
        <ele>1701</ele>
        <time>2022-01-26T13:27:07.283Z</time>
      </trkpt>
      <trkpt lat="42.9094" lon="0.11784">
        <ele>1701</ele>
        <time>2022-01-26T13:27:11.289Z</time>
      </trkpt>
      <trkpt lat="42.90922" lon="0.11776">
        <ele>1711</ele>
        <time>2022-01-26T13:27:16.291Z</time>
      </trkpt>
      <trkpt lat="42.90905" lon="0.1177">
        <ele>1711</ele>
        <time>2022-01-26T13:27:21.290Z</time>
      </trkpt>
      <trkpt lat="42.90889" lon="0.11769">
        <ele>1704</ele>
        <time>2022-01-26T13:27:26.300Z</time>
      </trkpt>
      <trkpt lat="42.90879" lon="0.11766">
        <ele>1704</ele>
        <time>2022-01-26T13:27:30.296Z</time>
      </trkpt>
      <trkpt lat="42.90885" lon="0.11747">
        <ele>1695</ele>
        <time>2022-01-26T13:27:35.304Z</time>
      </trkpt>
      <trkpt lat="42.90881" lon="0.11738">
        <ele>1695</ele>
        <time>2022-01-26T13:27:40.292Z</time>
      </trkpt>
      <trkpt lat="42.90887" lon="0.11726">
        <ele>1688</ele>
        <time>2022-01-26T13:27:45.292Z</time>
      </trkpt>
      <trkpt lat="42.90883" lon="0.11716">
        <ele>1688</ele>
        <time>2022-01-26T13:27:50.291Z</time>
      </trkpt>
      <trkpt lat="42.9089" lon="0.11703">
        <ele>1678</ele>
        <time>2022-01-26T13:27:55.291Z</time>
      </trkpt>
      <trkpt lat="42.90872" lon="0.11702">
        <ele>1673</ele>
        <time>2022-01-26T13:28:00.295Z</time>
      </trkpt>
      <trkpt lat="42.90849" lon="0.11714">
        <ele>1685</ele>
        <time>2022-01-26T13:28:05.290Z</time>
      </trkpt>
      <trkpt lat="42.90832" lon="0.11724">
        <ele>1676</ele>
        <time>2022-01-26T13:28:10.291Z</time>
      </trkpt>
      <trkpt lat="42.90833" lon="0.11709">
        <ele>1676</ele>
        <time>2022-01-26T13:28:14.304Z</time>
      </trkpt>
      <trkpt lat="42.90838" lon="0.1169">
        <ele>1664</ele>
        <time>2022-01-26T13:28:19.291Z</time>
      </trkpt>
      <trkpt lat="42.90816" lon="0.11679">
        <ele>1642</ele>
        <time>2022-01-26T13:28:24.293Z</time>
      </trkpt>
      <trkpt lat="42.90826" lon="0.11635">
        <ele>1645</ele>
        <time>2022-01-26T13:28:43.295Z</time>
      </trkpt>
      <trkpt lat="42.90843" lon="0.11604">
        <ele>1639</ele>
        <time>2022-01-26T13:28:48.291Z</time>
      </trkpt>
      <trkpt lat="42.90843" lon="0.11581">
        <ele>1636</ele>
        <time>2022-01-26T13:28:52.290Z</time>
      </trkpt>
      <trkpt lat="42.90828" lon="0.11578">
        <ele>1636</ele>
        <time>2022-01-26T13:28:57.294Z</time>
      </trkpt>
      <trkpt lat="42.90828" lon="0.11576">
        <ele>1636</ele>
        <time>2022-01-26T13:29:02.292Z</time>
      </trkpt>
      <trkpt lat="42.90825" lon="0.11574">
        <ele>1636</ele>
        <time>2022-01-26T13:29:16.311Z</time>
      </trkpt>
      <trkpt lat="42.90818" lon="0.11577">
        <ele>1632</ele>
        <time>2022-01-26T13:29:21.292Z</time>
      </trkpt>
      <trkpt lat="42.90808" lon="0.11583">
        <ele>1632</ele>
        <time>2022-01-26T13:29:26.288Z</time>
      </trkpt>
      <trkpt lat="42.90801" lon="0.11562">
        <ele>1630</ele>
        <time>2022-01-26T13:29:31.290Z</time>
      </trkpt>
      <trkpt lat="42.90785" lon="0.11551">
        <ele>1625</ele>
        <time>2022-01-26T13:29:36.288Z</time>
      </trkpt>
      <trkpt lat="42.90757" lon="0.11513">
        <ele>1612</ele>
        <time>2022-01-26T13:29:51.291Z</time>
      </trkpt>
      <trkpt lat="42.90758" lon="0.11513">
        <ele>1612</ele>
        <time>2022-01-26T13:29:56.290Z</time>
      </trkpt>
      <trkpt lat="42.90759" lon="0.11512">
        <ele>1612</ele>
        <time>2022-01-26T13:30:01.294Z</time>
      </trkpt>
      <trkpt lat="42.90758" lon="0.11511">
        <ele>1612</ele>
        <time>2022-01-26T13:30:05.307Z</time>
      </trkpt>
      <trkpt lat="42.90758" lon="0.11511">
        <ele>1612</ele>
        <time>2022-01-26T13:30:09.326Z</time>
      </trkpt>
      <trkpt lat="42.90757" lon="0.11512">
        <ele>1612</ele>
        <time>2022-01-26T13:30:14.293Z</time>
      </trkpt>
      <trkpt lat="42.90757" lon="0.11514">
        <ele>1612</ele>
        <time>2022-01-26T13:30:19.300Z</time>
      </trkpt>
      <trkpt lat="42.9075" lon="0.11505">
        <ele>1612</ele>
        <time>2022-01-26T13:30:24.298Z</time>
      </trkpt>
      <trkpt lat="42.90739" lon="0.11474">
        <ele>1609</ele>
        <time>2022-01-26T13:30:29.295Z</time>
      </trkpt>
      <trkpt lat="42.90739" lon="0.11441">
        <ele>1607</ele>
        <time>2022-01-26T13:30:34.296Z</time>
      </trkpt>
      <trkpt lat="42.90732" lon="0.1142">
        <ele>1600</ele>
        <time>2022-01-26T13:30:38.323Z</time>
      </trkpt>
      <trkpt lat="42.90727" lon="0.11385">
        <ele>1599</ele>
        <time>2022-01-26T13:30:43.303Z</time>
      </trkpt>
      <trkpt lat="42.90723" lon="0.11352">
        <ele>1599</ele>
        <time>2022-01-26T13:30:48.299Z</time>
      </trkpt>
      <trkpt lat="42.90722" lon="0.11329">
        <ele>1597</ele>
        <time>2022-01-26T13:30:52.303Z</time>
      </trkpt>
      <trkpt lat="42.90726" lon="0.11298">
        <ele>1587</ele>
        <time>2022-01-26T13:30:57.299Z</time>
      </trkpt>
      <trkpt lat="42.90725" lon="0.11268">
        <ele>1583</ele>
        <time>2022-01-26T13:31:02.295Z</time>
      </trkpt>
      <trkpt lat="42.90724" lon="0.11234">
        <ele>1585</ele>
        <time>2022-01-26T13:31:07.305Z</time>
      </trkpt>
      <trkpt lat="42.90719" lon="0.11206">
        <ele>1588</ele>
        <time>2022-01-26T13:31:12.302Z</time>
      </trkpt>
      <trkpt lat="42.90715" lon="0.11177">
        <ele>1591</ele>
        <time>2022-01-26T13:31:17.306Z</time>
      </trkpt>
      <trkpt lat="42.90706" lon="0.11152">
        <ele>1585</ele>
        <time>2022-01-26T13:31:22.302Z</time>
      </trkpt>
      <trkpt lat="42.90697" lon="0.11119">
        <ele>1582</ele>
        <time>2022-01-26T13:31:27.296Z</time>
      </trkpt>
      <trkpt lat="42.9069" lon="0.11089">
        <ele>1586</ele>
        <time>2022-01-26T13:31:32.302Z</time>
      </trkpt>
      <trkpt lat="42.90682" lon="0.11058">
        <ele>1587</ele>
        <time>2022-01-26T13:31:37.296Z</time>
      </trkpt>
      <trkpt lat="42.90673" lon="0.11034">
        <ele>1578</ele>
        <time>2022-01-26T13:31:41.302Z</time>
      </trkpt>
      <trkpt lat="42.90664" lon="0.11005">
        <ele>1578</ele>
        <time>2022-01-26T13:31:46.299Z</time>
      </trkpt>
      <trkpt lat="42.90662" lon="0.10977">
        <ele>1577</ele>
        <time>2022-01-26T13:31:51.301Z</time>
      </trkpt>
      <trkpt lat="42.90658" lon="0.10955">
        <ele>1575</ele>
        <time>2022-01-26T13:31:56.303Z</time>
      </trkpt>
      <trkpt lat="42.9065" lon="0.10927">
        <ele>1562</ele>
        <time>2022-01-26T13:32:01.302Z</time>
      </trkpt>
      <trkpt lat="42.90644" lon="0.10899">
        <ele>1561</ele>
        <time>2022-01-26T13:32:06.301Z</time>
      </trkpt>
      <trkpt lat="42.9064" lon="0.10869">
        <ele>1560</ele>
        <time>2022-01-26T13:32:11.296Z</time>
      </trkpt>
      <trkpt lat="42.90637" lon="0.10831">
        <ele>1562</ele>
        <time>2022-01-26T13:32:16.295Z</time>
      </trkpt>
      <trkpt lat="42.90636" lon="0.10788">
        <ele>1558</ele>
        <time>2022-01-26T13:32:21.300Z</time>
      </trkpt>
      <trkpt lat="42.90634" lon="0.1075">
        <ele>1556</ele>
        <time>2022-01-26T13:32:26.293Z</time>
      </trkpt>
      <trkpt lat="42.90634" lon="0.10717">
        <ele>1559</ele>
        <time>2022-01-26T13:32:31.298Z</time>
      </trkpt>
      <trkpt lat="42.9063" lon="0.10681">
        <ele>1559</ele>
        <time>2022-01-26T13:32:36.326Z</time>
      </trkpt>
      <trkpt lat="42.90622" lon="0.10646">
        <ele>1540</ele>
        <time>2022-01-26T13:32:41.301Z</time>
      </trkpt>
      <trkpt lat="42.90618" lon="0.10618">
        <ele>1536</ele>
        <time>2022-01-26T13:32:46.302Z</time>
      </trkpt>
      <trkpt lat="42.9061" lon="0.10581">
        <ele>1534</ele>
        <time>2022-01-26T13:34:04.302Z</time>
      </trkpt>
      <trkpt lat="42.90613" lon="0.10579">
        <ele>1534</ele>
        <time>2022-01-26T13:34:09.297Z</time>
      </trkpt>
      <trkpt lat="42.90617" lon="0.10575">
        <ele>1534</ele>
        <time>2022-01-26T13:34:14.289Z</time>
      </trkpt>
      <trkpt lat="42.90621" lon="0.10569">
        <ele>1532</ele>
        <time>2022-01-26T13:34:19.288Z</time>
      </trkpt>
      <trkpt lat="42.90624" lon="0.10563">
        <ele>1532</ele>
        <time>2022-01-26T13:34:24.292Z</time>
      </trkpt>
      <trkpt lat="42.90625" lon="0.10558">
        <ele>1550</ele>
        <time>2022-01-26T13:34:29.290Z</time>
      </trkpt>
      <trkpt lat="42.90627" lon="0.10553">
        <ele>1550</ele>
        <time>2022-01-26T13:34:34.288Z</time>
      </trkpt>
      <trkpt lat="42.90629" lon="0.10546">
        <ele>1550</ele>
        <time>2022-01-26T13:34:39.290Z</time>
      </trkpt>
      <trkpt lat="42.9063" lon="0.10538">
        <ele>1548</ele>
        <time>2022-01-26T13:34:44.289Z</time>
      </trkpt>
      <trkpt lat="42.90632" lon="0.10532">
        <ele>1548</ele>
        <time>2022-01-26T13:34:49.287Z</time>
      </trkpt>
      <trkpt lat="42.90632" lon="0.10526">
        <ele>1548</ele>
        <time>2022-01-26T13:34:54.289Z</time>
      </trkpt>
      <trkpt lat="42.9063" lon="0.10518">
        <ele>1548</ele>
        <time>2022-01-26T13:34:59.291Z</time>
      </trkpt>
      <trkpt lat="42.90629" lon="0.1051">
        <ele>1545</ele>
        <time>2022-01-26T13:35:04.290Z</time>
      </trkpt>
      <trkpt lat="42.90628" lon="0.10502">
        <ele>1545</ele>
        <time>2022-01-26T13:35:09.288Z</time>
      </trkpt>
      <trkpt lat="42.90628" lon="0.10494">
        <ele>1545</ele>
        <time>2022-01-26T13:35:14.287Z</time>
      </trkpt>
      <trkpt lat="42.90626" lon="0.10487">
        <ele>1545</ele>
        <time>2022-01-26T13:35:19.289Z</time>
      </trkpt>
      <trkpt lat="42.90626" lon="0.1048">
        <ele>1545</ele>
        <time>2022-01-26T13:35:24.289Z</time>
      </trkpt>
      <trkpt lat="42.90627" lon="0.10475">
        <ele>1545</ele>
        <time>2022-01-26T13:35:29.292Z</time>
      </trkpt>
      <trkpt lat="42.90629" lon="0.1047">
        <ele>1545</ele>
        <time>2022-01-26T13:35:34.290Z</time>
      </trkpt>
      <trkpt lat="42.9063" lon="0.10464">
        <ele>1545</ele>
        <time>2022-01-26T13:35:39.290Z</time>
      </trkpt>
      <trkpt lat="42.9063" lon="0.10458">
        <ele>1542</ele>
        <time>2022-01-26T13:35:43.288Z</time>
      </trkpt>
      <trkpt lat="42.90631" lon="0.1045">
        <ele>1542</ele>
        <time>2022-01-26T13:35:48.289Z</time>
      </trkpt>
      <trkpt lat="42.9063" lon="0.10444">
        <ele>1542</ele>
        <time>2022-01-26T13:35:53.289Z</time>
      </trkpt>
      <trkpt lat="42.90628" lon="0.10439">
        <ele>1542</ele>
        <time>2022-01-26T13:35:58.292Z</time>
      </trkpt>
      <trkpt lat="42.90626" lon="0.10436">
        <ele>1542</ele>
        <time>2022-01-26T13:36:03.289Z</time>
      </trkpt>
    </trkseg>
  </trk>
</gpx>